<?xml version="1.0" encoding="UTF-8" standalone="no" ?>
<gpx xmlns="http://www.topografix.com/GPX/1/1" xmlns:xsi="http://www.w3.org/2001/XMLSchema-instance" xsi:schemaLocation="http://www.topografix.com/GPX/1/1 http://www.topografix.com/GPX/1/1/gpx.xsd" version="1.1" creator="VisuGPX - https://www.visugpx.com">
  <metadata>
    <name>Sortie Popoff en Beaujolais</name>
    <desc><![CDATA[Parcours de la sortie en Beaujolais .]]></desc>
  </metadata>
  <trk>
    <name><![CDATA[2011-01-08 POPOF]]></name>
    <trkseg>
      <trkpt lat="45.74772" lon="4.73835">
        <ele>306.32</ele>
        <time>2011-01-08T06:48:22Z</time>
      </trkpt>
      <trkpt lat="45.74738" lon="4.73776">
        <ele>294.78</ele>
        <time>2011-01-08T07:03:24Z</time>
      </trkpt>
      <trkpt lat="45.74736" lon="4.73634">
        <ele>296.7</ele>
        <time>2011-01-08T07:03:33Z</time>
      </trkpt>
      <trkpt lat="45.74736" lon="4.73496">
        <ele>295.26</ele>
        <time>2011-01-08T07:03:41Z</time>
      </trkpt>
      <trkpt lat="45.74736" lon="4.73353">
        <ele>294.3</ele>
        <time>2011-01-08T07:03:49Z</time>
      </trkpt>
      <trkpt lat="45.74733" lon="4.73219">
        <ele>294.78</ele>
        <time>2011-01-08T07:03:57Z</time>
      </trkpt>
      <trkpt lat="45.74734" lon="4.73073">
        <ele>296.7</ele>
        <time>2011-01-08T07:04:05Z</time>
      </trkpt>
      <trkpt lat="45.74735" lon="4.72931">
        <ele>299.59</ele>
        <time>2011-01-08T07:04:12Z</time>
      </trkpt>
      <trkpt lat="45.74735" lon="4.72789">
        <ele>303.43</ele>
        <time>2011-01-08T07:04:19Z</time>
      </trkpt>
      <trkpt lat="45.74736" lon="4.72642">
        <ele>305.36</ele>
        <time>2011-01-08T07:04:26Z</time>
      </trkpt>
      <trkpt lat="45.74735" lon="4.72509">
        <ele>305.84</ele>
        <time>2011-01-08T07:04:34Z</time>
      </trkpt>
      <trkpt lat="45.74735" lon="4.72376">
        <ele>305.84</ele>
        <time>2011-01-08T07:04:42Z</time>
      </trkpt>
      <trkpt lat="45.74735" lon="4.72252">
        <ele>305.36</ele>
        <time>2011-01-08T07:04:55Z</time>
      </trkpt>
      <trkpt lat="45.74735" lon="4.72104">
        <ele>308.24</ele>
        <time>2011-01-08T07:05:08Z</time>
      </trkpt>
      <trkpt lat="45.74734" lon="4.71962">
        <ele>308.72</ele>
        <time>2011-01-08T07:05:15Z</time>
      </trkpt>
      <trkpt lat="45.74733" lon="4.71824">
        <ele>310.64</ele>
        <time>2011-01-08T07:05:22Z</time>
      </trkpt>
      <trkpt lat="45.74733" lon="4.71679">
        <ele>311.12</ele>
        <time>2011-01-08T07:05:29Z</time>
      </trkpt>
      <trkpt lat="45.74733" lon="4.71549">
        <ele>309.68</ele>
        <time>2011-01-08T07:05:46Z</time>
      </trkpt>
      <trkpt lat="45.74733" lon="4.71417">
        <ele>310.64</ele>
        <time>2011-01-08T07:05:54Z</time>
      </trkpt>
      <trkpt lat="45.74732" lon="4.71276">
        <ele>313.05</ele>
        <time>2011-01-08T07:06:00Z</time>
      </trkpt>
      <trkpt lat="45.74732" lon="4.7114">
        <ele>316.89</ele>
        <time>2011-01-08T07:06:06Z</time>
      </trkpt>
      <trkpt lat="45.74732" lon="4.71005">
        <ele>322.66</ele>
        <time>2011-01-08T07:06:12Z</time>
      </trkpt>
      <trkpt lat="45.74732" lon="4.70868">
        <ele>329.39</ele>
        <time>2011-01-08T07:06:18Z</time>
      </trkpt>
      <trkpt lat="45.74734" lon="4.70731">
        <ele>331.79</ele>
        <time>2011-01-08T07:06:24Z</time>
      </trkpt>
      <trkpt lat="45.74724" lon="4.70604">
        <ele>333.23</ele>
        <time>2011-01-08T07:06:30Z</time>
      </trkpt>
      <trkpt lat="45.74678" lon="4.70477">
        <ele>329.87</ele>
        <time>2011-01-08T07:06:37Z</time>
      </trkpt>
      <trkpt lat="45.74677" lon="4.70336">
        <ele>328.43</ele>
        <time>2011-01-08T07:06:44Z</time>
      </trkpt>
      <trkpt lat="45.74694" lon="4.70194">
        <ele>329.87</ele>
        <time>2011-01-08T07:06:50Z</time>
      </trkpt>
      <trkpt lat="45.7472" lon="4.70073">
        <ele>332.75</ele>
        <time>2011-01-08T07:06:55Z</time>
      </trkpt>
      <trkpt lat="45.74771" lon="4.69943">
        <ele>334.68</ele>
        <time>2011-01-08T07:07:01Z</time>
      </trkpt>
      <trkpt lat="45.74824" lon="4.69814">
        <ele>339</ele>
        <time>2011-01-08T07:07:07Z</time>
      </trkpt>
      <trkpt lat="45.74875" lon="4.69687">
        <ele>342.37</ele>
        <time>2011-01-08T07:07:13Z</time>
      </trkpt>
      <trkpt lat="45.74924" lon="4.69566">
        <ele>346.69</ele>
        <time>2011-01-08T07:07:19Z</time>
      </trkpt>
      <trkpt lat="45.74958" lon="4.69427">
        <ele>350.06</ele>
        <time>2011-01-08T07:07:28Z</time>
      </trkpt>
      <trkpt lat="45.74974" lon="4.69279">
        <ele>353.9</ele>
        <time>2011-01-08T07:07:34Z</time>
      </trkpt>
      <trkpt lat="45.7499" lon="4.69137">
        <ele>357.75</ele>
        <time>2011-01-08T07:07:40Z</time>
      </trkpt>
      <trkpt lat="45.75003" lon="4.68996">
        <ele>362.55</ele>
        <time>2011-01-08T07:07:47Z</time>
      </trkpt>
      <trkpt lat="45.7499" lon="4.68864">
        <ele>366.4</ele>
        <time>2011-01-08T07:07:56Z</time>
      </trkpt>
      <trkpt lat="45.74955" lon="4.68726">
        <ele>370.24</ele>
        <time>2011-01-08T07:08:03Z</time>
      </trkpt>
      <trkpt lat="45.74919" lon="4.68602">
        <ele>373.61</ele>
        <time>2011-01-08T07:08:09Z</time>
      </trkpt>
      <trkpt lat="45.74885" lon="4.68482">
        <ele>377.45</ele>
        <time>2011-01-08T07:08:15Z</time>
      </trkpt>
      <trkpt lat="45.74854" lon="4.68355">
        <ele>382.26</ele>
        <time>2011-01-08T07:08:21Z</time>
      </trkpt>
      <trkpt lat="45.74832" lon="4.68224">
        <ele>386.11</ele>
        <time>2011-01-08T07:08:27Z</time>
      </trkpt>
      <trkpt lat="45.7482" lon="4.68085">
        <ele>389.95</ele>
        <time>2011-01-08T07:08:33Z</time>
      </trkpt>
      <trkpt lat="45.74819" lon="4.67942">
        <ele>389.95</ele>
        <time>2011-01-08T07:08:39Z</time>
      </trkpt>
      <trkpt lat="45.74826" lon="4.67793">
        <ele>392.36</ele>
        <time>2011-01-08T07:08:45Z</time>
      </trkpt>
      <trkpt lat="45.74834" lon="4.67643">
        <ele>396.2</ele>
        <time>2011-01-08T07:08:51Z</time>
      </trkpt>
      <trkpt lat="45.7484" lon="4.67503">
        <ele>400.53</ele>
        <time>2011-01-08T07:08:57Z</time>
      </trkpt>
      <trkpt lat="45.74847" lon="4.67365">
        <ele>404.37</ele>
        <time>2011-01-08T07:09:03Z</time>
      </trkpt>
      <trkpt lat="45.74846" lon="4.67233">
        <ele>408.22</ele>
        <time>2011-01-08T07:09:09Z</time>
      </trkpt>
      <trkpt lat="45.74858" lon="4.67098">
        <ele>413.5</ele>
        <time>2011-01-08T07:09:15Z</time>
      </trkpt>
      <trkpt lat="45.74876" lon="4.66957">
        <ele>417.83</ele>
        <time>2011-01-08T07:09:21Z</time>
      </trkpt>
      <trkpt lat="45.74894" lon="4.6682">
        <ele>421.19</ele>
        <time>2011-01-08T07:09:27Z</time>
      </trkpt>
      <trkpt lat="45.74898" lon="4.6668">
        <ele>427.44</ele>
        <time>2011-01-08T07:09:33Z</time>
      </trkpt>
      <trkpt lat="45.74899" lon="4.66539">
        <ele>435.13</ele>
        <time>2011-01-08T07:09:39Z</time>
      </trkpt>
      <trkpt lat="45.74887" lon="4.66406">
        <ele>441.86</ele>
        <time>2011-01-08T07:09:45Z</time>
      </trkpt>
      <trkpt lat="45.74862" lon="4.66269">
        <ele>449.55</ele>
        <time>2011-01-08T07:09:51Z</time>
      </trkpt>
      <trkpt lat="45.74823" lon="4.66135">
        <ele>455.8</ele>
        <time>2011-01-08T07:09:58Z</time>
      </trkpt>
      <trkpt lat="45.74831" lon="4.66004">
        <ele>462.05</ele>
        <time>2011-01-08T07:10:04Z</time>
      </trkpt>
      <trkpt lat="45.74833" lon="4.65876">
        <ele>469.26</ele>
        <time>2011-01-08T07:10:12Z</time>
      </trkpt>
      <trkpt lat="45.7479" lon="4.65764">
        <ele>480.32</ele>
        <time>2011-01-08T07:10:22Z</time>
      </trkpt>
      <trkpt lat="45.74724" lon="4.65663">
        <ele>492.81</ele>
        <time>2011-01-08T07:10:32Z</time>
      </trkpt>
      <trkpt lat="45.74672" lon="4.65556">
        <ele>498.1</ele>
        <time>2011-01-08T07:10:38Z</time>
      </trkpt>
      <trkpt lat="45.74621" lon="4.65443">
        <ele>504.83</ele>
        <time>2011-01-08T07:10:45Z</time>
      </trkpt>
      <trkpt lat="45.74595" lon="4.65314">
        <ele>513.96</ele>
        <time>2011-01-08T07:10:54Z</time>
      </trkpt>
      <trkpt lat="45.74613" lon="4.65174">
        <ele>521.65</ele>
        <time>2011-01-08T07:11:02Z</time>
      </trkpt>
      <trkpt lat="45.74626" lon="4.65029">
        <ele>531.27</ele>
        <time>2011-01-08T07:11:10Z</time>
      </trkpt>
      <trkpt lat="45.74656" lon="4.6491">
        <ele>538.48</ele>
        <time>2011-01-08T07:11:16Z</time>
      </trkpt>
      <trkpt lat="45.74658" lon="4.648">
        <ele>547.13</ele>
        <time>2011-01-08T07:11:25Z</time>
      </trkpt>
      <trkpt lat="45.74574" lon="4.64717">
        <ele>562.03</ele>
        <time>2011-01-08T07:11:34Z</time>
      </trkpt>
      <trkpt lat="45.74522" lon="4.64607">
        <ele>570.68</ele>
        <time>2011-01-08T07:11:43Z</time>
      </trkpt>
      <trkpt lat="45.74497" lon="4.64475">
        <ele>581.25</ele>
        <time>2011-01-08T07:11:51Z</time>
      </trkpt>
      <trkpt lat="45.74514" lon="4.644">
        <ele>590.87</ele>
        <time>2011-01-08T07:12:02Z</time>
      </trkpt>
      <trkpt lat="45.74587" lon="4.64486">
        <ele>601.92</ele>
        <time>2011-01-08T07:12:11Z</time>
      </trkpt>
      <trkpt lat="45.74682" lon="4.64463">
        <ele>611.54</ele>
        <time>2011-01-08T07:12:21Z</time>
      </trkpt>
      <trkpt lat="45.74752" lon="4.64359">
        <ele>622.11</ele>
        <time>2011-01-08T07:12:30Z</time>
      </trkpt>
      <trkpt lat="45.74818" lon="4.64271">
        <ele>630.76</ele>
        <time>2011-01-08T07:12:39Z</time>
      </trkpt>
      <trkpt lat="45.7488" lon="4.64178">
        <ele>636.53</ele>
        <time>2011-01-08T07:12:48Z</time>
      </trkpt>
      <trkpt lat="45.7494" lon="4.64077">
        <ele>643.26</ele>
        <time>2011-01-08T07:12:56Z</time>
      </trkpt>
      <trkpt lat="45.74999" lon="4.63975">
        <ele>651.43</ele>
        <time>2011-01-08T07:13:04Z</time>
      </trkpt>
      <trkpt lat="45.75073" lon="4.63893">
        <ele>663.93</ele>
        <time>2011-01-08T07:13:15Z</time>
      </trkpt>
      <trkpt lat="45.75157" lon="4.63845">
        <ele>672.1</ele>
        <time>2011-01-08T07:13:25Z</time>
      </trkpt>
      <trkpt lat="45.75236" lon="4.63776">
        <ele>674.5</ele>
        <time>2011-01-08T07:13:34Z</time>
      </trkpt>
      <trkpt lat="45.7527" lon="4.63658">
        <ele>680.75</ele>
        <time>2011-01-08T07:13:47Z</time>
      </trkpt>
      <trkpt lat="45.75256" lon="4.63504">
        <ele>695.65</ele>
        <time>2011-01-08T07:14:10Z</time>
      </trkpt>
      <trkpt lat="45.75284" lon="4.63376">
        <ele>703.82</ele>
        <time>2011-01-08T07:14:22Z</time>
      </trkpt>
      <trkpt lat="45.75338" lon="4.63268">
        <ele>709.59</ele>
        <time>2011-01-08T07:14:30Z</time>
      </trkpt>
      <trkpt lat="45.75397" lon="4.63157">
        <ele>713.44</ele>
        <time>2011-01-08T07:14:39Z</time>
      </trkpt>
      <trkpt lat="45.75446" lon="4.63027">
        <ele>713.92</ele>
        <time>2011-01-08T07:14:46Z</time>
      </trkpt>
      <trkpt lat="45.75487" lon="4.6289">
        <ele>716.32</ele>
        <time>2011-01-08T07:14:53Z</time>
      </trkpt>
      <trkpt lat="45.75523" lon="4.62766">
        <ele>717.28</ele>
        <time>2011-01-08T07:14:59Z</time>
      </trkpt>
      <trkpt lat="45.75566" lon="4.62641">
        <ele>722.57</ele>
        <time>2011-01-08T07:15:06Z</time>
      </trkpt>
      <trkpt lat="45.75606" lon="4.62514">
        <ele>734.1</ele>
        <time>2011-01-08T07:15:14Z</time>
      </trkpt>
      <trkpt lat="45.75614" lon="4.62371">
        <ele>743.72</ele>
        <time>2011-01-08T07:15:22Z</time>
      </trkpt>
      <trkpt lat="45.75592" lon="4.62225">
        <ele>749.97</ele>
        <time>2011-01-08T07:15:30Z</time>
      </trkpt>
      <trkpt lat="45.75603" lon="4.62094">
        <ele>760.06</ele>
        <time>2011-01-08T07:15:37Z</time>
      </trkpt>
      <trkpt lat="45.75603" lon="4.61936">
        <ele>768.23</ele>
        <time>2011-01-08T07:15:45Z</time>
      </trkpt>
      <trkpt lat="45.75624" lon="4.618">
        <ele>774</ele>
        <time>2011-01-08T07:15:54Z</time>
      </trkpt>
      <trkpt lat="45.75628" lon="4.61661">
        <ele>774.96</ele>
        <time>2011-01-08T07:16:09Z</time>
      </trkpt>
      <trkpt lat="45.75618" lon="4.61517">
        <ele>774.48</ele>
        <time>2011-01-08T07:16:15Z</time>
      </trkpt>
      <trkpt lat="45.75609" lon="4.61395">
        <ele>762.94</ele>
        <time>2011-01-08T07:16:28Z</time>
      </trkpt>
      <trkpt lat="45.75687" lon="4.6146">
        <ele>749.49</ele>
        <time>2011-01-08T07:16:47Z</time>
      </trkpt>
      <trkpt lat="45.75734" lon="4.61327">
        <ele>728.82</ele>
        <time>2011-01-08T07:17:03Z</time>
      </trkpt>
      <trkpt lat="45.758" lon="4.61264">
        <ele>721.61</ele>
        <time>2011-01-08T07:17:16Z</time>
      </trkpt>
      <trkpt lat="45.75872" lon="4.61203">
        <ele>708.15</ele>
        <time>2011-01-08T07:17:29Z</time>
      </trkpt>
      <trkpt lat="45.75935" lon="4.61065">
        <ele>691.33</ele>
        <time>2011-01-08T07:17:43Z</time>
      </trkpt>
      <trkpt lat="45.76052" lon="4.61016">
        <ele>683.15</ele>
        <time>2011-01-08T07:17:53Z</time>
      </trkpt>
      <trkpt lat="45.76163" lon="4.6094">
        <ele>675.46</ele>
        <time>2011-01-08T07:18:04Z</time>
      </trkpt>
      <trkpt lat="45.76217" lon="4.60842">
        <ele>658.64</ele>
        <time>2011-01-08T07:18:17Z</time>
      </trkpt>
      <trkpt lat="45.76226" lon="4.60692">
        <ele>645.66</ele>
        <time>2011-01-08T07:18:29Z</time>
      </trkpt>
      <trkpt lat="45.76231" lon="4.60544">
        <ele>635.09</ele>
        <time>2011-01-08T07:18:40Z</time>
      </trkpt>
      <trkpt lat="45.76246" lon="4.60388">
        <ele>629.32</ele>
        <time>2011-01-08T07:18:50Z</time>
      </trkpt>
      <trkpt lat="45.76276" lon="4.60244">
        <ele>615.86</ele>
        <time>2011-01-08T07:18:59Z</time>
      </trkpt>
      <trkpt lat="45.76357" lon="4.60088">
        <ele>609.13</ele>
        <time>2011-01-08T07:19:26Z</time>
      </trkpt>
      <trkpt lat="45.76371" lon="4.59947">
        <ele>603.85</ele>
        <time>2011-01-08T07:19:36Z</time>
      </trkpt>
      <trkpt lat="45.76425" lon="4.5985">
        <ele>587.98</ele>
        <time>2011-01-08T07:19:47Z</time>
      </trkpt>
      <trkpt lat="45.76519" lon="4.59787">
        <ele>565.39</ele>
        <time>2011-01-08T07:20:00Z</time>
      </trkpt>
      <trkpt lat="45.76595" lon="4.59748">
        <ele>548.09</ele>
        <time>2011-01-08T07:20:15Z</time>
      </trkpt>
      <trkpt lat="45.76688" lon="4.59725">
        <ele>533.19</ele>
        <time>2011-01-08T07:20:29Z</time>
      </trkpt>
      <trkpt lat="45.76786" lon="4.59702">
        <ele>526.46</ele>
        <time>2011-01-08T07:20:39Z</time>
      </trkpt>
      <trkpt lat="45.7687" lon="4.59732">
        <ele>507.23</ele>
        <time>2011-01-08T07:20:54Z</time>
      </trkpt>
      <trkpt lat="45.76987" lon="4.59625">
        <ele>503.39</ele>
        <time>2011-01-08T07:21:09Z</time>
      </trkpt>
      <trkpt lat="45.76981" lon="4.59485">
        <ele>495.7</ele>
        <time>2011-01-08T07:21:19Z</time>
      </trkpt>
      <trkpt lat="45.76956" lon="4.59354">
        <ele>488.97</ele>
        <time>2011-01-08T07:21:28Z</time>
      </trkpt>
      <trkpt lat="45.76953" lon="4.59221">
        <ele>482.72</ele>
        <time>2011-01-08T07:21:37Z</time>
      </trkpt>
      <trkpt lat="45.76982" lon="4.59099">
        <ele>478.87</ele>
        <time>2011-01-08T07:21:45Z</time>
      </trkpt>
      <trkpt lat="45.77071" lon="4.59041">
        <ele>469.26</ele>
        <time>2011-01-08T07:21:54Z</time>
      </trkpt>
      <trkpt lat="45.77167" lon="4.5899">
        <ele>452.92</ele>
        <time>2011-01-08T07:22:03Z</time>
      </trkpt>
      <trkpt lat="45.77263" lon="4.58984">
        <ele>443.31</ele>
        <time>2011-01-08T07:22:11Z</time>
      </trkpt>
      <trkpt lat="45.77356" lon="4.58983">
        <ele>431.77</ele>
        <time>2011-01-08T07:22:19Z</time>
      </trkpt>
      <trkpt lat="45.77451" lon="4.58992">
        <ele>421.68</ele>
        <time>2011-01-08T07:22:27Z</time>
      </trkpt>
      <trkpt lat="45.77537" lon="4.59039">
        <ele>414.47</ele>
        <time>2011-01-08T07:22:35Z</time>
      </trkpt>
      <trkpt lat="45.77622" lon="4.59091">
        <ele>409.18</ele>
        <time>2011-01-08T07:22:45Z</time>
      </trkpt>
      <trkpt lat="45.77724" lon="4.59048">
        <ele>400.05</ele>
        <time>2011-01-08T07:22:54Z</time>
      </trkpt>
      <trkpt lat="45.77822" lon="4.59012">
        <ele>385.63</ele>
        <time>2011-01-08T07:23:06Z</time>
      </trkpt>
      <trkpt lat="45.7791" lon="4.59034">
        <ele>381.3</ele>
        <time>2011-01-08T07:23:26Z</time>
      </trkpt>
      <trkpt lat="45.78002" lon="4.5908">
        <ele>375.05</ele>
        <time>2011-01-08T07:23:39Z</time>
      </trkpt>
      <trkpt lat="45.78086" lon="4.59042">
        <ele>367.36</ele>
        <time>2011-01-08T07:23:49Z</time>
      </trkpt>
      <trkpt lat="45.78181" lon="4.5903">
        <ele>368.32</ele>
        <time>2011-01-08T07:23:58Z</time>
      </trkpt>
      <trkpt lat="45.78276" lon="4.59026">
        <ele>366.88</ele>
        <time>2011-01-08T07:24:05Z</time>
      </trkpt>
      <trkpt lat="45.78371" lon="4.59006">
        <ele>364.48</ele>
        <time>2011-01-08T07:24:14Z</time>
      </trkpt>
      <trkpt lat="45.78459" lon="4.5906">
        <ele>376.01</ele>
        <time>2011-01-08T07:24:25Z</time>
      </trkpt>
      <trkpt lat="45.7854" lon="4.59117">
        <ele>382.74</ele>
        <time>2011-01-08T07:24:33Z</time>
      </trkpt>
      <trkpt lat="45.78614" lon="4.59195">
        <ele>386.11</ele>
        <time>2011-01-08T07:24:41Z</time>
      </trkpt>
      <trkpt lat="45.78608" lon="4.59338">
        <ele>383.22</ele>
        <time>2011-01-08T07:24:55Z</time>
      </trkpt>
      <trkpt lat="45.78717" lon="4.59399">
        <ele>399.57</ele>
        <time>2011-01-08T07:25:06Z</time>
      </trkpt>
      <trkpt lat="45.78812" lon="4.59461">
        <ele>405.33</ele>
        <time>2011-01-08T07:25:16Z</time>
      </trkpt>
      <trkpt lat="45.78909" lon="4.5944">
        <ele>384.66</ele>
        <time>2011-01-08T07:25:35Z</time>
      </trkpt>
      <trkpt lat="45.78997" lon="4.59393">
        <ele>371.69</ele>
        <time>2011-01-08T07:25:44Z</time>
      </trkpt>
      <trkpt lat="45.79078" lon="4.59324">
        <ele>354.38</ele>
        <time>2011-01-08T07:25:53Z</time>
      </trkpt>
      <trkpt lat="45.79174" lon="4.59333">
        <ele>341.89</ele>
        <time>2011-01-08T07:26:03Z</time>
      </trkpt>
      <trkpt lat="45.79275" lon="4.59308">
        <ele>331.31</ele>
        <time>2011-01-08T07:26:11Z</time>
      </trkpt>
      <trkpt lat="45.79357" lon="4.59243">
        <ele>323.14</ele>
        <time>2011-01-08T07:26:20Z</time>
      </trkpt>
      <trkpt lat="45.79452" lon="4.59214">
        <ele>316.41</ele>
        <time>2011-01-08T07:26:29Z</time>
      </trkpt>
      <trkpt lat="45.79538" lon="4.59187">
        <ele>301.99</ele>
        <time>2011-01-08T07:26:39Z</time>
      </trkpt>
      <trkpt lat="45.79621" lon="4.59081">
        <ele>279.4</ele>
        <time>2011-01-08T07:26:54Z</time>
      </trkpt>
      <trkpt lat="45.79704" lon="4.59034">
        <ele>266.9</ele>
        <time>2011-01-08T07:27:07Z</time>
      </trkpt>
      <trkpt lat="45.79767" lon="4.58937">
        <ele>267.38</ele>
        <time>2011-01-08T07:27:44Z</time>
      </trkpt>
      <trkpt lat="45.79836" lon="4.58845">
        <ele>268.83</ele>
        <time>2011-01-08T07:28:08Z</time>
      </trkpt>
      <trkpt lat="45.79923" lon="4.58885">
        <ele>268.35</ele>
        <time>2011-01-08T07:28:15Z</time>
      </trkpt>
      <trkpt lat="45.80002" lon="4.58942">
        <ele>269.31</ele>
        <time>2011-01-08T07:28:30Z</time>
      </trkpt>
      <trkpt lat="45.80059" lon="4.58946">
        <ele>270.75</ele>
        <time>2011-01-08T07:28:44Z</time>
      </trkpt>
      <trkpt lat="45.80142" lon="4.58889">
        <ele>282.77</ele>
        <time>2011-01-08T07:28:55Z</time>
      </trkpt>
      <trkpt lat="45.80242" lon="4.58889">
        <ele>298.63</ele>
        <time>2011-01-08T07:29:09Z</time>
      </trkpt>
      <trkpt lat="45.80342" lon="4.58905">
        <ele>308.72</ele>
        <time>2011-01-08T07:29:23Z</time>
      </trkpt>
      <trkpt lat="45.80458" lon="4.58852">
        <ele>314.49</ele>
        <time>2011-01-08T07:29:41Z</time>
      </trkpt>
      <trkpt lat="45.80553" lon="4.58792">
        <ele>318.81</ele>
        <time>2011-01-08T07:29:54Z</time>
      </trkpt>
      <trkpt lat="45.80647" lon="4.58729">
        <ele>326.02</ele>
        <time>2011-01-08T07:30:09Z</time>
      </trkpt>
      <trkpt lat="45.80723" lon="4.58657">
        <ele>329.87</ele>
        <time>2011-01-08T07:30:38Z</time>
      </trkpt>
      <trkpt lat="45.80801" lon="4.58585">
        <ele>330.83</ele>
        <time>2011-01-08T07:30:48Z</time>
      </trkpt>
      <trkpt lat="45.80883" lon="4.58501">
        <ele>327.47</ele>
        <time>2011-01-08T07:30:58Z</time>
      </trkpt>
      <trkpt lat="45.80916" lon="4.58384">
        <ele>314.97</ele>
        <time>2011-01-08T07:31:07Z</time>
      </trkpt>
      <trkpt lat="45.80886" lon="4.58272">
        <ele>301.03</ele>
        <time>2011-01-08T07:31:17Z</time>
      </trkpt>
      <trkpt lat="45.80974" lon="4.58248">
        <ele>304.88</ele>
        <time>2011-01-08T07:31:27Z</time>
      </trkpt>
      <trkpt lat="45.81044" lon="4.58159">
        <ele>303.91</ele>
        <time>2011-01-08T07:31:33Z</time>
      </trkpt>
      <trkpt lat="45.81116" lon="4.58071">
        <ele>301.99</ele>
        <time>2011-01-08T07:31:39Z</time>
      </trkpt>
      <trkpt lat="45.81195" lon="4.58007">
        <ele>295.74</ele>
        <time>2011-01-08T07:31:45Z</time>
      </trkpt>
      <trkpt lat="45.81277" lon="4.57952">
        <ele>290.94</ele>
        <time>2011-01-08T07:31:51Z</time>
      </trkpt>
      <trkpt lat="45.81348" lon="4.57868">
        <ele>285.65</ele>
        <time>2011-01-08T07:32:00Z</time>
      </trkpt>
      <trkpt lat="45.81394" lon="4.57755">
        <ele>284.21</ele>
        <time>2011-01-08T07:32:10Z</time>
      </trkpt>
      <trkpt lat="45.81425" lon="4.57653">
        <ele>284.21</ele>
        <time>2011-01-08T07:32:24Z</time>
      </trkpt>
      <trkpt lat="45.81448" lon="4.5753">
        <ele>289.49</ele>
        <time>2011-01-08T07:32:35Z</time>
      </trkpt>
      <trkpt lat="45.81544" lon="4.57499">
        <ele>301.99</ele>
        <time>2011-01-08T07:32:46Z</time>
      </trkpt>
      <trkpt lat="45.81629" lon="4.57484">
        <ele>310.16</ele>
        <time>2011-01-08T07:32:59Z</time>
      </trkpt>
      <trkpt lat="45.8169" lon="4.57581">
        <ele>305.84</ele>
        <time>2011-01-08T07:33:11Z</time>
      </trkpt>
      <trkpt lat="45.81758" lon="4.57669">
        <ele>301.03</ele>
        <time>2011-01-08T07:33:17Z</time>
      </trkpt>
      <trkpt lat="45.81829" lon="4.57738">
        <ele>300.07</ele>
        <time>2011-01-08T07:33:28Z</time>
      </trkpt>
      <trkpt lat="45.81904" lon="4.57715">
        <ele>305.36</ele>
        <time>2011-01-08T07:33:40Z</time>
      </trkpt>
      <trkpt lat="45.81974" lon="4.57817">
        <ele>306.32</ele>
        <time>2011-01-08T07:33:50Z</time>
      </trkpt>
      <trkpt lat="45.82047" lon="4.57909">
        <ele>313.53</ele>
        <time>2011-01-08T07:33:59Z</time>
      </trkpt>
      <trkpt lat="45.82103" lon="4.58023">
        <ele>333.71</ele>
        <time>2011-01-08T07:34:14Z</time>
      </trkpt>
      <trkpt lat="45.82184" lon="4.58122">
        <ele>327.47</ele>
        <time>2011-01-08T07:34:26Z</time>
      </trkpt>
      <trkpt lat="45.82264" lon="4.58198">
        <ele>320.74</ele>
        <time>2011-01-08T07:34:34Z</time>
      </trkpt>
      <trkpt lat="45.82355" lon="4.5818">
        <ele>317.37</ele>
        <time>2011-01-08T07:34:44Z</time>
      </trkpt>
      <trkpt lat="45.82449" lon="4.58248">
        <ele>319.78</ele>
        <time>2011-01-08T07:34:52Z</time>
      </trkpt>
      <trkpt lat="45.82547" lon="4.58276">
        <ele>322.18</ele>
        <time>2011-01-08T07:34:59Z</time>
      </trkpt>
      <trkpt lat="45.82645" lon="4.58294">
        <ele>318.81</ele>
        <time>2011-01-08T07:35:08Z</time>
      </trkpt>
      <trkpt lat="45.82739" lon="4.58314">
        <ele>315.93</ele>
        <time>2011-01-08T07:35:16Z</time>
      </trkpt>
      <trkpt lat="45.82815" lon="4.58383">
        <ele>314.01</ele>
        <time>2011-01-08T07:35:24Z</time>
      </trkpt>
      <trkpt lat="45.82841" lon="4.58508">
        <ele>314.97</ele>
        <time>2011-01-08T07:35:36Z</time>
      </trkpt>
      <trkpt lat="45.82854" lon="4.58656">
        <ele>314.97</ele>
        <time>2011-01-08T07:35:42Z</time>
      </trkpt>
      <trkpt lat="45.82863" lon="4.588">
        <ele>314.49</ele>
        <time>2011-01-08T07:35:48Z</time>
      </trkpt>
      <trkpt lat="45.82871" lon="4.58928">
        <ele>314.01</ele>
        <time>2011-01-08T07:35:54Z</time>
      </trkpt>
      <trkpt lat="45.82889" lon="4.59067">
        <ele>312.09</ele>
        <time>2011-01-08T07:36:00Z</time>
      </trkpt>
      <trkpt lat="45.82906" lon="4.59196">
        <ele>308.24</ele>
        <time>2011-01-08T07:36:06Z</time>
      </trkpt>
      <trkpt lat="45.82911" lon="4.5933">
        <ele>300.07</ele>
        <time>2011-01-08T07:36:12Z</time>
      </trkpt>
      <trkpt lat="45.82918" lon="4.59474">
        <ele>287.09</ele>
        <time>2011-01-08T07:36:19Z</time>
      </trkpt>
      <trkpt lat="45.82957" lon="4.59546">
        <ele>280.36</ele>
        <time>2011-01-08T07:36:41Z</time>
      </trkpt>
      <trkpt lat="45.83053" lon="4.59539">
        <ele>285.65</ele>
        <time>2011-01-08T07:36:52Z</time>
      </trkpt>
      <trkpt lat="45.83146" lon="4.59541">
        <ele>294.78</ele>
        <time>2011-01-08T07:37:00Z</time>
      </trkpt>
      <trkpt lat="45.83236" lon="4.59498">
        <ele>303.43</ele>
        <time>2011-01-08T07:37:13Z</time>
      </trkpt>
      <trkpt lat="45.83335" lon="4.59384">
        <ele>303.43</ele>
        <time>2011-01-08T07:37:33Z</time>
      </trkpt>
      <trkpt lat="45.83391" lon="4.5927">
        <ele>301.51</ele>
        <time>2011-01-08T07:37:44Z</time>
      </trkpt>
      <trkpt lat="45.83451" lon="4.59153">
        <ele>302.47</ele>
        <time>2011-01-08T07:37:55Z</time>
      </trkpt>
      <trkpt lat="45.83511" lon="4.59036">
        <ele>304.88</ele>
        <time>2011-01-08T07:38:06Z</time>
      </trkpt>
      <trkpt lat="45.83509" lon="4.58888">
        <ele>307.28</ele>
        <time>2011-01-08T07:38:21Z</time>
      </trkpt>
      <trkpt lat="45.83541" lon="4.58806">
        <ele>305.84</ele>
        <time>2011-01-08T07:38:35Z</time>
      </trkpt>
      <trkpt lat="45.83642" lon="4.58817">
        <ele>303.43</ele>
        <time>2011-01-08T07:38:45Z</time>
      </trkpt>
      <trkpt lat="45.83732" lon="4.58825">
        <ele>298.63</ele>
        <time>2011-01-08T07:38:54Z</time>
      </trkpt>
      <trkpt lat="45.83783" lon="4.58766">
        <ele>296.22</ele>
        <time>2011-01-08T07:39:08Z</time>
      </trkpt>
      <trkpt lat="45.83783" lon="4.58626">
        <ele>291.42</ele>
        <time>2011-01-08T07:39:17Z</time>
      </trkpt>
      <trkpt lat="45.83811" lon="4.5855">
        <ele>278.92</ele>
        <time>2011-01-08T07:39:31Z</time>
      </trkpt>
      <trkpt lat="45.83898" lon="4.58609">
        <ele>266.42</ele>
        <time>2011-01-08T07:39:39Z</time>
      </trkpt>
      <trkpt lat="45.83978" lon="4.58657">
        <ele>255.85</ele>
        <time>2011-01-08T07:39:50Z</time>
      </trkpt>
      <trkpt lat="45.84096" lon="4.58599">
        <ele>248.16</ele>
        <time>2011-01-08T07:40:02Z</time>
      </trkpt>
      <trkpt lat="45.84164" lon="4.58594">
        <ele>245.75</ele>
        <time>2011-01-08T07:42:29Z</time>
      </trkpt>
      <trkpt lat="45.84264" lon="4.58579">
        <ele>248.64</ele>
        <time>2011-01-08T07:44:20Z</time>
      </trkpt>
      <trkpt lat="45.84334" lon="4.58672">
        <ele>256.81</ele>
        <time>2011-01-08T07:44:32Z</time>
      </trkpt>
      <trkpt lat="45.84364" lon="4.58808">
        <ele>252</ele>
        <time>2011-01-08T07:44:40Z</time>
      </trkpt>
      <trkpt lat="45.84396" lon="4.5894">
        <ele>247.68</ele>
        <time>2011-01-08T07:44:50Z</time>
      </trkpt>
      <trkpt lat="45.84356" lon="4.59063">
        <ele>251.04</ele>
        <time>2011-01-08T07:45:02Z</time>
      </trkpt>
      <trkpt lat="45.84391" lon="4.59075">
        <ele>259.69</ele>
        <time>2011-01-08T07:45:18Z</time>
      </trkpt>
      <trkpt lat="45.84482" lon="4.59056">
        <ele>268.35</ele>
        <time>2011-01-08T07:45:27Z</time>
      </trkpt>
      <trkpt lat="45.84453" lon="4.59044">
        <ele>266.42</ele>
        <time>2011-01-08T07:45:45Z</time>
      </trkpt>
      <trkpt lat="45.84482" lon="4.59024">
        <ele>257.77</ele>
        <time>2011-01-08T07:46:00Z</time>
      </trkpt>
      <trkpt lat="45.84582" lon="4.59029">
        <ele>260.17</ele>
        <time>2011-01-08T07:46:10Z</time>
      </trkpt>
      <trkpt lat="45.84654" lon="4.58951">
        <ele>266.9</ele>
        <time>2011-01-08T07:46:19Z</time>
      </trkpt>
      <trkpt lat="45.8474" lon="4.58967">
        <ele>267.86</ele>
        <time>2011-01-08T07:46:34Z</time>
      </trkpt>
      <trkpt lat="45.84825" lon="4.5901">
        <ele>270.75</ele>
        <time>2011-01-08T07:46:48Z</time>
      </trkpt>
      <trkpt lat="45.84916" lon="4.59017">
        <ele>273.15</ele>
        <time>2011-01-08T07:47:00Z</time>
      </trkpt>
      <trkpt lat="45.85003" lon="4.59067">
        <ele>269.79</ele>
        <time>2011-01-08T07:47:12Z</time>
      </trkpt>
      <trkpt lat="45.85068" lon="4.59162">
        <ele>276.52</ele>
        <time>2011-01-08T07:47:23Z</time>
      </trkpt>
      <trkpt lat="45.85146" lon="4.59231">
        <ele>279.88</ele>
        <time>2011-01-08T07:47:36Z</time>
      </trkpt>
      <trkpt lat="45.85182" lon="4.593">
        <ele>277</ele>
        <time>2011-01-08T07:48:31Z</time>
      </trkpt>
      <trkpt lat="45.85164" lon="4.59425">
        <ele>276.52</ele>
        <time>2011-01-08T07:49:16Z</time>
      </trkpt>
      <trkpt lat="45.8525" lon="4.59475">
        <ele>285.17</ele>
        <time>2011-01-08T07:49:27Z</time>
      </trkpt>
      <trkpt lat="45.85352" lon="4.59498">
        <ele>288.53</ele>
        <time>2011-01-08T07:49:40Z</time>
      </trkpt>
      <trkpt lat="45.85434" lon="4.59563">
        <ele>295.26</ele>
        <time>2011-01-08T07:49:47Z</time>
      </trkpt>
      <trkpt lat="45.85493" lon="4.59556">
        <ele>293.34</ele>
        <time>2011-01-08T07:50:10Z</time>
      </trkpt>
      <trkpt lat="45.85527" lon="4.59459">
        <ele>288.53</ele>
        <time>2011-01-08T07:50:23Z</time>
      </trkpt>
      <trkpt lat="45.85584" lon="4.59342">
        <ele>294.78</ele>
        <time>2011-01-08T07:50:34Z</time>
      </trkpt>
      <trkpt lat="45.85669" lon="4.59309">
        <ele>303.43</ele>
        <time>2011-01-08T07:50:46Z</time>
      </trkpt>
      <trkpt lat="45.85754" lon="4.59273">
        <ele>317.37</ele>
        <time>2011-01-08T07:51:02Z</time>
      </trkpt>
      <trkpt lat="45.85836" lon="4.59225">
        <ele>334.2</ele>
        <time>2011-01-08T07:51:13Z</time>
      </trkpt>
      <trkpt lat="45.85902" lon="4.59113">
        <ele>339</ele>
        <time>2011-01-08T07:51:23Z</time>
      </trkpt>
      <trkpt lat="45.85967" lon="4.59013">
        <ele>339.96</ele>
        <time>2011-01-08T07:51:33Z</time>
      </trkpt>
      <trkpt lat="45.85997" lon="4.58883">
        <ele>341.41</ele>
        <time>2011-01-08T07:51:43Z</time>
      </trkpt>
      <trkpt lat="45.8601" lon="4.58746">
        <ele>345.73</ele>
        <time>2011-01-08T07:51:52Z</time>
      </trkpt>
      <trkpt lat="45.86016" lon="4.58607">
        <ele>348.62</ele>
        <time>2011-01-08T07:52:03Z</time>
      </trkpt>
      <trkpt lat="45.86015" lon="4.58475">
        <ele>351.98</ele>
        <time>2011-01-08T07:52:10Z</time>
      </trkpt>
      <trkpt lat="45.86019" lon="4.58338">
        <ele>357.75</ele>
        <time>2011-01-08T07:52:16Z</time>
      </trkpt>
      <trkpt lat="45.86018" lon="4.58206">
        <ele>363.52</ele>
        <time>2011-01-08T07:52:22Z</time>
      </trkpt>
      <trkpt lat="45.86008" lon="4.58078">
        <ele>364.48</ele>
        <time>2011-01-08T07:52:28Z</time>
      </trkpt>
      <trkpt lat="45.85996" lon="4.57928">
        <ele>367.36</ele>
        <time>2011-01-08T07:52:35Z</time>
      </trkpt>
      <trkpt lat="45.85999" lon="4.57804">
        <ele>371.21</ele>
        <time>2011-01-08T07:52:49Z</time>
      </trkpt>
      <trkpt lat="45.86047" lon="4.57691">
        <ele>371.69</ele>
        <time>2011-01-08T07:52:58Z</time>
      </trkpt>
      <trkpt lat="45.86105" lon="4.57579">
        <ele>374.57</ele>
        <time>2011-01-08T07:53:07Z</time>
      </trkpt>
      <trkpt lat="45.86165" lon="4.57473">
        <ele>378.9</ele>
        <time>2011-01-08T07:53:16Z</time>
      </trkpt>
      <trkpt lat="45.86238" lon="4.57489">
        <ele>381.78</ele>
        <time>2011-01-08T07:53:29Z</time>
      </trkpt>
      <trkpt lat="45.863" lon="4.57592">
        <ele>383.7</ele>
        <time>2011-01-08T07:53:35Z</time>
      </trkpt>
      <trkpt lat="45.86367" lon="4.57685">
        <ele>383.22</ele>
        <time>2011-01-08T07:53:42Z</time>
      </trkpt>
      <trkpt lat="45.8645" lon="4.57741">
        <ele>380.34</ele>
        <time>2011-01-08T07:53:57Z</time>
      </trkpt>
      <trkpt lat="45.86542" lon="4.57775">
        <ele>377.94</ele>
        <time>2011-01-08T07:54:08Z</time>
      </trkpt>
      <trkpt lat="45.86545" lon="4.57773">
        <ele>378.42</ele>
        <time>2011-01-08T07:54:36Z</time>
      </trkpt>
      <trkpt lat="45.86461" lon="4.57738">
        <ele>379.86</ele>
        <time>2011-01-08T07:54:47Z</time>
      </trkpt>
      <trkpt lat="45.86564" lon="4.57719">
        <ele>378.9</ele>
        <time>2011-01-08T07:54:57Z</time>
      </trkpt>
      <trkpt lat="45.86662" lon="4.57694">
        <ele>376.97</ele>
        <time>2011-01-08T07:55:07Z</time>
      </trkpt>
      <trkpt lat="45.86715" lon="4.57768">
        <ele>377.45</ele>
        <time>2011-01-08T07:55:19Z</time>
      </trkpt>
      <trkpt lat="45.86791" lon="4.57814">
        <ele>378.42</ele>
        <time>2011-01-08T07:55:29Z</time>
      </trkpt>
      <trkpt lat="45.86884" lon="4.57814">
        <ele>380.34</ele>
        <time>2011-01-08T07:55:36Z</time>
      </trkpt>
      <trkpt lat="45.86966" lon="4.57832">
        <ele>386.11</ele>
        <time>2011-01-08T07:55:47Z</time>
      </trkpt>
      <trkpt lat="45.87048" lon="4.57913">
        <ele>398.12</ele>
        <time>2011-01-08T07:56:01Z</time>
      </trkpt>
      <trkpt lat="45.87137" lon="4.57969">
        <ele>407.26</ele>
        <time>2011-01-08T07:56:09Z</time>
      </trkpt>
      <trkpt lat="45.87224" lon="4.58012">
        <ele>410.62</ele>
        <time>2011-01-08T07:56:26Z</time>
      </trkpt>
      <trkpt lat="45.87317" lon="4.58043">
        <ele>411.1</ele>
        <time>2011-01-08T07:58:02Z</time>
      </trkpt>
      <trkpt lat="45.87407" lon="4.58089">
        <ele>412.06</ele>
        <time>2011-01-08T07:58:12Z</time>
      </trkpt>
      <trkpt lat="45.87488" lon="4.58149">
        <ele>412.06</ele>
        <time>2011-01-08T07:58:22Z</time>
      </trkpt>
      <trkpt lat="45.87575" lon="4.58203">
        <ele>405.33</ele>
        <time>2011-01-08T07:58:39Z</time>
      </trkpt>
      <trkpt lat="45.87671" lon="4.58236">
        <ele>398.12</ele>
        <time>2011-01-08T07:58:48Z</time>
      </trkpt>
      <trkpt lat="45.87764" lon="4.5829">
        <ele>393.8</ele>
        <time>2011-01-08T07:58:56Z</time>
      </trkpt>
      <trkpt lat="45.87854" lon="4.58319">
        <ele>393.8</ele>
        <time>2011-01-08T07:59:04Z</time>
      </trkpt>
      <trkpt lat="45.87945" lon="4.5832">
        <ele>390.43</ele>
        <time>2011-01-08T07:59:12Z</time>
      </trkpt>
      <trkpt lat="45.88037" lon="4.58361">
        <ele>379.86</ele>
        <time>2011-01-08T07:59:20Z</time>
      </trkpt>
      <trkpt lat="45.88128" lon="4.58403">
        <ele>367.84</ele>
        <time>2011-01-08T07:59:28Z</time>
      </trkpt>
      <trkpt lat="45.88225" lon="4.58409">
        <ele>354.38</ele>
        <time>2011-01-08T07:59:37Z</time>
      </trkpt>
      <trkpt lat="45.88316" lon="4.5843">
        <ele>343.81</ele>
        <time>2011-01-08T07:59:46Z</time>
      </trkpt>
      <trkpt lat="45.88404" lon="4.58471">
        <ele>328.91</ele>
        <time>2011-01-08T07:59:58Z</time>
      </trkpt>
      <trkpt lat="45.8848" lon="4.58545">
        <ele>310.16</ele>
        <time>2011-01-08T08:00:21Z</time>
      </trkpt>
      <trkpt lat="45.88561" lon="4.58637">
        <ele>301.03</ele>
        <time>2011-01-08T08:00:34Z</time>
      </trkpt>
      <trkpt lat="45.88652" lon="4.58643">
        <ele>296.22</ele>
        <time>2011-01-08T08:00:47Z</time>
      </trkpt>
      <trkpt lat="45.88715" lon="4.58557">
        <ele>295.26</ele>
        <time>2011-01-08T08:00:58Z</time>
      </trkpt>
      <trkpt lat="45.88797" lon="4.58563">
        <ele>294.3</ele>
        <time>2011-01-08T08:01:27Z</time>
      </trkpt>
      <trkpt lat="45.88894" lon="4.58598">
        <ele>291.9</ele>
        <time>2011-01-08T08:01:33Z</time>
      </trkpt>
      <trkpt lat="45.88984" lon="4.58643">
        <ele>290.94</ele>
        <time>2011-01-08T08:01:39Z</time>
      </trkpt>
      <trkpt lat="45.89076" lon="4.58694">
        <ele>289.01</ele>
        <time>2011-01-08T08:01:46Z</time>
      </trkpt>
      <trkpt lat="45.89158" lon="4.58746">
        <ele>286.61</ele>
        <time>2011-01-08T08:01:53Z</time>
      </trkpt>
      <trkpt lat="45.89246" lon="4.58767">
        <ele>272.67</ele>
        <time>2011-01-08T08:02:03Z</time>
      </trkpt>
      <trkpt lat="45.89327" lon="4.58804">
        <ele>252.96</ele>
        <time>2011-01-08T08:02:15Z</time>
      </trkpt>
      <trkpt lat="45.89392" lon="4.5886">
        <ele>239.99</ele>
        <time>2011-01-08T08:02:32Z</time>
      </trkpt>
      <trkpt lat="45.89451" lon="4.58932">
        <ele>240.95</ele>
        <time>2011-01-08T08:04:02Z</time>
      </trkpt>
      <trkpt lat="45.89502" lon="4.59061">
        <ele>239.51</ele>
        <time>2011-01-08T08:04:10Z</time>
      </trkpt>
      <trkpt lat="45.89575" lon="4.59135">
        <ele>239.02</ele>
        <time>2011-01-08T08:04:23Z</time>
      </trkpt>
      <trkpt lat="45.89647" lon="4.59163">
        <ele>238.54</ele>
        <time>2011-01-08T08:04:51Z</time>
      </trkpt>
      <trkpt lat="45.89611" lon="4.59296">
        <ele>238.54</ele>
        <time>2011-01-08T08:04:59Z</time>
      </trkpt>
      <trkpt lat="45.89566" lon="4.59424">
        <ele>239.99</ele>
        <time>2011-01-08T08:05:06Z</time>
      </trkpt>
      <trkpt lat="45.89495" lon="4.59532">
        <ele>239.51</ele>
        <time>2011-01-08T08:05:14Z</time>
      </trkpt>
      <trkpt lat="45.89422" lon="4.59624">
        <ele>238.54</ele>
        <time>2011-01-08T08:05:20Z</time>
      </trkpt>
      <trkpt lat="45.89349" lon="4.5973">
        <ele>237.1</ele>
        <time>2011-01-08T08:05:26Z</time>
      </trkpt>
      <trkpt lat="45.89277" lon="4.59839">
        <ele>237.1</ele>
        <time>2011-01-08T08:05:32Z</time>
      </trkpt>
      <trkpt lat="45.8921" lon="4.59928">
        <ele>236.62</ele>
        <time>2011-01-08T08:05:37Z</time>
      </trkpt>
      <trkpt lat="45.89143" lon="4.60021">
        <ele>238.54</ele>
        <time>2011-01-08T08:05:42Z</time>
      </trkpt>
      <trkpt lat="45.89096" lon="4.60154">
        <ele>244.79</ele>
        <time>2011-01-08T08:05:48Z</time>
      </trkpt>
      <trkpt lat="45.89078" lon="4.60283">
        <ele>247.68</ele>
        <time>2011-01-08T08:05:53Z</time>
      </trkpt>
      <trkpt lat="45.89059" lon="4.60411">
        <ele>247.68</ele>
        <time>2011-01-08T08:05:58Z</time>
      </trkpt>
      <trkpt lat="45.89032" lon="4.60534">
        <ele>244.79</ele>
        <time>2011-01-08T08:06:03Z</time>
      </trkpt>
      <trkpt lat="45.88995" lon="4.60655">
        <ele>240.95</ele>
        <time>2011-01-08T08:06:08Z</time>
      </trkpt>
      <trkpt lat="45.88951" lon="4.60773">
        <ele>237.58</ele>
        <time>2011-01-08T08:06:13Z</time>
      </trkpt>
      <trkpt lat="45.88908" lon="4.60891">
        <ele>233.74</ele>
        <time>2011-01-08T08:06:18Z</time>
      </trkpt>
      <trkpt lat="45.88881" lon="4.61017">
        <ele>231.81</ele>
        <time>2011-01-08T08:06:23Z</time>
      </trkpt>
      <trkpt lat="45.88876" lon="4.61169">
        <ele>231.81</ele>
        <time>2011-01-08T08:06:29Z</time>
      </trkpt>
      <trkpt lat="45.88873" lon="4.61309">
        <ele>232.3</ele>
        <time>2011-01-08T08:06:36Z</time>
      </trkpt>
      <trkpt lat="45.88879" lon="4.61423">
        <ele>229.89</ele>
        <time>2011-01-08T08:06:48Z</time>
      </trkpt>
      <trkpt lat="45.88851" lon="4.61555">
        <ele>230.37</ele>
        <time>2011-01-08T08:06:55Z</time>
      </trkpt>
      <trkpt lat="45.88835" lon="4.61692">
        <ele>230.85</ele>
        <time>2011-01-08T08:07:02Z</time>
      </trkpt>
      <trkpt lat="45.888" lon="4.61827">
        <ele>230.85</ele>
        <time>2011-01-08T08:07:09Z</time>
      </trkpt>
      <trkpt lat="45.88791" lon="4.61967">
        <ele>231.33</ele>
        <time>2011-01-08T08:07:16Z</time>
      </trkpt>
      <trkpt lat="45.88802" lon="4.62092">
        <ele>231.81</ele>
        <time>2011-01-08T08:07:28Z</time>
      </trkpt>
      <trkpt lat="45.88902" lon="4.62125">
        <ele>239.02</ele>
        <time>2011-01-08T08:07:36Z</time>
      </trkpt>
      <trkpt lat="45.88996" lon="4.62126">
        <ele>246.72</ele>
        <time>2011-01-08T08:07:43Z</time>
      </trkpt>
      <trkpt lat="45.89088" lon="4.62078">
        <ele>253.44</ele>
        <time>2011-01-08T08:07:49Z</time>
      </trkpt>
      <trkpt lat="45.89182" lon="4.6206">
        <ele>261.14</ele>
        <time>2011-01-08T08:07:55Z</time>
      </trkpt>
      <trkpt lat="45.89285" lon="4.62076">
        <ele>267.86</ele>
        <time>2011-01-08T08:08:01Z</time>
      </trkpt>
      <trkpt lat="45.89382" lon="4.62109">
        <ele>274.11</ele>
        <time>2011-01-08T08:08:07Z</time>
      </trkpt>
      <trkpt lat="45.89475" lon="4.62165">
        <ele>280.84</ele>
        <time>2011-01-08T08:08:13Z</time>
      </trkpt>
      <trkpt lat="45.89569" lon="4.62134">
        <ele>287.57</ele>
        <time>2011-01-08T08:08:20Z</time>
      </trkpt>
      <trkpt lat="45.89652" lon="4.62132">
        <ele>294.3</ele>
        <time>2011-01-08T08:08:27Z</time>
      </trkpt>
      <trkpt lat="45.89691" lon="4.62254">
        <ele>300.55</ele>
        <time>2011-01-08T08:08:34Z</time>
      </trkpt>
      <trkpt lat="45.89707" lon="4.6238">
        <ele>306.32</ele>
        <time>2011-01-08T08:08:42Z</time>
      </trkpt>
      <trkpt lat="45.89646" lon="4.62482">
        <ele>309.2</ele>
        <time>2011-01-08T08:08:52Z</time>
      </trkpt>
      <trkpt lat="45.89637" lon="4.62583">
        <ele>311.6</ele>
        <time>2011-01-08T08:09:07Z</time>
      </trkpt>
      <trkpt lat="45.89706" lon="4.62691">
        <ele>313.05</ele>
        <time>2011-01-08T08:09:14Z</time>
      </trkpt>
      <trkpt lat="45.89764" lon="4.62788">
        <ele>310.16</ele>
        <time>2011-01-08T08:28:17Z</time>
      </trkpt>
      <trkpt lat="45.89818" lon="4.62715">
        <ele>310.64</ele>
        <time>2011-01-08T08:28:30Z</time>
      </trkpt>
      <trkpt lat="45.8986" lon="4.62594">
        <ele>311.6</ele>
        <time>2011-01-08T08:28:38Z</time>
      </trkpt>
      <trkpt lat="45.89817" lon="4.62508">
        <ele>311.12</ele>
        <time>2011-01-08T08:28:55Z</time>
      </trkpt>
      <trkpt lat="45.89744" lon="4.62437">
        <ele>306.8</ele>
        <time>2011-01-08T08:29:06Z</time>
      </trkpt>
      <trkpt lat="45.89815" lon="4.62353">
        <ele>311.12</ele>
        <time>2011-01-08T08:29:19Z</time>
      </trkpt>
      <trkpt lat="45.89909" lon="4.62334">
        <ele>313.53</ele>
        <time>2011-01-08T08:29:29Z</time>
      </trkpt>
      <trkpt lat="45.9" lon="4.62302">
        <ele>315.93</ele>
        <time>2011-01-08T08:29:40Z</time>
      </trkpt>
      <trkpt lat="45.90089" lon="4.62275">
        <ele>317.85</ele>
        <time>2011-01-08T08:29:50Z</time>
      </trkpt>
      <trkpt lat="45.90174" lon="4.62213">
        <ele>320.26</ele>
        <time>2011-01-08T08:30:02Z</time>
      </trkpt>
      <trkpt lat="45.90192" lon="4.62102">
        <ele>319.3</ele>
        <time>2011-01-08T08:30:21Z</time>
      </trkpt>
      <trkpt lat="45.9021" lon="4.61974">
        <ele>316.41</ele>
        <time>2011-01-08T08:30:37Z</time>
      </trkpt>
      <trkpt lat="45.90255" lon="4.61869">
        <ele>314.49</ele>
        <time>2011-01-08T08:30:53Z</time>
      </trkpt>
      <trkpt lat="45.90341" lon="4.61808">
        <ele>310.64</ele>
        <time>2011-01-08T08:31:03Z</time>
      </trkpt>
      <trkpt lat="45.90417" lon="4.61723">
        <ele>303.91</ele>
        <time>2011-01-08T08:31:11Z</time>
      </trkpt>
      <trkpt lat="45.90493" lon="4.61641">
        <ele>295.74</ele>
        <time>2011-01-08T08:31:19Z</time>
      </trkpt>
      <trkpt lat="45.90506" lon="4.61532">
        <ele>295.26</ele>
        <time>2011-01-08T08:31:30Z</time>
      </trkpt>
      <trkpt lat="45.90441" lon="4.61443">
        <ele>305.84</ele>
        <time>2011-01-08T08:31:41Z</time>
      </trkpt>
      <trkpt lat="45.90408" lon="4.61322">
        <ele>314.01</ele>
        <time>2011-01-08T08:31:53Z</time>
      </trkpt>
      <trkpt lat="45.90502" lon="4.61283">
        <ele>320.74</ele>
        <time>2011-01-08T08:32:05Z</time>
      </trkpt>
      <trkpt lat="45.90555" lon="4.61203">
        <ele>327.95</ele>
        <time>2011-01-08T08:32:18Z</time>
      </trkpt>
      <trkpt lat="45.90621" lon="4.6117">
        <ele>331.31</ele>
        <time>2011-01-08T08:32:33Z</time>
      </trkpt>
      <trkpt lat="45.90668" lon="4.61085">
        <ele>335.64</ele>
        <time>2011-01-08T08:32:49Z</time>
      </trkpt>
      <trkpt lat="45.9075" lon="4.61063">
        <ele>335.64</ele>
        <time>2011-01-08T08:33:03Z</time>
      </trkpt>
      <trkpt lat="45.90752" lon="4.60929">
        <ele>340.44</ele>
        <time>2011-01-08T08:33:16Z</time>
      </trkpt>
      <trkpt lat="45.90759" lon="4.60799">
        <ele>342.85</ele>
        <time>2011-01-08T08:33:27Z</time>
      </trkpt>
      <trkpt lat="45.90826" lon="4.60733">
        <ele>348.13</ele>
        <time>2011-01-08T08:33:41Z</time>
      </trkpt>
      <trkpt lat="45.90923" lon="4.60697">
        <ele>352.94</ele>
        <time>2011-01-08T08:33:49Z</time>
      </trkpt>
      <trkpt lat="45.9102" lon="4.60658">
        <ele>355.83</ele>
        <time>2011-01-08T08:33:56Z</time>
      </trkpt>
      <trkpt lat="45.91115" lon="4.60641">
        <ele>356.79</ele>
        <time>2011-01-08T08:34:03Z</time>
      </trkpt>
      <trkpt lat="45.91207" lon="4.60637">
        <ele>359.67</ele>
        <time>2011-01-08T08:34:11Z</time>
      </trkpt>
      <trkpt lat="45.9129" lon="4.60674">
        <ele>365.92</ele>
        <time>2011-01-08T08:34:26Z</time>
      </trkpt>
      <trkpt lat="45.91388" lon="4.60731">
        <ele>374.09</ele>
        <time>2011-01-08T08:34:33Z</time>
      </trkpt>
      <trkpt lat="45.91473" lon="4.60779">
        <ele>380.34</ele>
        <time>2011-01-08T08:34:38Z</time>
      </trkpt>
      <trkpt lat="45.91546" lon="4.60855">
        <ele>386.59</ele>
        <time>2011-01-08T08:34:47Z</time>
      </trkpt>
      <trkpt lat="45.91578" lon="4.60959">
        <ele>390.43</ele>
        <time>2011-01-08T08:34:57Z</time>
      </trkpt>
      <trkpt lat="45.91669" lon="4.60942">
        <ele>397.64</ele>
        <time>2011-01-08T08:35:05Z</time>
      </trkpt>
      <trkpt lat="45.91721" lon="4.60852">
        <ele>401.01</ele>
        <time>2011-01-08T08:35:19Z</time>
      </trkpt>
      <trkpt lat="45.91784" lon="4.60761">
        <ele>405.33</ele>
        <time>2011-01-08T08:35:32Z</time>
      </trkpt>
      <trkpt lat="45.91863" lon="4.60704">
        <ele>409.66</ele>
        <time>2011-01-08T08:35:46Z</time>
      </trkpt>
      <trkpt lat="45.91964" lon="4.60692">
        <ele>413.98</ele>
        <time>2011-01-08T08:35:55Z</time>
      </trkpt>
      <trkpt lat="45.92062" lon="4.60713">
        <ele>417.35</ele>
        <time>2011-01-08T08:36:03Z</time>
      </trkpt>
      <trkpt lat="45.92151" lon="4.6074">
        <ele>414.47</ele>
        <time>2011-01-08T08:36:10Z</time>
      </trkpt>
      <trkpt lat="45.92237" lon="4.60772">
        <ele>412.54</ele>
        <time>2011-01-08T08:36:18Z</time>
      </trkpt>
      <trkpt lat="45.92318" lon="4.60842">
        <ele>415.43</ele>
        <time>2011-01-08T08:36:26Z</time>
      </trkpt>
      <trkpt lat="45.92392" lon="4.60903">
        <ele>414.47</ele>
        <time>2011-01-08T08:36:37Z</time>
      </trkpt>
      <trkpt lat="45.92446" lon="4.60787">
        <ele>411.1</ele>
        <time>2011-01-08T08:36:48Z</time>
      </trkpt>
      <trkpt lat="45.92391" lon="4.60677">
        <ele>408.7</ele>
        <time>2011-01-08T08:37:00Z</time>
      </trkpt>
      <trkpt lat="45.92352" lon="4.60552">
        <ele>405.81</ele>
        <time>2011-01-08T08:37:08Z</time>
      </trkpt>
      <trkpt lat="45.92264" lon="4.60471">
        <ele>401.49</ele>
        <time>2011-01-08T08:37:17Z</time>
      </trkpt>
      <trkpt lat="45.92183" lon="4.60382">
        <ele>398.12</ele>
        <time>2011-01-08T08:37:25Z</time>
      </trkpt>
      <trkpt lat="45.92117" lon="4.60279">
        <ele>394.28</ele>
        <time>2011-01-08T08:37:33Z</time>
      </trkpt>
      <trkpt lat="45.92052" lon="4.60189">
        <ele>390.91</ele>
        <time>2011-01-08T08:37:41Z</time>
      </trkpt>
      <trkpt lat="45.9207" lon="4.60072">
        <ele>388.51</ele>
        <time>2011-01-08T08:37:49Z</time>
      </trkpt>
      <trkpt lat="45.92157" lon="4.6004">
        <ele>385.15</ele>
        <time>2011-01-08T08:37:58Z</time>
      </trkpt>
      <trkpt lat="45.92182" lon="4.59924">
        <ele>382.26</ele>
        <time>2011-01-08T08:38:10Z</time>
      </trkpt>
      <trkpt lat="45.92101" lon="4.59855">
        <ele>379.38</ele>
        <time>2011-01-08T08:38:20Z</time>
      </trkpt>
      <trkpt lat="45.9204" lon="4.59763">
        <ele>376.97</ele>
        <time>2011-01-08T08:38:33Z</time>
      </trkpt>
      <trkpt lat="45.92089" lon="4.59655">
        <ele>375.53</ele>
        <time>2011-01-08T08:38:47Z</time>
      </trkpt>
      <trkpt lat="45.92115" lon="4.59528">
        <ele>371.21</ele>
        <time>2011-01-08T08:39:01Z</time>
      </trkpt>
      <trkpt lat="45.92183" lon="4.59439">
        <ele>367.84</ele>
        <time>2011-01-08T08:39:16Z</time>
      </trkpt>
      <trkpt lat="45.92279" lon="4.59422">
        <ele>364</ele>
        <time>2011-01-08T08:39:27Z</time>
      </trkpt>
      <trkpt lat="45.92379" lon="4.59415">
        <ele>361.59</ele>
        <time>2011-01-08T08:39:36Z</time>
      </trkpt>
      <trkpt lat="45.92465" lon="4.59448">
        <ele>358.23</ele>
        <time>2011-01-08T08:39:44Z</time>
      </trkpt>
      <trkpt lat="45.92561" lon="4.5947">
        <ele>355.34</ele>
        <time>2011-01-08T08:39:53Z</time>
      </trkpt>
      <trkpt lat="45.92641" lon="4.59448">
        <ele>342.85</ele>
        <time>2011-01-08T08:40:17Z</time>
      </trkpt>
      <trkpt lat="45.92653" lon="4.59339">
        <ele>333.71</ele>
        <time>2011-01-08T08:40:38Z</time>
      </trkpt>
      <trkpt lat="45.92742" lon="4.59329">
        <ele>339.96</ele>
        <time>2011-01-08T08:40:51Z</time>
      </trkpt>
      <trkpt lat="45.92841" lon="4.59373">
        <ele>349.58</ele>
        <time>2011-01-08T08:41:02Z</time>
      </trkpt>
      <trkpt lat="45.92943" lon="4.59397">
        <ele>364.48</ele>
        <time>2011-01-08T08:41:12Z</time>
      </trkpt>
      <trkpt lat="45.93017" lon="4.59367">
        <ele>355.83</ele>
        <time>2011-01-08T08:41:26Z</time>
      </trkpt>
      <trkpt lat="45.93071" lon="4.59275">
        <ele>350.06</ele>
        <time>2011-01-08T08:41:39Z</time>
      </trkpt>
      <trkpt lat="45.93141" lon="4.59194">
        <ele>356.31</ele>
        <time>2011-01-08T08:42:04Z</time>
      </trkpt>
      <trkpt lat="45.9323" lon="4.59125">
        <ele>376.49</ele>
        <time>2011-01-08T08:42:23Z</time>
      </trkpt>
      <trkpt lat="45.9332" lon="4.59084">
        <ele>387.07</ele>
        <time>2011-01-08T08:42:38Z</time>
      </trkpt>
      <trkpt lat="45.93381" lon="4.58983">
        <ele>399.08</ele>
        <time>2011-01-08T08:42:52Z</time>
      </trkpt>
      <trkpt lat="45.93457" lon="4.58912">
        <ele>405.81</ele>
        <time>2011-01-08T08:43:01Z</time>
      </trkpt>
      <trkpt lat="45.93535" lon="4.58848">
        <ele>417.83</ele>
        <time>2011-01-08T08:43:15Z</time>
      </trkpt>
      <trkpt lat="45.93623" lon="4.58807">
        <ele>431.29</ele>
        <time>2011-01-08T08:43:28Z</time>
      </trkpt>
      <trkpt lat="45.93713" lon="4.58748">
        <ele>439.46</ele>
        <time>2011-01-08T08:43:38Z</time>
      </trkpt>
      <trkpt lat="45.93786" lon="4.58668">
        <ele>448.59</ele>
        <time>2011-01-08T08:43:48Z</time>
      </trkpt>
      <trkpt lat="45.93816" lon="4.58543">
        <ele>463.97</ele>
        <time>2011-01-08T08:43:55Z</time>
      </trkpt>
      <trkpt lat="45.9385" lon="4.5842">
        <ele>483.2</ele>
        <time>2011-01-08T08:44:02Z</time>
      </trkpt>
      <trkpt lat="45.93899" lon="4.58328">
        <ele>496.66</ele>
        <time>2011-01-08T08:44:10Z</time>
      </trkpt>
      <trkpt lat="45.93977" lon="4.58314">
        <ele>501.46</ele>
        <time>2011-01-08T08:44:31Z</time>
      </trkpt>
      <trkpt lat="45.93996" lon="4.58242">
        <ele>500.5</ele>
        <time>2011-01-08T08:45:45Z</time>
      </trkpt>
      <trkpt lat="45.94048" lon="4.5818">
        <ele>488.97</ele>
        <time>2011-01-08T08:45:57Z</time>
      </trkpt>
      <trkpt lat="45.94112" lon="4.58174">
        <ele>482.72</ele>
        <time>2011-01-08T08:46:07Z</time>
      </trkpt>
      <trkpt lat="45.94128" lon="4.58044">
        <ele>467.34</ele>
        <time>2011-01-08T08:46:17Z</time>
      </trkpt>
      <trkpt lat="45.94107" lon="4.57953">
        <ele>461.09</ele>
        <time>2011-01-08T08:46:48Z</time>
      </trkpt>
      <trkpt lat="45.94194" lon="4.57911">
        <ele>461.09</ele>
        <time>2011-01-08T08:47:02Z</time>
      </trkpt>
      <trkpt lat="45.94285" lon="4.57904">
        <ele>464.45</ele>
        <time>2011-01-08T08:47:19Z</time>
      </trkpt>
      <trkpt lat="45.94377" lon="4.57889">
        <ele>466.86</ele>
        <time>2011-01-08T08:47:38Z</time>
      </trkpt>
      <trkpt lat="45.94462" lon="4.57842">
        <ele>468.3</ele>
        <time>2011-01-08T08:47:52Z</time>
      </trkpt>
      <trkpt lat="45.94547" lon="4.57773">
        <ele>472.14</ele>
        <time>2011-01-08T08:48:03Z</time>
      </trkpt>
      <trkpt lat="45.94629" lon="4.57706">
        <ele>471.66</ele>
        <time>2011-01-08T08:48:14Z</time>
      </trkpt>
      <trkpt lat="45.94711" lon="4.57658">
        <ele>475.03</ele>
        <time>2011-01-08T08:48:26Z</time>
      </trkpt>
      <trkpt lat="45.9471" lon="4.57541">
        <ele>472.14</ele>
        <time>2011-01-08T08:48:41Z</time>
      </trkpt>
      <trkpt lat="45.94704" lon="4.57406">
        <ele>464.93</ele>
        <time>2011-01-08T08:48:51Z</time>
      </trkpt>
      <trkpt lat="45.94756" lon="4.57285">
        <ele>456.28</ele>
        <time>2011-01-08T08:49:00Z</time>
      </trkpt>
      <trkpt lat="45.94795" lon="4.5717">
        <ele>447.63</ele>
        <time>2011-01-08T08:49:10Z</time>
      </trkpt>
      <trkpt lat="45.94883" lon="4.5714">
        <ele>445.71</ele>
        <time>2011-01-08T08:49:32Z</time>
      </trkpt>
      <trkpt lat="45.94959" lon="4.57074">
        <ele>439.46</ele>
        <time>2011-01-08T08:49:44Z</time>
      </trkpt>
      <trkpt lat="45.95022" lon="4.56978">
        <ele>431.77</ele>
        <time>2011-01-08T08:49:56Z</time>
      </trkpt>
      <trkpt lat="45.9506" lon="4.56857">
        <ele>417.35</ele>
        <time>2011-01-08T08:50:12Z</time>
      </trkpt>
      <trkpt lat="45.95063" lon="4.56744">
        <ele>399.57</ele>
        <time>2011-01-08T08:50:30Z</time>
      </trkpt>
      <trkpt lat="45.95124" lon="4.56757">
        <ele>390.91</ele>
        <time>2011-01-08T08:50:47Z</time>
      </trkpt>
      <trkpt lat="45.95189" lon="4.56855">
        <ele>381.3</ele>
        <time>2011-01-08T08:50:58Z</time>
      </trkpt>
      <trkpt lat="45.95239" lon="4.56978">
        <ele>370.73</ele>
        <time>2011-01-08T08:51:11Z</time>
      </trkpt>
      <trkpt lat="45.9526" lon="4.5691">
        <ele>357.75</ele>
        <time>2011-01-08T08:51:30Z</time>
      </trkpt>
      <trkpt lat="45.95287" lon="4.56797">
        <ele>344.77</ele>
        <time>2011-01-08T08:51:46Z</time>
      </trkpt>
      <trkpt lat="45.95371" lon="4.56722">
        <ele>357.75</ele>
        <time>2011-01-08T08:52:19Z</time>
      </trkpt>
      <trkpt lat="45.9547" lon="4.56692">
        <ele>364.48</ele>
        <time>2011-01-08T08:52:34Z</time>
      </trkpt>
      <trkpt lat="45.95557" lon="4.56643">
        <ele>373.13</ele>
        <time>2011-01-08T08:52:47Z</time>
      </trkpt>
      <trkpt lat="45.95633" lon="4.56549">
        <ele>382.74</ele>
        <time>2011-01-08T08:52:58Z</time>
      </trkpt>
      <trkpt lat="45.957" lon="4.56462">
        <ele>394.76</ele>
        <time>2011-01-08T08:53:11Z</time>
      </trkpt>
      <trkpt lat="45.95777" lon="4.56375">
        <ele>405.81</ele>
        <time>2011-01-08T08:53:24Z</time>
      </trkpt>
      <trkpt lat="45.95872" lon="4.56339">
        <ele>423.6</ele>
        <time>2011-01-08T08:53:36Z</time>
      </trkpt>
      <trkpt lat="45.9596" lon="4.56293">
        <ele>436.58</ele>
        <time>2011-01-08T08:53:45Z</time>
      </trkpt>
      <trkpt lat="45.96053" lon="4.56317">
        <ele>454.36</ele>
        <time>2011-01-08T08:53:56Z</time>
      </trkpt>
      <trkpt lat="45.961" lon="4.56222">
        <ele>467.82</ele>
        <time>2011-01-08T08:54:08Z</time>
      </trkpt>
      <trkpt lat="45.96054" lon="4.56138">
        <ele>479.84</ele>
        <time>2011-01-08T08:54:30Z</time>
      </trkpt>
      <trkpt lat="45.9602" lon="4.56036">
        <ele>485.6</ele>
        <time>2011-01-08T08:54:43Z</time>
      </trkpt>
      <trkpt lat="45.96097" lon="4.55975">
        <ele>494.26</ele>
        <time>2011-01-08T08:54:56Z</time>
      </trkpt>
      <trkpt lat="45.96166" lon="4.55875">
        <ele>494.26</ele>
        <time>2011-01-08T08:55:05Z</time>
      </trkpt>
      <trkpt lat="45.96251" lon="4.55811">
        <ele>487.05</ele>
        <time>2011-01-08T08:55:14Z</time>
      </trkpt>
      <trkpt lat="45.96321" lon="4.55757">
        <ele>483.68</ele>
        <time>2011-01-08T08:55:25Z</time>
      </trkpt>
      <trkpt lat="45.96341" lon="4.55626">
        <ele>487.53</ele>
        <time>2011-01-08T08:55:35Z</time>
      </trkpt>
      <trkpt lat="45.96417" lon="4.5557">
        <ele>489.93</ele>
        <time>2011-01-08T08:55:47Z</time>
      </trkpt>
      <trkpt lat="45.96503" lon="4.55587">
        <ele>475.51</ele>
        <time>2011-01-08T08:56:00Z</time>
      </trkpt>
      <trkpt lat="45.9659" lon="4.55616">
        <ele>467.82</ele>
        <time>2011-01-08T08:56:14Z</time>
      </trkpt>
      <trkpt lat="45.96682" lon="4.55587">
        <ele>463.97</ele>
        <time>2011-01-08T08:56:30Z</time>
      </trkpt>
      <trkpt lat="45.96732" lon="4.55507">
        <ele>456.76</ele>
        <time>2011-01-08T08:56:48Z</time>
      </trkpt>
      <trkpt lat="45.96769" lon="4.55379">
        <ele>446.67</ele>
        <time>2011-01-08T08:57:03Z</time>
      </trkpt>
      <trkpt lat="45.96835" lon="4.55297">
        <ele>431.77</ele>
        <time>2011-01-08T08:57:20Z</time>
      </trkpt>
      <trkpt lat="45.96906" lon="4.55229">
        <ele>411.58</ele>
        <time>2011-01-08T08:57:37Z</time>
      </trkpt>
      <trkpt lat="45.96973" lon="4.55119">
        <ele>391.87</ele>
        <time>2011-01-08T08:57:57Z</time>
      </trkpt>
      <trkpt lat="45.97073" lon="4.5502">
        <ele>370.24</ele>
        <time>2011-01-08T08:58:20Z</time>
      </trkpt>
      <trkpt lat="45.97208" lon="4.55097">
        <ele>374.09</ele>
        <time>2011-01-08T08:58:43Z</time>
      </trkpt>
      <trkpt lat="45.97303" lon="4.5518">
        <ele>384.18</ele>
        <time>2011-01-08T08:58:58Z</time>
      </trkpt>
      <trkpt lat="45.97387" lon="4.55269">
        <ele>387.07</ele>
        <time>2011-01-08T08:59:13Z</time>
      </trkpt>
      <trkpt lat="45.97455" lon="4.55382">
        <ele>389.47</ele>
        <time>2011-01-08T08:59:30Z</time>
      </trkpt>
      <trkpt lat="45.97537" lon="4.55433">
        <ele>397.64</ele>
        <time>2011-01-08T08:59:48Z</time>
      </trkpt>
      <trkpt lat="45.97662" lon="4.55347">
        <ele>405.33</ele>
        <time>2011-01-08T09:00:07Z</time>
      </trkpt>
      <trkpt lat="45.97809" lon="4.55442">
        <ele>416.39</ele>
        <time>2011-01-08T09:00:44Z</time>
      </trkpt>
      <trkpt lat="45.9796" lon="4.55396">
        <ele>426.48</ele>
        <time>2011-01-08T09:01:15Z</time>
      </trkpt>
      <trkpt lat="45.98119" lon="4.55356">
        <ele>434.65</ele>
        <time>2011-01-08T09:01:42Z</time>
      </trkpt>
      <trkpt lat="45.98226" lon="4.55271">
        <ele>441.86</ele>
        <time>2011-01-08T09:01:59Z</time>
      </trkpt>
      <trkpt lat="45.98336" lon="4.55142">
        <ele>451</ele>
        <time>2011-01-08T09:13:29Z</time>
      </trkpt>
      <trkpt lat="45.98446" lon="4.55134">
        <ele>457.24</ele>
        <time>2011-01-08T09:13:47Z</time>
      </trkpt>
      <trkpt lat="45.98547" lon="4.55186">
        <ele>466.38</ele>
        <time>2011-01-08T09:14:06Z</time>
      </trkpt>
      <trkpt lat="45.98634" lon="4.55176">
        <ele>477.91</ele>
        <time>2011-01-08T09:14:28Z</time>
      </trkpt>
      <trkpt lat="45.98624" lon="4.55314">
        <ele>487.53</ele>
        <time>2011-01-08T09:14:52Z</time>
      </trkpt>
      <trkpt lat="45.98546" lon="4.55323">
        <ele>504.83</ele>
        <time>2011-01-08T09:15:13Z</time>
      </trkpt>
      <trkpt lat="45.98501" lon="4.55387">
        <ele>521.65</ele>
        <time>2011-01-08T09:15:28Z</time>
      </trkpt>
      <trkpt lat="45.98548" lon="4.55487">
        <ele>539.92</ele>
        <time>2011-01-08T09:15:45Z</time>
      </trkpt>
      <trkpt lat="45.98585" lon="4.55616">
        <ele>559.14</ele>
        <time>2011-01-08T09:16:02Z</time>
      </trkpt>
      <trkpt lat="45.98576" lon="4.55744">
        <ele>576.93</ele>
        <time>2011-01-08T09:16:18Z</time>
      </trkpt>
      <trkpt lat="45.98533" lon="4.55863">
        <ele>580.77</ele>
        <time>2011-01-08T09:16:28Z</time>
      </trkpt>
      <trkpt lat="45.98503" lon="4.55983">
        <ele>583.66</ele>
        <time>2011-01-08T09:16:39Z</time>
      </trkpt>
      <trkpt lat="45.98415" lon="4.55926">
        <ele>587.02</ele>
        <time>2011-01-08T09:16:53Z</time>
      </trkpt>
      <trkpt lat="45.98484" lon="4.55996">
        <ele>594.71</ele>
        <time>2011-01-08T09:17:14Z</time>
      </trkpt>
      <trkpt lat="45.98564" lon="4.5594">
        <ele>603.36</ele>
        <time>2011-01-08T09:17:31Z</time>
      </trkpt>
      <trkpt lat="45.98647" lon="4.55893">
        <ele>615.86</ele>
        <time>2011-01-08T09:17:45Z</time>
      </trkpt>
      <trkpt lat="45.98732" lon="4.55962">
        <ele>622.11</ele>
        <time>2011-01-08T09:17:58Z</time>
      </trkpt>
      <trkpt lat="45.98804" lon="4.56054">
        <ele>627.4</ele>
        <time>2011-01-08T09:18:07Z</time>
      </trkpt>
      <trkpt lat="45.98878" lon="4.56148">
        <ele>633.65</ele>
        <time>2011-01-08T09:18:17Z</time>
      </trkpt>
      <trkpt lat="45.98962" lon="4.56118">
        <ele>645.66</ele>
        <time>2011-01-08T09:18:32Z</time>
      </trkpt>
      <trkpt lat="45.99043" lon="4.56118">
        <ele>664.89</ele>
        <time>2011-01-08T09:18:59Z</time>
      </trkpt>
      <trkpt lat="45.9899" lon="4.5623">
        <ele>674.98</ele>
        <time>2011-01-08T09:19:11Z</time>
      </trkpt>
      <trkpt lat="45.98933" lon="4.56334">
        <ele>682.19</ele>
        <time>2011-01-08T09:19:22Z</time>
      </trkpt>
      <trkpt lat="45.98847" lon="4.56402">
        <ele>692.77</ele>
        <time>2011-01-08T09:19:34Z</time>
      </trkpt>
      <trkpt lat="45.98869" lon="4.56527">
        <ele>700.94</ele>
        <time>2011-01-08T09:19:49Z</time>
      </trkpt>
      <trkpt lat="45.98915" lon="4.56642">
        <ele>694.69</ele>
        <time>2011-01-08T09:20:08Z</time>
      </trkpt>
      <trkpt lat="45.99014" lon="4.56717">
        <ele>689.88</ele>
        <time>2011-01-08T09:20:23Z</time>
      </trkpt>
      <trkpt lat="45.99104" lon="4.56756">
        <ele>684.6</ele>
        <time>2011-01-08T09:20:37Z</time>
      </trkpt>
      <trkpt lat="45.99197" lon="4.56817">
        <ele>687.48</ele>
        <time>2011-01-08T09:20:54Z</time>
      </trkpt>
      <trkpt lat="45.99251" lon="4.56931">
        <ele>687.48</ele>
        <time>2011-01-08T09:21:07Z</time>
      </trkpt>
      <trkpt lat="45.99295" lon="4.57054">
        <ele>690.84</ele>
        <time>2011-01-08T09:21:18Z</time>
      </trkpt>
      <trkpt lat="45.99307" lon="4.57196">
        <ele>689.88</ele>
        <time>2011-01-08T09:21:30Z</time>
      </trkpt>
      <trkpt lat="45.99336" lon="4.57305">
        <ele>675.94</ele>
        <time>2011-01-08T09:21:47Z</time>
      </trkpt>
      <trkpt lat="45.99434" lon="4.57299">
        <ele>667.29</ele>
        <time>2011-01-08T09:22:01Z</time>
      </trkpt>
      <trkpt lat="45.99527" lon="4.57315">
        <ele>658.64</ele>
        <time>2011-01-08T09:22:16Z</time>
      </trkpt>
      <trkpt lat="45.99502" lon="4.57447">
        <ele>650.95</ele>
        <time>2011-01-08T09:22:29Z</time>
      </trkpt>
      <trkpt lat="45.995" lon="4.57581">
        <ele>648.07</ele>
        <time>2011-01-08T09:22:51Z</time>
      </trkpt>
      <trkpt lat="45.99604" lon="4.57587">
        <ele>646.62</ele>
        <time>2011-01-08T09:23:31Z</time>
      </trkpt>
      <trkpt lat="45.99735" lon="4.5754">
        <ele>641.82</ele>
        <time>2011-01-08T09:24:14Z</time>
      </trkpt>
      <trkpt lat="45.99795" lon="4.57687">
        <ele>598.08</ele>
        <time>2011-01-08T09:24:42Z</time>
      </trkpt>
      <trkpt lat="45.99822" lon="4.5774">
        <ele>590.87</ele>
        <time>2011-01-08T09:25:40Z</time>
      </trkpt>
      <trkpt lat="45.99799" lon="4.57567">
        <ele>635.09</ele>
        <time>2011-01-08T09:26:06Z</time>
      </trkpt>
      <trkpt lat="45.99701" lon="4.5757">
        <ele>646.14</ele>
        <time>2011-01-08T09:35:41Z</time>
      </trkpt>
      <trkpt lat="45.99593" lon="4.57593">
        <ele>645.66</ele>
        <time>2011-01-08T09:35:54Z</time>
      </trkpt>
      <trkpt lat="45.99584" lon="4.57508">
        <ele>667.29</ele>
        <time>2011-01-08T09:36:16Z</time>
      </trkpt>
      <trkpt lat="45.99637" lon="4.57377">
        <ele>694.21</ele>
        <time>2011-01-08T09:36:32Z</time>
      </trkpt>
      <trkpt lat="45.99692" lon="4.57261">
        <ele>715.84</ele>
        <time>2011-01-08T09:36:48Z</time>
      </trkpt>
      <trkpt lat="45.9977" lon="4.57161">
        <ele>737.47</ele>
        <time>2011-01-08T09:37:06Z</time>
      </trkpt>
      <trkpt lat="45.99819" lon="4.57032">
        <ele>762.46</ele>
        <time>2011-01-08T09:37:23Z</time>
      </trkpt>
      <trkpt lat="45.99774" lon="4.56986">
        <ele>776.4</ele>
        <time>2011-01-08T09:38:58Z</time>
      </trkpt>
      <trkpt lat="45.99699" lon="4.56925">
        <ele>789.86</ele>
        <time>2011-01-08T09:39:09Z</time>
      </trkpt>
      <trkpt lat="45.99597" lon="4.56884">
        <ele>800.44</ele>
        <time>2011-01-08T09:39:22Z</time>
      </trkpt>
      <trkpt lat="45.99523" lon="4.56801">
        <ele>811.01</ele>
        <time>2011-01-08T09:39:35Z</time>
      </trkpt>
      <trkpt lat="45.99473" lon="4.56691">
        <ele>807.64</ele>
        <time>2011-01-08T09:39:45Z</time>
      </trkpt>
      <trkpt lat="45.9943" lon="4.56567">
        <ele>800.44</ele>
        <time>2011-01-08T09:39:53Z</time>
      </trkpt>
      <trkpt lat="45.99375" lon="4.56456">
        <ele>786.02</ele>
        <time>2011-01-08T09:40:04Z</time>
      </trkpt>
      <trkpt lat="45.99374" lon="4.56351">
        <ele>770.15</ele>
        <time>2011-01-08T09:40:44Z</time>
      </trkpt>
      <trkpt lat="45.99457" lon="4.56279">
        <ele>755.73</ele>
        <time>2011-01-08T09:40:53Z</time>
      </trkpt>
      <trkpt lat="45.99521" lon="4.56189">
        <ele>744.2</ele>
        <time>2011-01-08T09:41:18Z</time>
      </trkpt>
      <trkpt lat="45.99572" lon="4.56072">
        <ele>740.83</ele>
        <time>2011-01-08T09:41:28Z</time>
      </trkpt>
      <trkpt lat="45.99614" lon="4.5595">
        <ele>738.91</ele>
        <time>2011-01-08T09:41:37Z</time>
      </trkpt>
      <trkpt lat="45.99619" lon="4.55806">
        <ele>731.22</ele>
        <time>2011-01-08T09:41:47Z</time>
      </trkpt>
      <trkpt lat="45.99662" lon="4.55669">
        <ele>727.37</ele>
        <time>2011-01-08T09:41:57Z</time>
      </trkpt>
      <trkpt lat="45.99733" lon="4.5558">
        <ele>720.16</ele>
        <time>2011-01-08T09:42:05Z</time>
      </trkpt>
      <trkpt lat="45.99778" lon="4.55453">
        <ele>709.11</ele>
        <time>2011-01-08T09:42:16Z</time>
      </trkpt>
      <trkpt lat="45.99848" lon="4.55337">
        <ele>700.94</ele>
        <time>2011-01-08T09:42:45Z</time>
      </trkpt>
      <trkpt lat="45.99947" lon="4.55298">
        <ele>731.22</ele>
        <time>2011-01-08T09:42:57Z</time>
      </trkpt>
      <trkpt lat="46.00026" lon="4.55281">
        <ele>765.83</ele>
        <time>2011-01-08T09:43:14Z</time>
      </trkpt>
      <trkpt lat="46.00059" lon="4.55151">
        <ele>766.79</ele>
        <time>2011-01-08T09:52:47Z</time>
      </trkpt>
      <trkpt lat="46.00115" lon="4.54995">
        <ele>781.21</ele>
        <time>2011-01-08T09:53:58Z</time>
      </trkpt>
      <trkpt lat="46.00135" lon="4.54829">
        <ele>782.65</ele>
        <time>2011-01-08T09:54:46Z</time>
      </trkpt>
      <trkpt lat="46.00203" lon="4.54728">
        <ele>768.23</ele>
        <time>2011-01-08T09:55:06Z</time>
      </trkpt>
      <trkpt lat="46.00263" lon="4.5462">
        <ele>752.37</ele>
        <time>2011-01-08T09:55:21Z</time>
      </trkpt>
      <trkpt lat="46.00308" lon="4.54503">
        <ele>749</ele>
        <time>2011-01-08T09:55:40Z</time>
      </trkpt>
      <trkpt lat="46.00397" lon="4.5452">
        <ele>755.73</ele>
        <time>2011-01-08T09:55:54Z</time>
      </trkpt>
      <trkpt lat="46.00484" lon="4.54443">
        <ele>760.54</ele>
        <time>2011-01-08T09:56:02Z</time>
      </trkpt>
      <trkpt lat="46.00555" lon="4.54344">
        <ele>765.83</ele>
        <time>2011-01-08T09:56:09Z</time>
      </trkpt>
      <trkpt lat="46.00635" lon="4.54298">
        <ele>767.75</ele>
        <time>2011-01-08T09:56:21Z</time>
      </trkpt>
      <trkpt lat="46.00712" lon="4.54394">
        <ele>742.28</ele>
        <time>2011-01-08T09:56:46Z</time>
      </trkpt>
      <trkpt lat="46.00833" lon="4.54471">
        <ele>715.36</ele>
        <time>2011-01-08T09:57:10Z</time>
      </trkpt>
      <trkpt lat="46.00803" lon="4.54395">
        <ele>709.59</ele>
        <time>2011-01-08T09:57:31Z</time>
      </trkpt>
      <trkpt lat="46.00747" lon="4.54269">
        <ele>708.63</ele>
        <time>2011-01-08T09:57:46Z</time>
      </trkpt>
      <trkpt lat="46.0083" lon="4.54213">
        <ele>674.5</ele>
        <time>2011-01-08T09:58:42Z</time>
      </trkpt>
      <trkpt lat="46.00924" lon="4.54157">
        <ele>644.7</ele>
        <time>2011-01-08T09:59:02Z</time>
      </trkpt>
      <trkpt lat="46.00938" lon="4.54138">
        <ele>645.18</ele>
        <time>2011-01-08T09:59:42Z</time>
      </trkpt>
      <trkpt lat="46.00864" lon="4.54032">
        <ele>691.33</ele>
        <time>2011-01-08T10:00:07Z</time>
      </trkpt>
      <trkpt lat="46.00839" lon="4.54017">
        <ele>708.15</ele>
        <time>2011-01-08T10:16:20Z</time>
      </trkpt>
      <trkpt lat="46.00923" lon="4.54103">
        <ele>662.01</ele>
        <time>2011-01-08T10:17:37Z</time>
      </trkpt>
      <trkpt lat="46.00963" lon="4.54153">
        <ele>641.82</ele>
        <time>2011-01-08T10:18:15Z</time>
      </trkpt>
      <trkpt lat="46.00882" lon="4.54067">
        <ele>686.52</ele>
        <time>2011-01-08T10:18:41Z</time>
      </trkpt>
      <trkpt lat="46.00867" lon="4.54043">
        <ele>693.25</ele>
        <time>2011-01-08T10:19:48Z</time>
      </trkpt>
      <trkpt lat="46.00925" lon="4.54106">
        <ele>658.64</ele>
        <time>2011-01-08T10:25:31Z</time>
      </trkpt>
      <trkpt lat="46.01004" lon="4.54166">
        <ele>641.34</ele>
        <time>2011-01-08T10:27:21Z</time>
      </trkpt>
      <trkpt lat="46.01092" lon="4.54203">
        <ele>637.49</ele>
        <time>2011-01-08T10:27:30Z</time>
      </trkpt>
      <trkpt lat="46.01181" lon="4.54171">
        <ele>635.09</ele>
        <time>2011-01-08T10:27:39Z</time>
      </trkpt>
      <trkpt lat="46.01269" lon="4.54143">
        <ele>631.24</ele>
        <time>2011-01-08T10:27:48Z</time>
      </trkpt>
      <trkpt lat="46.01308" lon="4.54272">
        <ele>630.28</ele>
        <time>2011-01-08T10:27:58Z</time>
      </trkpt>
      <trkpt lat="46.01363" lon="4.54372">
        <ele>630.28</ele>
        <time>2011-01-08T10:28:11Z</time>
      </trkpt>
      <trkpt lat="46.01429" lon="4.54275">
        <ele>632.2</ele>
        <time>2011-01-08T10:28:21Z</time>
      </trkpt>
      <trkpt lat="46.01515" lon="4.54253">
        <ele>634.13</ele>
        <time>2011-01-08T10:28:31Z</time>
      </trkpt>
      <trkpt lat="46.01588" lon="4.54341">
        <ele>636.53</ele>
        <time>2011-01-08T10:28:41Z</time>
      </trkpt>
      <trkpt lat="46.01635" lon="4.54456">
        <ele>637.49</ele>
        <time>2011-01-08T10:28:53Z</time>
      </trkpt>
      <trkpt lat="46.0169" lon="4.54475">
        <ele>625.47</ele>
        <time>2011-01-08T10:29:16Z</time>
      </trkpt>
      <trkpt lat="46.01707" lon="4.54345">
        <ele>596.15</ele>
        <time>2011-01-08T10:29:43Z</time>
      </trkpt>
      <trkpt lat="46.01686" lon="4.54221">
        <ele>576.93</ele>
        <time>2011-01-08T10:30:03Z</time>
      </trkpt>
      <trkpt lat="46.01627" lon="4.54122">
        <ele>557.22</ele>
        <time>2011-01-08T10:30:21Z</time>
      </trkpt>
      <trkpt lat="46.01562" lon="4.54034">
        <ele>540.88</ele>
        <time>2011-01-08T10:30:39Z</time>
      </trkpt>
      <trkpt lat="46.01533" lon="4.53915">
        <ele>524.54</ele>
        <time>2011-01-08T10:30:57Z</time>
      </trkpt>
      <trkpt lat="46.01583" lon="4.5382">
        <ele>526.94</ele>
        <time>2011-01-08T10:31:22Z</time>
      </trkpt>
      <trkpt lat="46.01655" lon="4.53722">
        <ele>538.96</ele>
        <time>2011-01-08T10:31:29Z</time>
      </trkpt>
      <trkpt lat="46.01744" lon="4.53646">
        <ele>549.53</ele>
        <time>2011-01-08T10:31:38Z</time>
      </trkpt>
      <trkpt lat="46.01844" lon="4.53608">
        <ele>561.07</ele>
        <time>2011-01-08T10:31:47Z</time>
      </trkpt>
      <trkpt lat="46.01937" lon="4.53625">
        <ele>570.2</ele>
        <time>2011-01-08T10:31:56Z</time>
      </trkpt>
      <trkpt lat="46.02038" lon="4.53658">
        <ele>563.95</ele>
        <time>2011-01-08T10:32:21Z</time>
      </trkpt>
      <trkpt lat="46.02129" lon="4.53641">
        <ele>561.55</ele>
        <time>2011-01-08T10:32:36Z</time>
      </trkpt>
      <trkpt lat="46.02175" lon="4.53514">
        <ele>566.35</ele>
        <time>2011-01-08T10:32:49Z</time>
      </trkpt>
      <trkpt lat="46.02209" lon="4.53388">
        <ele>571.16</ele>
        <time>2011-01-08T10:33:01Z</time>
      </trkpt>
      <trkpt lat="46.02245" lon="4.53263">
        <ele>584.14</ele>
        <time>2011-01-08T10:33:12Z</time>
      </trkpt>
      <trkpt lat="46.02315" lon="4.53179">
        <ele>593.75</ele>
        <time>2011-01-08T10:33:23Z</time>
      </trkpt>
      <trkpt lat="46.02394" lon="4.53237">
        <ele>577.89</ele>
        <time>2011-01-08T10:33:51Z</time>
      </trkpt>
      <trkpt lat="46.02469" lon="4.53338">
        <ele>557.22</ele>
        <time>2011-01-08T10:34:09Z</time>
      </trkpt>
      <trkpt lat="46.02549" lon="4.53446">
        <ele>534.63</ele>
        <time>2011-01-08T10:34:37Z</time>
      </trkpt>
      <trkpt lat="46.02536" lon="4.53592">
        <ele>537.03</ele>
        <time>2011-01-08T10:34:52Z</time>
      </trkpt>
      <trkpt lat="46.02574" lon="4.53691">
        <ele>531.75</ele>
        <time>2011-01-08T10:35:07Z</time>
      </trkpt>
      <trkpt lat="46.02644" lon="4.53783">
        <ele>537.99</ele>
        <time>2011-01-08T10:35:28Z</time>
      </trkpt>
      <trkpt lat="46.02659" lon="4.53912">
        <ele>536.55</ele>
        <time>2011-01-08T10:35:44Z</time>
      </trkpt>
      <trkpt lat="46.02659" lon="4.54047">
        <ele>525.98</ele>
        <time>2011-01-08T10:36:02Z</time>
      </trkpt>
      <trkpt lat="46.02737" lon="4.54087">
        <ele>535.11</ele>
        <time>2011-01-08T10:36:15Z</time>
      </trkpt>
      <trkpt lat="46.02826" lon="4.54056">
        <ele>544.72</ele>
        <time>2011-01-08T10:36:27Z</time>
      </trkpt>
      <trkpt lat="46.02912" lon="4.54097">
        <ele>536.55</ele>
        <time>2011-01-08T10:36:38Z</time>
      </trkpt>
      <trkpt lat="46.02999" lon="4.54105">
        <ele>528.38</ele>
        <time>2011-01-08T10:36:55Z</time>
      </trkpt>
      <trkpt lat="46.02954" lon="4.53986">
        <ele>524.54</ele>
        <time>2011-01-08T10:37:10Z</time>
      </trkpt>
      <trkpt lat="46.029" lon="4.53871">
        <ele>526.46</ele>
        <time>2011-01-08T10:37:21Z</time>
      </trkpt>
      <trkpt lat="46.02893" lon="4.53732">
        <ele>519.25</ele>
        <time>2011-01-08T10:37:35Z</time>
      </trkpt>
      <trkpt lat="46.02931" lon="4.53612">
        <ele>509.16</ele>
        <time>2011-01-08T10:37:51Z</time>
      </trkpt>
      <trkpt lat="46.02911" lon="4.53462">
        <ele>513.48</ele>
        <time>2011-01-08T10:38:09Z</time>
      </trkpt>
      <trkpt lat="46.02929" lon="4.53324">
        <ele>513</ele>
        <time>2011-01-08T10:38:19Z</time>
      </trkpt>
      <trkpt lat="46.02944" lon="4.53187">
        <ele>509.64</ele>
        <time>2011-01-08T10:38:29Z</time>
      </trkpt>
      <trkpt lat="46.02977" lon="4.53057">
        <ele>501.46</ele>
        <time>2011-01-08T10:38:40Z</time>
      </trkpt>
      <trkpt lat="46.02981" lon="4.52922">
        <ele>508.19</ele>
        <time>2011-01-08T10:38:56Z</time>
      </trkpt>
      <trkpt lat="46.0305" lon="4.52821">
        <ele>526.46</ele>
        <time>2011-01-08T10:39:21Z</time>
      </trkpt>
      <trkpt lat="46.03091" lon="4.52687">
        <ele>536.55</ele>
        <time>2011-01-08T10:39:38Z</time>
      </trkpt>
      <trkpt lat="46.03171" lon="4.52652">
        <ele>541.36</ele>
        <time>2011-01-08T10:39:50Z</time>
      </trkpt>
      <trkpt lat="46.03262" lon="4.52641">
        <ele>561.07</ele>
        <time>2011-01-08T10:40:17Z</time>
      </trkpt>
      <trkpt lat="46.03372" lon="4.52585">
        <ele>575.01</ele>
        <time>2011-01-08T10:40:35Z</time>
      </trkpt>
      <trkpt lat="46.03439" lon="4.52686">
        <ele>558.66</ele>
        <time>2011-01-08T10:40:56Z</time>
      </trkpt>
      <trkpt lat="46.03521" lon="4.52789">
        <ele>534.63</ele>
        <time>2011-01-08T10:41:10Z</time>
      </trkpt>
      <trkpt lat="46.03609" lon="4.52821">
        <ele>519.25</ele>
        <time>2011-01-08T10:41:25Z</time>
      </trkpt>
      <trkpt lat="46.03543" lon="4.52741">
        <ele>523.09</ele>
        <time>2011-01-08T10:42:28Z</time>
      </trkpt>
      <trkpt lat="46.03549" lon="4.52721">
        <ele>513.48</ele>
        <time>2011-01-08T10:43:56Z</time>
      </trkpt>
      <trkpt lat="46.03551" lon="4.52725">
        <ele>513.96</ele>
        <time>2011-01-08T10:46:59Z</time>
      </trkpt>
      <trkpt lat="46.03567" lon="4.52715">
        <ele>508.67</ele>
        <time>2011-01-08T10:48:15Z</time>
      </trkpt>
      <trkpt lat="46.03514" lon="4.52741">
        <ele>531.75</ele>
        <time>2011-01-08T10:51:06Z</time>
      </trkpt>
      <trkpt lat="46.03506" lon="4.52748">
        <ele>536.07</ele>
        <time>2011-01-08T10:53:36Z</time>
      </trkpt>
      <trkpt lat="46.03537" lon="4.52736">
        <ele>513.48</ele>
        <time>2011-01-08T11:04:20Z</time>
      </trkpt>
      <trkpt lat="46.03526" lon="4.52778">
        <ele>538.96</ele>
        <time>2011-01-08T11:12:31Z</time>
      </trkpt>
      <trkpt lat="46.03603" lon="4.52804">
        <ele>521.17</ele>
        <time>2011-01-08T11:12:52Z</time>
      </trkpt>
      <trkpt lat="46.03564" lon="4.52652">
        <ele>516.85</ele>
        <time>2011-01-08T11:14:27Z</time>
      </trkpt>
      <trkpt lat="46.03593" lon="4.52512">
        <ele>519.25</ele>
        <time>2011-01-08T11:14:37Z</time>
      </trkpt>
      <trkpt lat="46.0363" lon="4.5238">
        <ele>517.81</ele>
        <time>2011-01-08T11:14:44Z</time>
      </trkpt>
      <trkpt lat="46.03671" lon="4.52246">
        <ele>517.81</ele>
        <time>2011-01-08T11:14:52Z</time>
      </trkpt>
      <trkpt lat="46.03741" lon="4.52151">
        <ele>515.88</ele>
        <time>2011-01-08T11:15:01Z</time>
      </trkpt>
      <trkpt lat="46.03798" lon="4.52168">
        <ele>505.31</ele>
        <time>2011-01-08T11:15:35Z</time>
      </trkpt>
      <trkpt lat="46.03822" lon="4.52024">
        <ele>506.27</ele>
        <time>2011-01-08T11:15:45Z</time>
      </trkpt>
      <trkpt lat="46.03844" lon="4.52009">
        <ele>516.85</ele>
        <time>2011-01-08T11:16:12Z</time>
      </trkpt>
      <trkpt lat="46.03837" lon="4.52146">
        <ele>526.46</ele>
        <time>2011-01-08T11:16:23Z</time>
      </trkpt>
      <trkpt lat="46.03915" lon="4.52236">
        <ele>533.67</ele>
        <time>2011-01-08T11:16:32Z</time>
      </trkpt>
      <trkpt lat="46.03975" lon="4.52361">
        <ele>537.03</ele>
        <time>2011-01-08T11:16:43Z</time>
      </trkpt>
      <trkpt lat="46.0406" lon="4.52407">
        <ele>561.07</ele>
        <time>2011-01-08T11:16:56Z</time>
      </trkpt>
      <trkpt lat="46.04038" lon="4.52283">
        <ele>578.37</ele>
        <time>2011-01-08T11:17:08Z</time>
      </trkpt>
      <trkpt lat="46.04095" lon="4.52302">
        <ele>593.75</ele>
        <time>2011-01-08T11:17:21Z</time>
      </trkpt>
      <trkpt lat="46.04174" lon="4.52386">
        <ele>608.65</ele>
        <time>2011-01-08T11:17:30Z</time>
      </trkpt>
      <trkpt lat="46.04223" lon="4.5248">
        <ele>623.07</ele>
        <time>2011-01-08T11:17:40Z</time>
      </trkpt>
      <trkpt lat="46.04247" lon="4.52457">
        <ele>632.68</ele>
        <time>2011-01-08T11:18:47Z</time>
      </trkpt>
      <trkpt lat="46.04206" lon="4.52338">
        <ele>637.01</ele>
        <time>2011-01-08T11:18:54Z</time>
      </trkpt>
      <trkpt lat="46.04157" lon="4.52206">
        <ele>645.66</ele>
        <time>2011-01-08T11:18:59Z</time>
      </trkpt>
      <trkpt lat="46.04119" lon="4.52077">
        <ele>654.31</ele>
        <time>2011-01-08T11:19:06Z</time>
      </trkpt>
      <trkpt lat="46.04164" lon="4.52153">
        <ele>661.52</ele>
        <time>2011-01-08T11:19:19Z</time>
      </trkpt>
      <trkpt lat="46.04239" lon="4.52245">
        <ele>675.46</ele>
        <time>2011-01-08T11:19:25Z</time>
      </trkpt>
      <trkpt lat="46.0433" lon="4.52326">
        <ele>687</ele>
        <time>2011-01-08T11:19:32Z</time>
      </trkpt>
      <trkpt lat="46.0438" lon="4.52458">
        <ele>699.5</ele>
        <time>2011-01-08T11:19:39Z</time>
      </trkpt>
      <trkpt lat="46.04381" lon="4.52618">
        <ele>710.07</ele>
        <time>2011-01-08T11:19:46Z</time>
      </trkpt>
      <trkpt lat="46.04421" lon="4.52739">
        <ele>724.01</ele>
        <time>2011-01-08T11:19:54Z</time>
      </trkpt>
      <trkpt lat="46.0447" lon="4.5281">
        <ele>732.66</ele>
        <time>2011-01-08T11:20:33Z</time>
      </trkpt>
      <trkpt lat="46.04423" lon="4.52681">
        <ele>733.14</ele>
        <time>2011-01-08T11:20:45Z</time>
      </trkpt>
      <trkpt lat="46.04439" lon="4.52537">
        <ele>732.66</ele>
        <time>2011-01-08T11:20:53Z</time>
      </trkpt>
      <trkpt lat="46.0443" lon="4.52404">
        <ele>727.86</ele>
        <time>2011-01-08T11:21:00Z</time>
      </trkpt>
      <trkpt lat="46.04387" lon="4.52277">
        <ele>722.57</ele>
        <time>2011-01-08T11:21:07Z</time>
      </trkpt>
      <trkpt lat="46.04307" lon="4.52191">
        <ele>717.76</ele>
        <time>2011-01-08T11:21:12Z</time>
      </trkpt>
      <trkpt lat="46.04294" lon="4.52074">
        <ele>719.68</ele>
        <time>2011-01-08T11:21:20Z</time>
      </trkpt>
      <trkpt lat="46.0437" lon="4.51975">
        <ele>724.49</ele>
        <time>2011-01-08T11:21:27Z</time>
      </trkpt>
      <trkpt lat="46.04437" lon="4.51878">
        <ele>732.18</ele>
        <time>2011-01-08T11:21:34Z</time>
      </trkpt>
      <trkpt lat="46.04516" lon="4.51822">
        <ele>736.99</ele>
        <time>2011-01-08T11:21:41Z</time>
      </trkpt>
      <trkpt lat="46.04605" lon="4.51846">
        <ele>738.43</ele>
        <time>2011-01-08T11:21:47Z</time>
      </trkpt>
      <trkpt lat="46.04651" lon="4.5195">
        <ele>736.99</ele>
        <time>2011-01-08T11:21:56Z</time>
      </trkpt>
      <trkpt lat="46.04641" lon="4.52087">
        <ele>732.66</ele>
        <time>2011-01-08T11:22:04Z</time>
      </trkpt>
      <trkpt lat="46.04653" lon="4.52212">
        <ele>727.86</ele>
        <time>2011-01-08T11:22:14Z</time>
      </trkpt>
      <trkpt lat="46.04722" lon="4.52303">
        <ele>723.05</ele>
        <time>2011-01-08T11:22:23Z</time>
      </trkpt>
      <trkpt lat="46.04757" lon="4.52428">
        <ele>717.76</ele>
        <time>2011-01-08T11:22:30Z</time>
      </trkpt>
      <trkpt lat="46.04796" lon="4.52561">
        <ele>712.47</ele>
        <time>2011-01-08T11:22:37Z</time>
      </trkpt>
      <trkpt lat="46.04861" lon="4.52561">
        <ele>707.19</ele>
        <time>2011-01-08T11:22:47Z</time>
      </trkpt>
      <trkpt lat="46.04915" lon="4.52438">
        <ele>703.82</ele>
        <time>2011-01-08T11:22:53Z</time>
      </trkpt>
      <trkpt lat="46.04979" lon="4.52335">
        <ele>699.02</ele>
        <time>2011-01-08T11:23:01Z</time>
      </trkpt>
      <trkpt lat="46.05066" lon="4.52352">
        <ele>697.09</ele>
        <time>2011-01-08T11:23:11Z</time>
      </trkpt>
      <trkpt lat="46.05141" lon="4.52419">
        <ele>693.25</ele>
        <time>2011-01-08T11:23:21Z</time>
      </trkpt>
      <trkpt lat="46.05212" lon="4.52326">
        <ele>692.29</ele>
        <time>2011-01-08T11:23:29Z</time>
      </trkpt>
      <trkpt lat="46.0525" lon="4.52201">
        <ele>693.73</ele>
        <time>2011-01-08T11:23:36Z</time>
      </trkpt>
      <trkpt lat="46.0533" lon="4.5219">
        <ele>695.17</ele>
        <time>2011-01-08T11:24:17Z</time>
      </trkpt>
      <trkpt lat="46.05426" lon="4.52185">
        <ele>695.17</ele>
        <time>2011-01-08T11:24:28Z</time>
      </trkpt>
      <trkpt lat="46.05522" lon="4.52122">
        <ele>695.17</ele>
        <time>2011-01-08T11:24:34Z</time>
      </trkpt>
      <trkpt lat="46.0561" lon="4.52069">
        <ele>697.09</ele>
        <time>2011-01-08T11:24:41Z</time>
      </trkpt>
      <trkpt lat="46.05685" lon="4.52182">
        <ele>701.9</ele>
        <time>2011-01-08T11:24:49Z</time>
      </trkpt>
      <trkpt lat="46.05716" lon="4.52304">
        <ele>704.78</ele>
        <time>2011-01-08T11:24:54Z</time>
      </trkpt>
      <trkpt lat="46.05707" lon="4.52441">
        <ele>709.11</ele>
        <time>2011-01-08T11:25:02Z</time>
      </trkpt>
      <trkpt lat="46.05651" lon="4.52546">
        <ele>713.44</ele>
        <time>2011-01-08T11:25:08Z</time>
      </trkpt>
      <trkpt lat="46.056" lon="4.52655">
        <ele>717.76</ele>
        <time>2011-01-08T11:25:14Z</time>
      </trkpt>
      <trkpt lat="46.05572" lon="4.52787">
        <ele>723.53</ele>
        <time>2011-01-08T11:25:20Z</time>
      </trkpt>
      <trkpt lat="46.05545" lon="4.52913">
        <ele>727.86</ele>
        <time>2011-01-08T11:25:26Z</time>
      </trkpt>
      <trkpt lat="46.05502" lon="4.53051">
        <ele>732.18</ele>
        <time>2011-01-08T11:25:33Z</time>
      </trkpt>
      <trkpt lat="46.05457" lon="4.5317">
        <ele>735.07</ele>
        <time>2011-01-08T11:25:39Z</time>
      </trkpt>
      <trkpt lat="46.05462" lon="4.53276">
        <ele>737.47</ele>
        <time>2011-01-08T11:25:48Z</time>
      </trkpt>
      <trkpt lat="46.05553" lon="4.53248">
        <ele>739.39</ele>
        <time>2011-01-08T11:25:54Z</time>
      </trkpt>
      <trkpt lat="46.05656" lon="4.53219">
        <ele>743.24</ele>
        <time>2011-01-08T11:26:00Z</time>
      </trkpt>
      <trkpt lat="46.05747" lon="4.53207">
        <ele>740.35</ele>
        <time>2011-01-08T11:26:08Z</time>
      </trkpt>
      <trkpt lat="46.05766" lon="4.53347">
        <ele>741.79</ele>
        <time>2011-01-08T11:26:16Z</time>
      </trkpt>
      <trkpt lat="46.05758" lon="4.53498">
        <ele>741.79</ele>
        <time>2011-01-08T11:26:22Z</time>
      </trkpt>
      <trkpt lat="46.05764" lon="4.53637">
        <ele>742.76</ele>
        <time>2011-01-08T11:26:28Z</time>
      </trkpt>
      <trkpt lat="46.05829" lon="4.53734">
        <ele>747.56</ele>
        <time>2011-01-08T11:26:36Z</time>
      </trkpt>
      <trkpt lat="46.05916" lon="4.53741">
        <ele>744.68</ele>
        <time>2011-01-08T11:27:33Z</time>
      </trkpt>
      <trkpt lat="46.05993" lon="4.53643">
        <ele>737.47</ele>
        <time>2011-01-08T11:27:41Z</time>
      </trkpt>
      <trkpt lat="46.06039" lon="4.53511">
        <ele>731.22</ele>
        <time>2011-01-08T11:27:48Z</time>
      </trkpt>
      <trkpt lat="46.06081" lon="4.53384">
        <ele>723.05</ele>
        <time>2011-01-08T11:27:55Z</time>
      </trkpt>
      <trkpt lat="46.06153" lon="4.53293">
        <ele>716.32</ele>
        <time>2011-01-08T11:28:03Z</time>
      </trkpt>
      <trkpt lat="46.0625" lon="4.53298">
        <ele>710.55</ele>
        <time>2011-01-08T11:28:10Z</time>
      </trkpt>
      <trkpt lat="46.06349" lon="4.53307">
        <ele>703.82</ele>
        <time>2011-01-08T11:28:17Z</time>
      </trkpt>
      <trkpt lat="46.06343" lon="4.53272">
        <ele>695.17</ele>
        <time>2011-01-08T11:28:30Z</time>
      </trkpt>
      <trkpt lat="46.06245" lon="4.53229">
        <ele>689.4</ele>
        <time>2011-01-08T11:28:36Z</time>
      </trkpt>
      <trkpt lat="46.06162" lon="4.53157">
        <ele>682.67</ele>
        <time>2011-01-08T11:28:43Z</time>
      </trkpt>
      <trkpt lat="46.06065" lon="4.53158">
        <ele>675.94</ele>
        <time>2011-01-08T11:28:50Z</time>
      </trkpt>
      <trkpt lat="46.05977" lon="4.53234">
        <ele>668.25</ele>
        <time>2011-01-08T11:28:57Z</time>
      </trkpt>
      <trkpt lat="46.05912" lon="4.53286">
        <ele>660.56</ele>
        <time>2011-01-08T11:29:07Z</time>
      </trkpt>
      <trkpt lat="46.05976" lon="4.53185">
        <ele>653.35</ele>
        <time>2011-01-08T11:29:16Z</time>
      </trkpt>
      <trkpt lat="46.06044" lon="4.53095">
        <ele>647.1</ele>
        <time>2011-01-08T11:29:23Z</time>
      </trkpt>
      <trkpt lat="46.06125" lon="4.5303">
        <ele>640.86</ele>
        <time>2011-01-08T11:29:30Z</time>
      </trkpt>
      <trkpt lat="46.06213" lon="4.53051">
        <ele>634.61</ele>
        <time>2011-01-08T11:29:39Z</time>
      </trkpt>
      <trkpt lat="46.06201" lon="4.52928">
        <ele>628.36</ele>
        <time>2011-01-08T11:29:48Z</time>
      </trkpt>
      <trkpt lat="46.0619" lon="4.52803">
        <ele>621.15</ele>
        <time>2011-01-08T11:29:56Z</time>
      </trkpt>
      <trkpt lat="46.06166" lon="4.52668">
        <ele>613.94</ele>
        <time>2011-01-08T11:30:05Z</time>
      </trkpt>
      <trkpt lat="46.06172" lon="4.5253">
        <ele>606.73</ele>
        <time>2011-01-08T11:30:13Z</time>
      </trkpt>
      <trkpt lat="46.06206" lon="4.52408">
        <ele>600.48</ele>
        <time>2011-01-08T11:30:24Z</time>
      </trkpt>
      <trkpt lat="46.06229" lon="4.52287">
        <ele>593.75</ele>
        <time>2011-01-08T11:31:00Z</time>
      </trkpt>
      <trkpt lat="46.0619" lon="4.52308">
        <ele>580.77</ele>
        <time>2011-01-08T11:31:15Z</time>
      </trkpt>
      <trkpt lat="46.06145" lon="4.5242">
        <ele>567.8</ele>
        <time>2011-01-08T11:31:26Z</time>
      </trkpt>
      <trkpt lat="46.06139" lon="4.52427">
        <ele>566.83</ele>
        <time>2011-01-08T11:32:27Z</time>
      </trkpt>
      <trkpt lat="46.06169" lon="4.52405">
        <ele>578.85</ele>
        <time>2011-01-08T11:34:23Z</time>
      </trkpt>
      <trkpt lat="46.06132" lon="4.52433">
        <ele>565.87</ele>
        <time>2011-01-08T11:37:24Z</time>
      </trkpt>
      <trkpt lat="46.06172" lon="4.52405">
        <ele>585.58</ele>
        <time>2011-01-08T11:38:41Z</time>
      </trkpt>
      <trkpt lat="46.06111" lon="4.52455">
        <ele>564.91</ele>
        <time>2011-01-08T11:41:31Z</time>
      </trkpt>
      <trkpt lat="46.06171" lon="4.52405">
        <ele>583.18</ele>
        <time>2011-01-08T11:42:04Z</time>
      </trkpt>
      <trkpt lat="46.06109" lon="4.52461">
        <ele>563.47</ele>
        <time>2011-01-08T11:44:19Z</time>
      </trkpt>
      <trkpt lat="46.06194" lon="4.52404">
        <ele>595.19</ele>
        <time>2011-01-08T11:44:33Z</time>
      </trkpt>
      <trkpt lat="46.06229" lon="4.52284">
        <ele>594.71</ele>
        <time>2011-01-08T11:53:13Z</time>
      </trkpt>
      <trkpt lat="46.06192" lon="4.52195">
        <ele>587.98</ele>
        <time>2011-01-08T11:53:25Z</time>
      </trkpt>
      <trkpt lat="46.06182" lon="4.52081">
        <ele>581.25</ele>
        <time>2011-01-08T11:53:35Z</time>
      </trkpt>
      <trkpt lat="46.06154" lon="4.51957">
        <ele>573.56</ele>
        <time>2011-01-08T11:53:45Z</time>
      </trkpt>
      <trkpt lat="46.06113" lon="4.51837">
        <ele>567.8</ele>
        <time>2011-01-08T11:53:53Z</time>
      </trkpt>
      <trkpt lat="46.06082" lon="4.51704">
        <ele>560.59</ele>
        <time>2011-01-08T11:54:01Z</time>
      </trkpt>
      <trkpt lat="46.06105" lon="4.51567">
        <ele>553.86</ele>
        <time>2011-01-08T11:54:09Z</time>
      </trkpt>
      <trkpt lat="46.06163" lon="4.51447">
        <ele>547.13</ele>
        <time>2011-01-08T11:54:16Z</time>
      </trkpt>
      <trkpt lat="46.06239" lon="4.51375">
        <ele>539.92</ele>
        <time>2011-01-08T11:54:24Z</time>
      </trkpt>
      <trkpt lat="46.06294" lon="4.51325">
        <ele>532.71</ele>
        <time>2011-01-08T11:54:35Z</time>
      </trkpt>
      <trkpt lat="46.06214" lon="4.5124">
        <ele>525.98</ele>
        <time>2011-01-08T11:54:42Z</time>
      </trkpt>
      <trkpt lat="46.06156" lon="4.51126">
        <ele>518.77</ele>
        <time>2011-01-08T11:54:50Z</time>
      </trkpt>
      <trkpt lat="46.06163" lon="4.50992">
        <ele>512.04</ele>
        <time>2011-01-08T11:54:56Z</time>
      </trkpt>
      <trkpt lat="46.06174" lon="4.50862">
        <ele>505.31</ele>
        <time>2011-01-08T11:55:02Z</time>
      </trkpt>
      <trkpt lat="46.06193" lon="4.50722">
        <ele>498.1</ele>
        <time>2011-01-08T11:55:09Z</time>
      </trkpt>
      <trkpt lat="46.062" lon="4.50569">
        <ele>488.97</ele>
        <time>2011-01-08T11:55:16Z</time>
      </trkpt>
      <trkpt lat="46.06209" lon="4.50432">
        <ele>482.24</ele>
        <time>2011-01-08T11:55:23Z</time>
      </trkpt>
      <trkpt lat="46.06235" lon="4.50305">
        <ele>475.99</ele>
        <time>2011-01-08T11:55:29Z</time>
      </trkpt>
      <trkpt lat="46.06291" lon="4.50193">
        <ele>470.22</ele>
        <time>2011-01-08T11:55:37Z</time>
      </trkpt>
      <trkpt lat="46.06383" lon="4.50224">
        <ele>463.49</ele>
        <time>2011-01-08T11:55:46Z</time>
      </trkpt>
      <trkpt lat="46.06362" lon="4.50131">
        <ele>457.24</ele>
        <time>2011-01-08T11:55:55Z</time>
      </trkpt>
      <trkpt lat="46.06289" lon="4.50036">
        <ele>451</ele>
        <time>2011-01-08T11:56:02Z</time>
      </trkpt>
      <trkpt lat="46.06284" lon="4.49905">
        <ele>443.31</ele>
        <time>2011-01-08T11:56:11Z</time>
      </trkpt>
      <trkpt lat="46.06255" lon="4.49784">
        <ele>437.06</ele>
        <time>2011-01-08T11:56:19Z</time>
      </trkpt>
      <trkpt lat="46.06257" lon="4.4965">
        <ele>430.33</ele>
        <time>2011-01-08T11:56:26Z</time>
      </trkpt>
      <trkpt lat="46.06279" lon="4.49511">
        <ele>424.56</ele>
        <time>2011-01-08T11:56:33Z</time>
      </trkpt>
      <trkpt lat="46.06329" lon="4.49403">
        <ele>417.83</ele>
        <time>2011-01-08T11:56:41Z</time>
      </trkpt>
      <trkpt lat="46.06424" lon="4.49433">
        <ele>411.58</ele>
        <time>2011-01-08T11:56:49Z</time>
      </trkpt>
      <trkpt lat="46.06514" lon="4.49431">
        <ele>407.74</ele>
        <time>2011-01-08T11:56:58Z</time>
      </trkpt>
      <trkpt lat="46.06449" lon="4.49377">
        <ele>401.49</ele>
        <time>2011-01-08T11:57:08Z</time>
      </trkpt>
      <trkpt lat="46.0636" lon="4.49335">
        <ele>399.57</ele>
        <time>2011-01-08T11:57:15Z</time>
      </trkpt>
      <trkpt lat="46.06318" lon="4.49238">
        <ele>393.8</ele>
        <time>2011-01-08T11:57:26Z</time>
      </trkpt>
      <trkpt lat="46.06312" lon="4.49137">
        <ele>390.91</ele>
        <time>2011-01-08T11:59:26Z</time>
      </trkpt>
      <trkpt lat="46.06269" lon="4.49015">
        <ele>391.39</ele>
        <time>2011-01-08T11:59:33Z</time>
      </trkpt>
      <trkpt lat="46.06165" lon="4.49">
        <ele>392.84</ele>
        <time>2011-01-08T11:59:41Z</time>
      </trkpt>
      <trkpt lat="46.06064" lon="4.48974">
        <ele>391.87</ele>
        <time>2011-01-08T11:59:47Z</time>
      </trkpt>
      <trkpt lat="46.05997" lon="4.48952">
        <ele>391.87</ele>
        <time>2011-01-08T12:00:16Z</time>
      </trkpt>
      <trkpt lat="46.05911" lon="4.49011">
        <ele>393.8</ele>
        <time>2011-01-08T12:10:06Z</time>
      </trkpt>
      <trkpt lat="46.05819" lon="4.49063">
        <ele>393.32</ele>
        <time>2011-01-08T12:10:15Z</time>
      </trkpt>
      <trkpt lat="46.05733" lon="4.49115">
        <ele>394.76</ele>
        <time>2011-01-08T12:10:23Z</time>
      </trkpt>
      <trkpt lat="46.0565" lon="4.49183">
        <ele>392.36</ele>
        <time>2011-01-08T12:10:31Z</time>
      </trkpt>
      <trkpt lat="46.0556" lon="4.49246">
        <ele>391.87</ele>
        <time>2011-01-08T12:10:39Z</time>
      </trkpt>
      <trkpt lat="46.05482" lon="4.49341">
        <ele>391.39</ele>
        <time>2011-01-08T12:10:47Z</time>
      </trkpt>
      <trkpt lat="46.0539" lon="4.49374">
        <ele>391.87</ele>
        <time>2011-01-08T12:10:54Z</time>
      </trkpt>
      <trkpt lat="46.05301" lon="4.49368">
        <ele>394.76</ele>
        <time>2011-01-08T12:11:01Z</time>
      </trkpt>
      <trkpt lat="46.0524" lon="4.49267">
        <ele>401.01</ele>
        <time>2011-01-08T12:11:10Z</time>
      </trkpt>
      <trkpt lat="46.0517" lon="4.49176">
        <ele>407.74</ele>
        <time>2011-01-08T12:11:17Z</time>
      </trkpt>
      <trkpt lat="46.05121" lon="4.49072">
        <ele>414.47</ele>
        <time>2011-01-08T12:11:24Z</time>
      </trkpt>
      <trkpt lat="46.05115" lon="4.48935">
        <ele>426.96</ele>
        <time>2011-01-08T12:11:33Z</time>
      </trkpt>
      <trkpt lat="46.05068" lon="4.48811">
        <ele>444.75</ele>
        <time>2011-01-08T12:11:42Z</time>
      </trkpt>
      <trkpt lat="46.05043" lon="4.48687">
        <ele>450.52</ele>
        <time>2011-01-08T12:11:52Z</time>
      </trkpt>
      <trkpt lat="46.05055" lon="4.48562">
        <ele>456.76</ele>
        <time>2011-01-08T12:12:04Z</time>
      </trkpt>
      <trkpt lat="46.05049" lon="4.48433">
        <ele>468.3</ele>
        <time>2011-01-08T12:12:13Z</time>
      </trkpt>
      <trkpt lat="46.05114" lon="4.48345">
        <ele>487.53</ele>
        <time>2011-01-08T12:12:37Z</time>
      </trkpt>
      <trkpt lat="46.05184" lon="4.48276">
        <ele>504.83</ele>
        <time>2011-01-08T12:12:48Z</time>
      </trkpt>
      <trkpt lat="46.05135" lon="4.48171">
        <ele>522.61</ele>
        <time>2011-01-08T12:12:57Z</time>
      </trkpt>
      <trkpt lat="46.0515" lon="4.48042">
        <ele>534.15</ele>
        <time>2011-01-08T12:13:06Z</time>
      </trkpt>
      <trkpt lat="46.05149" lon="4.479">
        <ele>542.8</ele>
        <time>2011-01-08T12:13:16Z</time>
      </trkpt>
      <trkpt lat="46.05169" lon="4.47775">
        <ele>547.61</ele>
        <time>2011-01-08T12:13:25Z</time>
      </trkpt>
      <trkpt lat="46.05121" lon="4.47656">
        <ele>557.22</ele>
        <time>2011-01-08T12:13:38Z</time>
      </trkpt>
      <trkpt lat="46.05132" lon="4.47528">
        <ele>567.32</ele>
        <time>2011-01-08T12:13:46Z</time>
      </trkpt>
      <trkpt lat="46.05169" lon="4.47391">
        <ele>581.73</ele>
        <time>2011-01-08T12:13:55Z</time>
      </trkpt>
      <trkpt lat="46.05203" lon="4.47254">
        <ele>587.98</ele>
        <time>2011-01-08T12:14:02Z</time>
      </trkpt>
      <trkpt lat="46.05229" lon="4.47127">
        <ele>602.88</ele>
        <time>2011-01-08T12:14:11Z</time>
      </trkpt>
      <trkpt lat="46.05254" lon="4.46998">
        <ele>617.78</ele>
        <time>2011-01-08T12:14:25Z</time>
      </trkpt>
      <trkpt lat="46.05234" lon="4.46875">
        <ele>637.49</ele>
        <time>2011-01-08T12:14:42Z</time>
      </trkpt>
      <trkpt lat="46.05242" lon="4.46713">
        <ele>653.35</ele>
        <time>2011-01-08T12:14:56Z</time>
      </trkpt>
      <trkpt lat="46.0527" lon="4.46588">
        <ele>663.45</ele>
        <time>2011-01-08T12:15:06Z</time>
      </trkpt>
      <trkpt lat="46.05281" lon="4.46458">
        <ele>671.62</ele>
        <time>2011-01-08T12:18:14Z</time>
      </trkpt>
      <trkpt lat="46.05314" lon="4.46321">
        <ele>672.58</ele>
        <time>2011-01-08T12:18:24Z</time>
      </trkpt>
      <trkpt lat="46.05314" lon="4.46185">
        <ele>671.62</ele>
        <time>2011-01-08T12:18:32Z</time>
      </trkpt>
      <trkpt lat="46.05312" lon="4.46048">
        <ele>669.22</ele>
        <time>2011-01-08T12:18:40Z</time>
      </trkpt>
      <trkpt lat="46.05281" lon="4.45911">
        <ele>667.29</ele>
        <time>2011-01-08T12:18:48Z</time>
      </trkpt>
      <trkpt lat="46.05269" lon="4.45773">
        <ele>664.41</ele>
        <time>2011-01-08T12:18:56Z</time>
      </trkpt>
      <trkpt lat="46.05277" lon="4.45645">
        <ele>662.97</ele>
        <time>2011-01-08T12:19:10Z</time>
      </trkpt>
      <trkpt lat="46.053" lon="4.45511">
        <ele>671.14</ele>
        <time>2011-01-08T12:19:19Z</time>
      </trkpt>
      <trkpt lat="46.05327" lon="4.45362">
        <ele>677.87</ele>
        <time>2011-01-08T12:19:27Z</time>
      </trkpt>
      <trkpt lat="46.0535" lon="4.4523">
        <ele>683.63</ele>
        <time>2011-01-08T12:19:35Z</time>
      </trkpt>
      <trkpt lat="46.05307" lon="4.451">
        <ele>690.36</ele>
        <time>2011-01-08T12:19:43Z</time>
      </trkpt>
      <trkpt lat="46.05227" lon="4.45042">
        <ele>697.57</ele>
        <time>2011-01-08T12:19:51Z</time>
      </trkpt>
      <trkpt lat="46.05157" lon="4.44967">
        <ele>704.3</ele>
        <time>2011-01-08T12:20:00Z</time>
      </trkpt>
      <trkpt lat="46.05105" lon="4.44857">
        <ele>710.55</ele>
        <time>2011-01-08T12:20:09Z</time>
      </trkpt>
      <trkpt lat="46.05115" lon="4.44723">
        <ele>717.28</ele>
        <time>2011-01-08T12:20:18Z</time>
      </trkpt>
      <trkpt lat="46.05188" lon="4.44623">
        <ele>723.05</ele>
        <time>2011-01-08T12:20:26Z</time>
      </trkpt>
      <trkpt lat="46.0527" lon="4.4454">
        <ele>725.45</ele>
        <time>2011-01-08T12:20:33Z</time>
      </trkpt>
      <trkpt lat="46.05341" lon="4.44431">
        <ele>730.26</ele>
        <time>2011-01-08T12:20:40Z</time>
      </trkpt>
      <trkpt lat="46.05387" lon="4.44317">
        <ele>735.55</ele>
        <time>2011-01-08T12:20:47Z</time>
      </trkpt>
      <trkpt lat="46.05351" lon="4.44193">
        <ele>738.91</ele>
        <time>2011-01-08T12:20:55Z</time>
      </trkpt>
      <trkpt lat="46.05284" lon="4.44089">
        <ele>741.31</ele>
        <time>2011-01-08T12:21:02Z</time>
      </trkpt>
      <trkpt lat="46.0519" lon="4.44023">
        <ele>741.31</ele>
        <time>2011-01-08T12:21:09Z</time>
      </trkpt>
      <trkpt lat="46.0511" lon="4.43936">
        <ele>739.39</ele>
        <time>2011-01-08T12:21:16Z</time>
      </trkpt>
      <trkpt lat="46.05041" lon="4.43843">
        <ele>737.95</ele>
        <time>2011-01-08T12:21:23Z</time>
      </trkpt>
      <trkpt lat="46.04959" lon="4.43781">
        <ele>737.95</ele>
        <time>2011-01-08T12:21:30Z</time>
      </trkpt>
      <trkpt lat="46.04862" lon="4.43715">
        <ele>744.2</ele>
        <time>2011-01-08T12:21:37Z</time>
      </trkpt>
      <trkpt lat="46.0479" lon="4.43631">
        <ele>748.52</ele>
        <time>2011-01-08T12:21:44Z</time>
      </trkpt>
      <trkpt lat="46.0473" lon="4.43533">
        <ele>749</ele>
        <time>2011-01-08T12:21:51Z</time>
      </trkpt>
      <trkpt lat="46.0469" lon="4.43407">
        <ele>745.16</ele>
        <time>2011-01-08T12:21:59Z</time>
      </trkpt>
      <trkpt lat="46.04624" lon="4.43304">
        <ele>736.03</ele>
        <time>2011-01-08T12:22:09Z</time>
      </trkpt>
      <trkpt lat="46.04567" lon="4.43205">
        <ele>735.07</ele>
        <time>2011-01-08T12:22:19Z</time>
      </trkpt>
      <trkpt lat="46.04546" lon="4.43068">
        <ele>737.47</ele>
        <time>2011-01-08T12:22:28Z</time>
      </trkpt>
      <trkpt lat="46.04505" lon="4.42929">
        <ele>736.99</ele>
        <time>2011-01-08T12:22:37Z</time>
      </trkpt>
      <trkpt lat="46.04446" lon="4.4281">
        <ele>728.82</ele>
        <time>2011-01-08T12:22:45Z</time>
      </trkpt>
      <trkpt lat="46.04385" lon="4.42702">
        <ele>719.2</ele>
        <time>2011-01-08T12:22:53Z</time>
      </trkpt>
      <trkpt lat="46.04353" lon="4.42582">
        <ele>707.19</ele>
        <time>2011-01-08T12:23:02Z</time>
      </trkpt>
      <trkpt lat="46.0439" lon="4.42445">
        <ele>694.69</ele>
        <time>2011-01-08T12:23:12Z</time>
      </trkpt>
      <trkpt lat="46.04459" lon="4.42336">
        <ele>685.56</ele>
        <time>2011-01-08T12:23:21Z</time>
      </trkpt>
      <trkpt lat="46.04421" lon="4.4233">
        <ele>691.33</ele>
        <time>2011-01-08T12:23:53Z</time>
      </trkpt>
      <trkpt lat="46.0434" lon="4.42399">
        <ele>704.78</ele>
        <time>2011-01-08T12:24:09Z</time>
      </trkpt>
      <trkpt lat="46.04269" lon="4.42587">
        <ele>730.26</ele>
        <time>2011-01-08T12:24:30Z</time>
      </trkpt>
      <trkpt lat="46.04231" lon="4.42727">
        <ele>740.83</ele>
        <time>2011-01-08T12:24:47Z</time>
      </trkpt>
      <trkpt lat="46.04212" lon="4.42909">
        <ele>742.76</ele>
        <time>2011-01-08T12:25:04Z</time>
      </trkpt>
      <trkpt lat="46.04166" lon="4.4309">
        <ele>739.39</ele>
        <time>2011-01-08T12:25:16Z</time>
      </trkpt>
      <trkpt lat="46.0409" lon="4.43226">
        <ele>734.58</ele>
        <time>2011-01-08T12:25:29Z</time>
      </trkpt>
      <trkpt lat="46.04019" lon="4.43323">
        <ele>732.66</ele>
        <time>2011-01-08T12:25:41Z</time>
      </trkpt>
      <trkpt lat="46.03943" lon="4.43396">
        <ele>731.22</ele>
        <time>2011-01-08T12:25:54Z</time>
      </trkpt>
      <trkpt lat="46.0385" lon="4.43422">
        <ele>728.82</ele>
        <time>2011-01-08T12:26:13Z</time>
      </trkpt>
      <trkpt lat="46.03741" lon="4.43406">
        <ele>726.41</ele>
        <time>2011-01-08T12:26:24Z</time>
      </trkpt>
      <trkpt lat="46.03649" lon="4.43296">
        <ele>720.65</ele>
        <time>2011-01-08T12:26:33Z</time>
      </trkpt>
      <trkpt lat="46.0357" lon="4.43208">
        <ele>713.92</ele>
        <time>2011-01-08T12:26:41Z</time>
      </trkpt>
      <trkpt lat="46.03488" lon="4.43166">
        <ele>711.03</ele>
        <time>2011-01-08T12:26:57Z</time>
      </trkpt>
      <trkpt lat="46.03416" lon="4.43095">
        <ele>711.03</ele>
        <time>2011-01-08T12:27:12Z</time>
      </trkpt>
      <trkpt lat="46.03355" lon="4.42991">
        <ele>710.55</ele>
        <time>2011-01-08T12:27:23Z</time>
      </trkpt>
      <trkpt lat="46.03281" lon="4.42894">
        <ele>714.4</ele>
        <time>2011-01-08T12:27:40Z</time>
      </trkpt>
      <trkpt lat="46.03216" lon="4.42799">
        <ele>719.68</ele>
        <time>2011-01-08T12:27:48Z</time>
      </trkpt>
      <trkpt lat="46.03151" lon="4.42688">
        <ele>724.49</ele>
        <time>2011-01-08T12:27:56Z</time>
      </trkpt>
      <trkpt lat="46.03081" lon="4.42597">
        <ele>728.82</ele>
        <time>2011-01-08T12:28:03Z</time>
      </trkpt>
      <trkpt lat="46.03008" lon="4.42508">
        <ele>731.22</ele>
        <time>2011-01-08T12:28:10Z</time>
      </trkpt>
      <trkpt lat="46.02922" lon="4.4247">
        <ele>734.58</ele>
        <time>2011-01-08T12:28:17Z</time>
      </trkpt>
      <trkpt lat="46.02832" lon="4.4241">
        <ele>731.22</ele>
        <time>2011-01-08T12:28:24Z</time>
      </trkpt>
      <trkpt lat="46.02741" lon="4.42381">
        <ele>727.37</ele>
        <time>2011-01-08T12:28:32Z</time>
      </trkpt>
      <trkpt lat="46.02648" lon="4.42395">
        <ele>725.93</ele>
        <time>2011-01-08T12:28:41Z</time>
      </trkpt>
      <trkpt lat="46.02569" lon="4.42477">
        <ele>724.97</ele>
        <time>2011-01-08T12:28:49Z</time>
      </trkpt>
      <trkpt lat="46.02491" lon="4.42562">
        <ele>729.78</ele>
        <time>2011-01-08T12:28:56Z</time>
      </trkpt>
      <trkpt lat="46.02433" lon="4.42674">
        <ele>733.14</ele>
        <time>2011-01-08T12:29:03Z</time>
      </trkpt>
      <trkpt lat="46.02359" lon="4.42751">
        <ele>738.43</ele>
        <time>2011-01-08T12:29:10Z</time>
      </trkpt>
      <trkpt lat="46.0227" lon="4.42796">
        <ele>746.6</ele>
        <time>2011-01-08T12:29:19Z</time>
      </trkpt>
      <trkpt lat="46.02168" lon="4.42799">
        <ele>753.33</ele>
        <time>2011-01-08T12:29:31Z</time>
      </trkpt>
      <trkpt lat="46.02029" lon="4.42781">
        <ele>754.77</ele>
        <time>2011-01-08T12:29:42Z</time>
      </trkpt>
      <trkpt lat="46.01927" lon="4.42797">
        <ele>765.35</ele>
        <time>2011-01-08T12:29:52Z</time>
      </trkpt>
      <trkpt lat="46.01801" lon="4.42748">
        <ele>769.19</ele>
        <time>2011-01-08T12:30:03Z</time>
      </trkpt>
      <trkpt lat="46.01699" lon="4.42665">
        <ele>777.84</ele>
        <time>2011-01-08T12:30:19Z</time>
      </trkpt>
      <trkpt lat="46.01611" lon="4.42545">
        <ele>783.13</ele>
        <time>2011-01-08T12:30:29Z</time>
      </trkpt>
      <trkpt lat="46.01532" lon="4.42482">
        <ele>783.13</ele>
        <time>2011-01-08T12:30:36Z</time>
      </trkpt>
      <trkpt lat="46.01432" lon="4.42438">
        <ele>788.42</ele>
        <time>2011-01-08T12:30:43Z</time>
      </trkpt>
      <trkpt lat="46.01336" lon="4.42423">
        <ele>801.4</ele>
        <time>2011-01-08T12:30:51Z</time>
      </trkpt>
      <trkpt lat="46.01243" lon="4.42403">
        <ele>796.11</ele>
        <time>2011-01-08T12:31:00Z</time>
      </trkpt>
      <trkpt lat="46.01151" lon="4.42349">
        <ele>780.25</ele>
        <time>2011-01-08T12:31:10Z</time>
      </trkpt>
      <trkpt lat="46.01051" lon="4.42329">
        <ele>765.35</ele>
        <time>2011-01-08T12:31:19Z</time>
      </trkpt>
      <trkpt lat="46.00954" lon="4.42275">
        <ele>760.54</ele>
        <time>2011-01-08T12:31:27Z</time>
      </trkpt>
      <trkpt lat="46.00865" lon="4.42214">
        <ele>761.5</ele>
        <time>2011-01-08T12:31:34Z</time>
      </trkpt>
      <trkpt lat="46.00787" lon="4.42157">
        <ele>761.5</ele>
        <time>2011-01-08T12:31:42Z</time>
      </trkpt>
      <trkpt lat="46.00674" lon="4.42225">
        <ele>767.27</ele>
        <time>2011-01-08T12:33:13Z</time>
      </trkpt>
      <trkpt lat="46.00565" lon="4.42273">
        <ele>763.42</ele>
        <time>2011-01-08T12:33:25Z</time>
      </trkpt>
      <trkpt lat="46.00446" lon="4.42317">
        <ele>760.06</ele>
        <time>2011-01-08T12:33:34Z</time>
      </trkpt>
      <trkpt lat="46.00358" lon="4.42306">
        <ele>760.06</ele>
        <time>2011-01-08T12:34:00Z</time>
      </trkpt>
      <trkpt lat="46.0033" lon="4.42165">
        <ele>764.87</ele>
        <time>2011-01-08T12:34:15Z</time>
      </trkpt>
      <trkpt lat="46.00244" lon="4.42044">
        <ele>774.48</ele>
        <time>2011-01-08T12:34:34Z</time>
      </trkpt>
      <trkpt lat="46.00116" lon="4.42032">
        <ele>785.05</ele>
        <time>2011-01-08T12:34:47Z</time>
      </trkpt>
      <trkpt lat="46.00013" lon="4.41963">
        <ele>788.42</ele>
        <time>2011-01-08T12:35:02Z</time>
      </trkpt>
      <trkpt lat="45.99913" lon="4.41918">
        <ele>779.77</ele>
        <time>2011-01-08T12:35:18Z</time>
      </trkpt>
      <trkpt lat="45.99813" lon="4.41911">
        <ele>776.88</ele>
        <time>2011-01-08T12:35:35Z</time>
      </trkpt>
      <trkpt lat="45.99718" lon="4.41885">
        <ele>787.94</ele>
        <time>2011-01-08T12:35:47Z</time>
      </trkpt>
      <trkpt lat="45.99614" lon="4.41894">
        <ele>791.78</ele>
        <time>2011-01-08T12:35:56Z</time>
      </trkpt>
      <trkpt lat="45.99514" lon="4.41847">
        <ele>796.11</ele>
        <time>2011-01-08T12:36:03Z</time>
      </trkpt>
      <trkpt lat="45.99425" lon="4.41866">
        <ele>798.51</ele>
        <time>2011-01-08T12:36:14Z</time>
      </trkpt>
      <trkpt lat="45.99337" lon="4.41924">
        <ele>798.03</ele>
        <time>2011-01-08T12:36:22Z</time>
      </trkpt>
      <trkpt lat="45.99263" lon="4.41998">
        <ele>804.76</ele>
        <time>2011-01-08T12:36:30Z</time>
      </trkpt>
      <trkpt lat="45.99227" lon="4.42127">
        <ele>814.85</ele>
        <time>2011-01-08T12:36:39Z</time>
      </trkpt>
      <trkpt lat="45.99206" lon="4.42272">
        <ele>828.79</ele>
        <time>2011-01-08T12:36:47Z</time>
      </trkpt>
      <trkpt lat="45.99165" lon="4.42404">
        <ele>835.04</ele>
        <time>2011-01-08T12:36:58Z</time>
      </trkpt>
      <trkpt lat="45.99091" lon="4.42514">
        <ele>824.95</ele>
        <time>2011-01-08T12:37:09Z</time>
      </trkpt>
      <trkpt lat="45.99031" lon="4.42625">
        <ele>809.09</ele>
        <time>2011-01-08T12:37:21Z</time>
      </trkpt>
      <trkpt lat="45.98996" lon="4.42766">
        <ele>794.67</ele>
        <time>2011-01-08T12:37:33Z</time>
      </trkpt>
      <trkpt lat="45.98936" lon="4.42879">
        <ele>788.42</ele>
        <time>2011-01-08T12:37:42Z</time>
      </trkpt>
      <trkpt lat="45.98902" lon="4.43017">
        <ele>776.4</ele>
        <time>2011-01-08T12:37:52Z</time>
      </trkpt>
      <trkpt lat="45.98821" lon="4.43113">
        <ele>761.02</ele>
        <time>2011-01-08T12:38:02Z</time>
      </trkpt>
      <trkpt lat="45.98712" lon="4.43161">
        <ele>747.56</ele>
        <time>2011-01-08T12:38:13Z</time>
      </trkpt>
      <trkpt lat="45.98639" lon="4.43261">
        <ele>746.12</ele>
        <time>2011-01-08T12:38:21Z</time>
      </trkpt>
      <trkpt lat="45.98581" lon="4.43366">
        <ele>749.97</ele>
        <time>2011-01-08T12:38:28Z</time>
      </trkpt>
      <trkpt lat="45.98546" lon="4.43497">
        <ele>747.08</ele>
        <time>2011-01-08T12:38:37Z</time>
      </trkpt>
      <trkpt lat="45.98532" lon="4.43633">
        <ele>738.91</ele>
        <time>2011-01-08T12:38:52Z</time>
      </trkpt>
      <trkpt lat="45.98507" lon="4.43782">
        <ele>732.18</ele>
        <time>2011-01-08T12:39:02Z</time>
      </trkpt>
      <trkpt lat="45.98473" lon="4.43785">
        <ele>727.86</ele>
        <time>2011-01-08T12:39:30Z</time>
      </trkpt>
      <trkpt lat="45.98469" lon="4.43635">
        <ele>723.53</ele>
        <time>2011-01-08T12:39:39Z</time>
      </trkpt>
      <trkpt lat="45.9842" lon="4.4351">
        <ele>718.24</ele>
        <time>2011-01-08T12:39:47Z</time>
      </trkpt>
      <trkpt lat="45.98383" lon="4.43383">
        <ele>712.47</ele>
        <time>2011-01-08T12:39:55Z</time>
      </trkpt>
      <trkpt lat="45.98436" lon="4.43249">
        <ele>709.59</ele>
        <time>2011-01-08T12:40:02Z</time>
      </trkpt>
      <trkpt lat="45.98498" lon="4.43135">
        <ele>703.82</ele>
        <time>2011-01-08T12:40:09Z</time>
      </trkpt>
      <trkpt lat="45.98461" lon="4.4302">
        <ele>703.82</ele>
        <time>2011-01-08T12:40:17Z</time>
      </trkpt>
      <trkpt lat="45.98407" lon="4.42918">
        <ele>701.9</ele>
        <time>2011-01-08T12:40:23Z</time>
      </trkpt>
      <trkpt lat="45.98325" lon="4.42881">
        <ele>702.86</ele>
        <time>2011-01-08T12:40:30Z</time>
      </trkpt>
      <trkpt lat="45.9826" lon="4.42987">
        <ele>706.71</ele>
        <time>2011-01-08T12:40:38Z</time>
      </trkpt>
      <trkpt lat="45.98174" lon="4.43034">
        <ele>707.19</ele>
        <time>2011-01-08T12:40:45Z</time>
      </trkpt>
      <trkpt lat="45.98075" lon="4.43052">
        <ele>707.67</ele>
        <time>2011-01-08T12:40:52Z</time>
      </trkpt>
      <trkpt lat="45.97987" lon="4.43024">
        <ele>708.15</ele>
        <time>2011-01-08T12:40:58Z</time>
      </trkpt>
      <trkpt lat="45.97919" lon="4.42945">
        <ele>708.15</ele>
        <time>2011-01-08T12:41:04Z</time>
      </trkpt>
      <trkpt lat="45.97885" lon="4.42817">
        <ele>703.82</ele>
        <time>2011-01-08T12:41:10Z</time>
      </trkpt>
      <trkpt lat="45.97876" lon="4.42675">
        <ele>701.42</ele>
        <time>2011-01-08T12:41:16Z</time>
      </trkpt>
      <trkpt lat="45.97892" lon="4.42547">
        <ele>696.61</ele>
        <time>2011-01-08T12:41:22Z</time>
      </trkpt>
      <trkpt lat="45.97929" lon="4.42425">
        <ele>694.21</ele>
        <time>2011-01-08T12:41:28Z</time>
      </trkpt>
      <trkpt lat="45.9787" lon="4.42365">
        <ele>693.25</ele>
        <time>2011-01-08T12:41:37Z</time>
      </trkpt>
      <trkpt lat="45.97774" lon="4.42352">
        <ele>692.77</ele>
        <time>2011-01-08T12:41:44Z</time>
      </trkpt>
      <trkpt lat="45.97684" lon="4.42344">
        <ele>691.81</ele>
        <time>2011-01-08T12:41:56Z</time>
      </trkpt>
      <trkpt lat="45.97688" lon="4.42348">
        <ele>691.33</ele>
        <time>2011-01-08T12:42:52Z</time>
      </trkpt>
      <trkpt lat="45.97688" lon="4.42348">
        <ele>694.21</ele>
        <time>2011-01-08T14:18:23Z</time>
      </trkpt>
      <trkpt lat="45.97678" lon="4.42349">
        <ele>694.21</ele>
        <time>2011-01-08T14:19:34Z</time>
      </trkpt>
      <trkpt lat="45.97767" lon="4.42356">
        <ele>707.67</ele>
        <time>2011-01-08T14:23:25Z</time>
      </trkpt>
      <trkpt lat="45.97863" lon="4.42372">
        <ele>708.15</ele>
        <time>2011-01-08T14:23:47Z</time>
      </trkpt>
      <trkpt lat="45.9793" lon="4.42428">
        <ele>709.59</ele>
        <time>2011-01-08T14:23:57Z</time>
      </trkpt>
      <trkpt lat="45.97891" lon="4.42554">
        <ele>711.03</ele>
        <time>2011-01-08T14:24:05Z</time>
      </trkpt>
      <trkpt lat="45.97876" lon="4.42691">
        <ele>715.36</ele>
        <time>2011-01-08T14:24:13Z</time>
      </trkpt>
      <trkpt lat="45.97886" lon="4.42821">
        <ele>719.2</ele>
        <time>2011-01-08T14:24:20Z</time>
      </trkpt>
      <trkpt lat="45.97922" lon="4.42949">
        <ele>723.05</ele>
        <time>2011-01-08T14:24:27Z</time>
      </trkpt>
      <trkpt lat="45.98005" lon="4.43034">
        <ele>723.53</ele>
        <time>2011-01-08T14:24:34Z</time>
      </trkpt>
      <trkpt lat="45.98102" lon="4.43055">
        <ele>723.05</ele>
        <time>2011-01-08T14:24:41Z</time>
      </trkpt>
      <trkpt lat="45.98199" lon="4.43033">
        <ele>722.57</ele>
        <time>2011-01-08T14:24:48Z</time>
      </trkpt>
      <trkpt lat="45.98276" lon="4.42968">
        <ele>721.13</ele>
        <time>2011-01-08T14:24:55Z</time>
      </trkpt>
      <trkpt lat="45.98348" lon="4.42882">
        <ele>719.2</ele>
        <time>2011-01-08T14:25:02Z</time>
      </trkpt>
      <trkpt lat="45.98426" lon="4.4295">
        <ele>717.76</ele>
        <time>2011-01-08T14:25:09Z</time>
      </trkpt>
      <trkpt lat="45.98482" lon="4.43059">
        <ele>719.68</ele>
        <time>2011-01-08T14:25:16Z</time>
      </trkpt>
      <trkpt lat="45.98479" lon="4.43177">
        <ele>721.13</ele>
        <time>2011-01-08T14:25:24Z</time>
      </trkpt>
      <trkpt lat="45.98415" lon="4.43286">
        <ele>724.97</ele>
        <time>2011-01-08T14:25:31Z</time>
      </trkpt>
      <trkpt lat="45.9838" lon="4.43404">
        <ele>729.3</ele>
        <time>2011-01-08T14:25:38Z</time>
      </trkpt>
      <trkpt lat="45.9842" lon="4.4352">
        <ele>733.14</ele>
        <time>2011-01-08T14:25:45Z</time>
      </trkpt>
      <trkpt lat="45.98466" lon="4.43638">
        <ele>736.99</ele>
        <time>2011-01-08T14:25:52Z</time>
      </trkpt>
      <trkpt lat="45.9847" lon="4.43779">
        <ele>742.28</ele>
        <time>2011-01-08T14:25:59Z</time>
      </trkpt>
      <trkpt lat="45.98493" lon="4.43901">
        <ele>742.76</ele>
        <time>2011-01-08T14:26:09Z</time>
      </trkpt>
      <trkpt lat="45.98506" lon="4.4404">
        <ele>736.99</ele>
        <time>2011-01-08T14:26:18Z</time>
      </trkpt>
      <trkpt lat="45.98525" lon="4.44174">
        <ele>742.76</ele>
        <time>2011-01-08T14:26:26Z</time>
      </trkpt>
      <trkpt lat="45.98546" lon="4.44305">
        <ele>754.77</ele>
        <time>2011-01-08T14:26:35Z</time>
      </trkpt>
      <trkpt lat="45.98535" lon="4.44444">
        <ele>762.94</ele>
        <time>2011-01-08T14:26:44Z</time>
      </trkpt>
      <trkpt lat="45.98557" lon="4.44574">
        <ele>766.31</ele>
        <time>2011-01-08T14:26:52Z</time>
      </trkpt>
      <trkpt lat="45.98594" lon="4.44692">
        <ele>773.04</ele>
        <time>2011-01-08T14:26:59Z</time>
      </trkpt>
      <trkpt lat="45.98609" lon="4.44831">
        <ele>775.44</ele>
        <time>2011-01-08T14:27:07Z</time>
      </trkpt>
      <trkpt lat="45.98555" lon="4.44924">
        <ele>780.25</ele>
        <time>2011-01-08T14:27:19Z</time>
      </trkpt>
      <trkpt lat="45.98598" lon="4.45033">
        <ele>763.9</ele>
        <time>2011-01-08T14:27:45Z</time>
      </trkpt>
      <trkpt lat="45.98626" lon="4.4516">
        <ele>758.62</ele>
        <time>2011-01-08T14:27:56Z</time>
      </trkpt>
      <trkpt lat="45.98693" lon="4.45257">
        <ele>762.94</ele>
        <time>2011-01-08T14:28:06Z</time>
      </trkpt>
      <trkpt lat="45.98774" lon="4.4533">
        <ele>763.42</ele>
        <time>2011-01-08T14:28:18Z</time>
      </trkpt>
      <trkpt lat="45.9885" lon="4.45398">
        <ele>754.77</ele>
        <time>2011-01-08T14:28:34Z</time>
      </trkpt>
      <trkpt lat="45.98899" lon="4.45518">
        <ele>733.14</ele>
        <time>2011-01-08T14:28:55Z</time>
      </trkpt>
      <trkpt lat="45.98954" lon="4.45625">
        <ele>712.47</ele>
        <time>2011-01-08T14:29:11Z</time>
      </trkpt>
      <trkpt lat="45.9902" lon="4.45732">
        <ele>699.02</ele>
        <time>2011-01-08T14:29:22Z</time>
      </trkpt>
      <trkpt lat="45.99078" lon="4.45832">
        <ele>688.92</ele>
        <time>2011-01-08T14:29:34Z</time>
      </trkpt>
      <trkpt lat="45.9916" lon="4.45893">
        <ele>686.52</ele>
        <time>2011-01-08T14:29:46Z</time>
      </trkpt>
      <trkpt lat="45.99253" lon="4.4591">
        <ele>674.98</ele>
        <time>2011-01-08T14:30:00Z</time>
      </trkpt>
      <trkpt lat="45.99339" lon="4.45961">
        <ele>657.68</ele>
        <time>2011-01-08T14:30:20Z</time>
      </trkpt>
      <trkpt lat="45.9932" lon="4.46076">
        <ele>654.8</ele>
        <time>2011-01-08T14:30:33Z</time>
      </trkpt>
      <trkpt lat="45.99236" lon="4.46121">
        <ele>654.31</ele>
        <time>2011-01-08T14:30:46Z</time>
      </trkpt>
      <trkpt lat="45.99148" lon="4.46148">
        <ele>646.62</ele>
        <time>2011-01-08T14:30:55Z</time>
      </trkpt>
      <trkpt lat="45.99064" lon="4.46217">
        <ele>640.38</ele>
        <time>2011-01-08T14:31:04Z</time>
      </trkpt>
      <trkpt lat="45.98979" lon="4.462">
        <ele>628.36</ele>
        <time>2011-01-08T14:31:15Z</time>
      </trkpt>
      <trkpt lat="45.98899" lon="4.46133">
        <ele>613.46</ele>
        <time>2011-01-08T14:31:26Z</time>
      </trkpt>
      <trkpt lat="45.98826" lon="4.46044">
        <ele>599.52</ele>
        <time>2011-01-08T14:31:38Z</time>
      </trkpt>
      <trkpt lat="45.98754" lon="4.46062">
        <ele>592.31</ele>
        <time>2011-01-08T14:31:52Z</time>
      </trkpt>
      <trkpt lat="45.98741" lon="4.46193">
        <ele>587.02</ele>
        <time>2011-01-08T14:32:04Z</time>
      </trkpt>
      <trkpt lat="45.9879" lon="4.46323">
        <ele>574.04</ele>
        <time>2011-01-08T14:32:17Z</time>
      </trkpt>
      <trkpt lat="45.98836" lon="4.46441">
        <ele>565.87</ele>
        <time>2011-01-08T14:32:29Z</time>
      </trkpt>
      <trkpt lat="45.98884" lon="4.46564">
        <ele>563.95</ele>
        <time>2011-01-08T14:32:38Z</time>
      </trkpt>
      <trkpt lat="45.98919" lon="4.46689">
        <ele>562.51</ele>
        <time>2011-01-08T14:32:47Z</time>
      </trkpt>
      <trkpt lat="45.98972" lon="4.46813">
        <ele>565.39</ele>
        <time>2011-01-08T14:32:57Z</time>
      </trkpt>
      <trkpt lat="45.98983" lon="4.46946">
        <ele>563.95</ele>
        <time>2011-01-08T14:33:08Z</time>
      </trkpt>
      <trkpt lat="45.98972" lon="4.47089">
        <ele>552.9</ele>
        <time>2011-01-08T14:33:18Z</time>
      </trkpt>
      <trkpt lat="45.98988" lon="4.47223">
        <ele>546.17</ele>
        <time>2011-01-08T14:33:27Z</time>
      </trkpt>
      <trkpt lat="45.9903" lon="4.47343">
        <ele>537.99</ele>
        <time>2011-01-08T14:33:36Z</time>
      </trkpt>
      <trkpt lat="45.99093" lon="4.47455">
        <ele>531.27</ele>
        <time>2011-01-08T14:33:46Z</time>
      </trkpt>
      <trkpt lat="45.9916" lon="4.47549">
        <ele>520.69</ele>
        <time>2011-01-08T14:33:56Z</time>
      </trkpt>
      <trkpt lat="45.99215" lon="4.47662">
        <ele>512.04</ele>
        <time>2011-01-08T14:34:06Z</time>
      </trkpt>
      <trkpt lat="45.99228" lon="4.47781">
        <ele>495.7</ele>
        <time>2011-01-08T14:34:37Z</time>
      </trkpt>
      <trkpt lat="45.99291" lon="4.47673">
        <ele>474.55</ele>
        <time>2011-01-08T14:34:59Z</time>
      </trkpt>
      <trkpt lat="45.99319" lon="4.47599">
        <ele>472.14</ele>
        <time>2011-01-08T14:35:19Z</time>
      </trkpt>
      <trkpt lat="45.9938" lon="4.47704">
        <ele>476.47</ele>
        <time>2011-01-08T14:35:30Z</time>
      </trkpt>
      <trkpt lat="45.99427" lon="4.47816">
        <ele>481.28</ele>
        <time>2011-01-08T14:35:41Z</time>
      </trkpt>
      <trkpt lat="45.99462" lon="4.47946">
        <ele>480.32</ele>
        <time>2011-01-08T14:35:53Z</time>
      </trkpt>
      <trkpt lat="45.99513" lon="4.48057">
        <ele>482.24</ele>
        <time>2011-01-08T14:36:05Z</time>
      </trkpt>
      <trkpt lat="45.99578" lon="4.48148">
        <ele>486.56</ele>
        <time>2011-01-08T14:36:18Z</time>
      </trkpt>
      <trkpt lat="45.99639" lon="4.48277">
        <ele>495.7</ele>
        <time>2011-01-08T14:36:47Z</time>
      </trkpt>
      <trkpt lat="45.99741" lon="4.48229">
        <ele>472.14</ele>
        <time>2011-01-08T14:37:07Z</time>
      </trkpt>
      <trkpt lat="45.99862" lon="4.48195">
        <ele>452.44</ele>
        <time>2011-01-08T14:37:28Z</time>
      </trkpt>
      <trkpt lat="45.99942" lon="4.48074">
        <ele>430.33</ele>
        <time>2011-01-08T14:37:59Z</time>
      </trkpt>
      <trkpt lat="45.99978" lon="4.48204">
        <ele>426.48</ele>
        <time>2011-01-08T14:38:11Z</time>
      </trkpt>
      <trkpt lat="45.99963" lon="4.48332">
        <ele>422.64</ele>
        <time>2011-01-08T14:38:20Z</time>
      </trkpt>
      <trkpt lat="45.99885" lon="4.48389">
        <ele>419.27</ele>
        <time>2011-01-08T14:38:30Z</time>
      </trkpt>
      <trkpt lat="45.99837" lon="4.48446">
        <ele>413.02</ele>
        <time>2011-01-08T14:38:41Z</time>
      </trkpt>
      <trkpt lat="45.99877" lon="4.4856">
        <ele>406.77</ele>
        <time>2011-01-08T14:38:48Z</time>
      </trkpt>
      <trkpt lat="45.99946" lon="4.48678">
        <ele>403.41</ele>
        <time>2011-01-08T14:38:55Z</time>
      </trkpt>
      <trkpt lat="45.9998" lon="4.48804">
        <ele>401.49</ele>
        <time>2011-01-08T14:39:02Z</time>
      </trkpt>
      <trkpt lat="45.99978" lon="4.48933">
        <ele>397.16</ele>
        <time>2011-01-08T14:39:09Z</time>
      </trkpt>
      <trkpt lat="45.99963" lon="4.49071">
        <ele>388.99</ele>
        <time>2011-01-08T14:39:17Z</time>
      </trkpt>
      <trkpt lat="45.99941" lon="4.49205">
        <ele>382.26</ele>
        <time>2011-01-08T14:39:26Z</time>
      </trkpt>
      <trkpt lat="45.99937" lon="4.49334">
        <ele>373.13</ele>
        <time>2011-01-08T14:39:38Z</time>
      </trkpt>
      <trkpt lat="45.99919" lon="4.49465">
        <ele>365.92</ele>
        <time>2011-01-08T14:39:54Z</time>
      </trkpt>
      <trkpt lat="45.99873" lon="4.49587">
        <ele>357.27</ele>
        <time>2011-01-08T14:40:10Z</time>
      </trkpt>
      <trkpt lat="45.99811" lon="4.49694">
        <ele>349.1</ele>
        <time>2011-01-08T14:40:18Z</time>
      </trkpt>
      <trkpt lat="45.99721" lon="4.49773">
        <ele>341.41</ele>
        <time>2011-01-08T14:40:24Z</time>
      </trkpt>
      <trkpt lat="45.9965" lon="4.49859">
        <ele>336.12</ele>
        <time>2011-01-08T14:40:31Z</time>
      </trkpt>
      <trkpt lat="45.99639" lon="4.49969">
        <ele>332.27</ele>
        <time>2011-01-08T14:40:46Z</time>
      </trkpt>
      <trkpt lat="45.99578" lon="4.50056">
        <ele>329.39</ele>
        <time>2011-01-08T14:54:27Z</time>
      </trkpt>
      <trkpt lat="45.99662" lon="4.50093">
        <ele>356.31</ele>
        <time>2011-01-08T14:54:44Z</time>
      </trkpt>
      <trkpt lat="45.99727" lon="4.50159">
        <ele>387.55</ele>
        <time>2011-01-08T14:55:17Z</time>
      </trkpt>
      <trkpt lat="45.99799" lon="4.5024">
        <ele>415.43</ele>
        <time>2011-01-08T14:55:34Z</time>
      </trkpt>
      <trkpt lat="45.99867" lon="4.50333">
        <ele>450.52</ele>
        <time>2011-01-08T14:55:58Z</time>
      </trkpt>
      <trkpt lat="45.99926" lon="4.50437">
        <ele>484.64</ele>
        <time>2011-01-08T14:56:18Z</time>
      </trkpt>
      <trkpt lat="45.99971" lon="4.50553">
        <ele>503.39</ele>
        <time>2011-01-08T14:56:31Z</time>
      </trkpt>
      <trkpt lat="46.00027" lon="4.5062">
        <ele>516.37</ele>
        <time>2011-01-08T14:58:22Z</time>
      </trkpt>
      <trkpt lat="46.00078" lon="4.50738">
        <ele>525.98</ele>
        <time>2011-01-08T14:58:34Z</time>
      </trkpt>
      <trkpt lat="46.00082" lon="4.50866">
        <ele>537.51</ele>
        <time>2011-01-08T14:58:49Z</time>
      </trkpt>
      <trkpt lat="46.00046" lon="4.50982">
        <ele>556.74</ele>
        <time>2011-01-08T15:08:56Z</time>
      </trkpt>
      <trkpt lat="46.00012" lon="4.51107">
        <ele>568.76</ele>
        <time>2011-01-08T15:09:05Z</time>
      </trkpt>
      <trkpt lat="45.99993" lon="4.51248">
        <ele>567.8</ele>
        <time>2011-01-08T15:09:13Z</time>
      </trkpt>
      <trkpt lat="45.99998" lon="4.51379">
        <ele>582.7</ele>
        <time>2011-01-08T15:09:21Z</time>
      </trkpt>
      <trkpt lat="45.99951" lon="4.51489">
        <ele>600.96</ele>
        <time>2011-01-08T15:09:31Z</time>
      </trkpt>
      <trkpt lat="45.99922" lon="4.51608">
        <ele>617.78</ele>
        <time>2011-01-08T15:09:40Z</time>
      </trkpt>
      <trkpt lat="45.99874" lon="4.51712">
        <ele>641.34</ele>
        <time>2011-01-08T15:09:53Z</time>
      </trkpt>
      <trkpt lat="45.99902" lon="4.51765">
        <ele>639.89</ele>
        <time>2011-01-08T15:12:51Z</time>
      </trkpt>
      <trkpt lat="45.99923" lon="4.51892">
        <ele>641.82</ele>
        <time>2011-01-08T15:13:01Z</time>
      </trkpt>
      <trkpt lat="45.99913" lon="4.52026">
        <ele>651.91</ele>
        <time>2011-01-08T15:13:10Z</time>
      </trkpt>
      <trkpt lat="45.99878" lon="4.52147">
        <ele>649.51</ele>
        <time>2011-01-08T15:13:20Z</time>
      </trkpt>
      <trkpt lat="45.99867" lon="4.52275">
        <ele>637.01</ele>
        <time>2011-01-08T15:13:32Z</time>
      </trkpt>
      <trkpt lat="45.99859" lon="4.5235">
        <ele>624.03</ele>
        <time>2011-01-08T15:13:48Z</time>
      </trkpt>
      <trkpt lat="45.99768" lon="4.52338">
        <ele>611.06</ele>
        <time>2011-01-08T15:13:59Z</time>
      </trkpt>
      <trkpt lat="45.99692" lon="4.52343">
        <ele>594.71</ele>
        <time>2011-01-08T15:14:16Z</time>
      </trkpt>
      <trkpt lat="45.99774" lon="4.52409">
        <ele>592.31</ele>
        <time>2011-01-08T15:14:27Z</time>
      </trkpt>
      <trkpt lat="45.99788" lon="4.5253">
        <ele>593.27</ele>
        <time>2011-01-08T15:14:36Z</time>
      </trkpt>
      <trkpt lat="45.99728" lon="4.52633">
        <ele>594.23</ele>
        <time>2011-01-08T15:14:43Z</time>
      </trkpt>
      <trkpt lat="45.99697" lon="4.52764">
        <ele>595.19</ele>
        <time>2011-01-08T15:14:51Z</time>
      </trkpt>
      <trkpt lat="45.99661" lon="4.52869">
        <ele>604.33</ele>
        <time>2011-01-08T15:14:59Z</time>
      </trkpt>
      <trkpt lat="45.99573" lon="4.52932">
        <ele>613.94</ele>
        <time>2011-01-08T15:15:07Z</time>
      </trkpt>
      <trkpt lat="45.99486" lon="4.52945">
        <ele>615.38</ele>
        <time>2011-01-08T15:15:19Z</time>
      </trkpt>
      <trkpt lat="45.99392" lon="4.5295">
        <ele>619.23</ele>
        <time>2011-01-08T15:15:32Z</time>
      </trkpt>
      <trkpt lat="45.99302" lon="4.52986">
        <ele>602.88</ele>
        <time>2011-01-08T15:15:44Z</time>
      </trkpt>
      <trkpt lat="45.99217" lon="4.53005">
        <ele>597.12</ele>
        <time>2011-01-08T15:15:55Z</time>
      </trkpt>
      <trkpt lat="45.99142" lon="4.52992">
        <ele>585.1</ele>
        <time>2011-01-08T15:16:08Z</time>
      </trkpt>
      <trkpt lat="45.99073" lon="4.52931">
        <ele>570.68</ele>
        <time>2011-01-08T15:16:21Z</time>
      </trkpt>
      <trkpt lat="45.99002" lon="4.52997">
        <ele>554.34</ele>
        <time>2011-01-08T15:16:43Z</time>
      </trkpt>
      <trkpt lat="45.9909" lon="4.53054">
        <ele>545.2</ele>
        <time>2011-01-08T15:17:02Z</time>
      </trkpt>
      <trkpt lat="45.99125" lon="4.53177">
        <ele>537.03</ele>
        <time>2011-01-08T15:17:15Z</time>
      </trkpt>
      <trkpt lat="45.99229" lon="4.53183">
        <ele>522.13</ele>
        <time>2011-01-08T15:17:32Z</time>
      </trkpt>
      <trkpt lat="45.9934" lon="4.53201">
        <ele>508.19</ele>
        <time>2011-01-08T15:17:50Z</time>
      </trkpt>
      <trkpt lat="45.99441" lon="4.53255">
        <ele>503.39</ele>
        <time>2011-01-08T15:18:05Z</time>
      </trkpt>
      <trkpt lat="45.9953" lon="4.53294">
        <ele>483.68</ele>
        <time>2011-01-08T15:18:45Z</time>
      </trkpt>
      <trkpt lat="45.99529" lon="4.53298">
        <ele>483.68</ele>
        <time>2011-01-08T15:20:21Z</time>
      </trkpt>
      <trkpt lat="45.99495" lon="4.53174">
        <ele>523.58</ele>
        <time>2011-01-08T15:25:34Z</time>
      </trkpt>
      <trkpt lat="45.99412" lon="4.5319">
        <ele>529.82</ele>
        <time>2011-01-08T15:28:11Z</time>
      </trkpt>
      <trkpt lat="45.9933" lon="4.53146">
        <ele>525.02</ele>
        <time>2011-01-08T15:28:25Z</time>
      </trkpt>
      <trkpt lat="45.9924" lon="4.53133">
        <ele>534.63</ele>
        <time>2011-01-08T15:28:41Z</time>
      </trkpt>
      <trkpt lat="45.99138" lon="4.5316">
        <ele>536.55</ele>
        <time>2011-01-08T15:29:01Z</time>
      </trkpt>
      <trkpt lat="45.99222" lon="4.53178">
        <ele>521.17</ele>
        <time>2011-01-08T15:29:37Z</time>
      </trkpt>
      <trkpt lat="45.99336" lon="4.53192">
        <ele>505.79</ele>
        <time>2011-01-08T15:29:56Z</time>
      </trkpt>
      <trkpt lat="45.99428" lon="4.53244">
        <ele>503.39</ele>
        <time>2011-01-08T15:30:13Z</time>
      </trkpt>
      <trkpt lat="45.99519" lon="4.53268">
        <ele>492.33</ele>
        <time>2011-01-08T15:32:56Z</time>
      </trkpt>
      <trkpt lat="45.99535" lon="4.53399">
        <ele>463.01</ele>
        <time>2011-01-08T15:34:41Z</time>
      </trkpt>
      <trkpt lat="45.99641" lon="4.53498">
        <ele>474.07</ele>
        <time>2011-01-08T15:35:50Z</time>
      </trkpt>
      <trkpt lat="45.99727" lon="4.53594">
        <ele>485.12</ele>
        <time>2011-01-08T15:36:02Z</time>
      </trkpt>
      <trkpt lat="45.99838" lon="4.53659">
        <ele>493.77</ele>
        <time>2011-01-08T15:36:23Z</time>
      </trkpt>
      <trkpt lat="45.99966" lon="4.53747">
        <ele>521.17</ele>
        <time>2011-01-08T15:36:43Z</time>
      </trkpt>
      <trkpt lat="46.0008" lon="4.53861">
        <ele>538.48</ele>
        <time>2011-01-08T15:37:08Z</time>
      </trkpt>
      <trkpt lat="46.00201" lon="4.539">
        <ele>563.47</ele>
        <time>2011-01-08T15:37:23Z</time>
      </trkpt>
      <trkpt lat="46.00244" lon="4.53789">
        <ele>571.64</ele>
        <time>2011-01-08T15:38:11Z</time>
      </trkpt>
      <trkpt lat="46.00275" lon="4.53668">
        <ele>587.98</ele>
        <time>2011-01-08T15:38:22Z</time>
      </trkpt>
      <trkpt lat="46.00346" lon="4.53576">
        <ele>598.56</ele>
        <time>2011-01-08T15:38:29Z</time>
      </trkpt>
      <trkpt lat="46.00322" lon="4.53652">
        <ele>605.77</ele>
        <time>2011-01-08T15:38:42Z</time>
      </trkpt>
      <trkpt lat="46.00332" lon="4.53775">
        <ele>612.98</ele>
        <time>2011-01-08T15:38:54Z</time>
      </trkpt>
      <trkpt lat="46.00364" lon="4.53886">
        <ele>609.61</ele>
        <time>2011-01-08T15:39:55Z</time>
      </trkpt>
      <trkpt lat="46.00345" lon="4.54015">
        <ele>613.94</ele>
        <time>2011-01-08T15:40:09Z</time>
      </trkpt>
      <trkpt lat="46.00261" lon="4.54058">
        <ele>623.07</ele>
        <time>2011-01-08T15:40:22Z</time>
      </trkpt>
      <trkpt lat="46.00189" lon="4.54142">
        <ele>633.65</ele>
        <time>2011-01-08T15:40:34Z</time>
      </trkpt>
      <trkpt lat="46.00153" lon="4.54275">
        <ele>649.99</ele>
        <time>2011-01-08T15:40:50Z</time>
      </trkpt>
      <trkpt lat="46.00118" lon="4.54414">
        <ele>655.76</ele>
        <time>2011-01-08T15:41:02Z</time>
      </trkpt>
      <trkpt lat="46.00027" lon="4.54476">
        <ele>664.41</ele>
        <time>2011-01-08T15:41:11Z</time>
      </trkpt>
      <trkpt lat="45.99931" lon="4.54525">
        <ele>680.27</ele>
        <time>2011-01-08T15:41:26Z</time>
      </trkpt>
      <trkpt lat="45.99854" lon="4.5462">
        <ele>696.13</ele>
        <time>2011-01-08T15:42:00Z</time>
      </trkpt>
      <trkpt lat="45.9986" lon="4.54767">
        <ele>694.21</ele>
        <time>2011-01-08T15:42:08Z</time>
      </trkpt>
      <trkpt lat="45.99882" lon="4.5491">
        <ele>693.73</ele>
        <time>2011-01-08T15:42:14Z</time>
      </trkpt>
      <trkpt lat="45.99889" lon="4.55009">
        <ele>692.77</ele>
        <time>2011-01-08T15:42:35Z</time>
      </trkpt>
      <trkpt lat="45.99886" lon="4.54874">
        <ele>693.25</ele>
        <time>2011-01-08T15:42:48Z</time>
      </trkpt>
      <trkpt lat="45.9996" lon="4.54927">
        <ele>718.72</ele>
        <time>2011-01-08T15:43:12Z</time>
      </trkpt>
      <trkpt lat="46.00063" lon="4.55007">
        <ele>763.9</ele>
        <time>2011-01-08T15:44:04Z</time>
      </trkpt>
      <trkpt lat="46.00174" lon="4.55067">
        <ele>812.93</ele>
        <time>2011-01-08T15:46:57Z</time>
      </trkpt>
      <trkpt lat="46.00166" lon="4.55144">
        <ele>820.14</ele>
        <time>2011-01-08T16:00:05Z</time>
      </trkpt>
      <trkpt lat="46.00103" lon="4.55263">
        <ele>804.28</ele>
        <time>2011-01-08T16:00:22Z</time>
      </trkpt>
      <trkpt lat="46.00062" lon="4.55396">
        <ele>802.84</ele>
        <time>2011-01-08T16:00:36Z</time>
      </trkpt>
      <trkpt lat="45.99994" lon="4.55521">
        <ele>796.59</ele>
        <time>2011-01-08T16:00:49Z</time>
      </trkpt>
      <trkpt lat="45.99922" lon="4.55562">
        <ele>780.73</ele>
        <time>2011-01-08T16:01:09Z</time>
      </trkpt>
      <trkpt lat="45.99976" lon="4.5544">
        <ele>771.11</ele>
        <time>2011-01-08T16:01:23Z</time>
      </trkpt>
      <trkpt lat="46.00026" lon="4.55279">
        <ele>766.79</ele>
        <time>2011-01-08T16:01:39Z</time>
      </trkpt>
      <trkpt lat="46.00062" lon="4.55134">
        <ele>770.63</ele>
        <time>2011-01-08T16:02:01Z</time>
      </trkpt>
      <trkpt lat="46.00035" lon="4.55211">
        <ele>767.27</ele>
        <time>2011-01-08T16:02:51Z</time>
      </trkpt>
      <trkpt lat="46.00005" lon="4.5534">
        <ele>771.11</ele>
        <time>2011-01-08T16:03:59Z</time>
      </trkpt>
      <trkpt lat="45.9996" lon="4.55493">
        <ele>778.32</ele>
        <time>2011-01-08T16:04:12Z</time>
      </trkpt>
      <trkpt lat="45.99904" lon="4.55646">
        <ele>780.73</ele>
        <time>2011-01-08T16:04:32Z</time>
      </trkpt>
      <trkpt lat="45.99826" lon="4.55776">
        <ele>777.36</ele>
        <time>2011-01-08T16:04:52Z</time>
      </trkpt>
      <trkpt lat="45.99746" lon="4.55915">
        <ele>780.73</ele>
        <time>2011-01-08T16:05:02Z</time>
      </trkpt>
      <trkpt lat="45.99694" lon="4.56038">
        <ele>774</ele>
        <time>2011-01-08T16:05:11Z</time>
      </trkpt>
      <trkpt lat="45.9962" lon="4.56126">
        <ele>764.87</ele>
        <time>2011-01-08T16:05:19Z</time>
      </trkpt>
      <trkpt lat="45.99534" lon="4.56189">
        <ele>749.97</ele>
        <time>2011-01-08T16:05:29Z</time>
      </trkpt>
      <trkpt lat="45.99534" lon="4.56193">
        <ele>751.89</ele>
        <time>2011-01-08T16:11:40Z</time>
      </trkpt>
      <trkpt lat="45.99628" lon="4.56125">
        <ele>765.83</ele>
        <time>2011-01-08T16:11:49Z</time>
      </trkpt>
      <trkpt lat="45.99698" lon="4.56034">
        <ele>774.96</ele>
        <time>2011-01-08T16:11:58Z</time>
      </trkpt>
      <trkpt lat="45.99743" lon="4.55917">
        <ele>782.65</ele>
        <time>2011-01-08T16:12:07Z</time>
      </trkpt>
      <trkpt lat="45.99798" lon="4.55806">
        <ele>779.29</ele>
        <time>2011-01-08T16:12:17Z</time>
      </trkpt>
      <trkpt lat="45.99866" lon="4.55708">
        <ele>779.77</ele>
        <time>2011-01-08T16:12:31Z</time>
      </trkpt>
      <trkpt lat="45.99914" lon="4.55596">
        <ele>786.02</ele>
        <time>2011-01-08T16:12:52Z</time>
      </trkpt>
      <trkpt lat="45.99956" lon="4.55469">
        <ele>777.36</ele>
        <time>2011-01-08T16:13:05Z</time>
      </trkpt>
      <trkpt lat="46.00012" lon="4.55348">
        <ele>773.52</ele>
        <time>2011-01-08T16:13:17Z</time>
      </trkpt>
      <trkpt lat="45.99972" lon="4.5527">
        <ele>747.56</ele>
        <time>2011-01-08T16:13:57Z</time>
      </trkpt>
      <trkpt lat="45.99874" lon="4.55303">
        <ele>718.24</ele>
        <time>2011-01-08T16:14:11Z</time>
      </trkpt>
      <trkpt lat="45.99797" lon="4.55399">
        <ele>711.03</ele>
        <time>2011-01-08T16:14:32Z</time>
      </trkpt>
      <trkpt lat="45.99751" lon="4.55541">
        <ele>724.49</ele>
        <time>2011-01-08T16:14:45Z</time>
      </trkpt>
      <trkpt lat="45.99675" lon="4.55654">
        <ele>731.22</ele>
        <time>2011-01-08T16:14:54Z</time>
      </trkpt>
      <trkpt lat="45.99622" lon="4.55773">
        <ele>734.1</ele>
        <time>2011-01-08T16:15:03Z</time>
      </trkpt>
      <trkpt lat="45.99623" lon="4.55907">
        <ele>742.28</ele>
        <time>2011-01-08T16:15:12Z</time>
      </trkpt>
      <trkpt lat="45.9959" lon="4.56036">
        <ele>745.16</ele>
        <time>2011-01-08T16:15:20Z</time>
      </trkpt>
      <trkpt lat="45.99538" lon="4.56148">
        <ele>747.56</ele>
        <time>2011-01-08T16:15:28Z</time>
      </trkpt>
      <trkpt lat="45.99463" lon="4.56217">
        <ele>745.16</ele>
        <time>2011-01-08T16:15:58Z</time>
      </trkpt>
      <trkpt lat="45.99368" lon="4.56202">
        <ele>742.76</ele>
        <time>2011-01-08T16:16:06Z</time>
      </trkpt>
      <trkpt lat="45.99269" lon="4.56222">
        <ele>744.68</ele>
        <time>2011-01-08T16:16:16Z</time>
      </trkpt>
      <trkpt lat="45.99192" lon="4.56291">
        <ele>742.28</ele>
        <time>2011-01-08T16:16:25Z</time>
      </trkpt>
      <trkpt lat="45.99103" lon="4.56341">
        <ele>730.26</ele>
        <time>2011-01-08T16:16:36Z</time>
      </trkpt>
      <trkpt lat="45.99025" lon="4.56408">
        <ele>720.65</ele>
        <time>2011-01-08T16:16:49Z</time>
      </trkpt>
      <trkpt lat="45.98941" lon="4.56486">
        <ele>712.47</ele>
        <time>2011-01-08T16:17:04Z</time>
      </trkpt>
      <trkpt lat="45.98876" lon="4.56511">
        <ele>704.78</ele>
        <time>2011-01-08T16:19:59Z</time>
      </trkpt>
      <trkpt lat="45.98942" lon="4.56393">
        <ele>700.46</ele>
        <time>2011-01-08T16:20:08Z</time>
      </trkpt>
      <trkpt lat="45.9901" lon="4.56284">
        <ele>694.69</ele>
        <time>2011-01-08T16:20:15Z</time>
      </trkpt>
      <trkpt lat="45.99074" lon="4.5618">
        <ele>689.88</ele>
        <time>2011-01-08T16:20:21Z</time>
      </trkpt>
      <trkpt lat="45.99125" lon="4.56081">
        <ele>686.04</ele>
        <time>2011-01-08T16:20:27Z</time>
      </trkpt>
      <trkpt lat="45.99122" lon="4.55938">
        <ele>680.75</ele>
        <time>2011-01-08T16:20:35Z</time>
      </trkpt>
      <trkpt lat="45.99215" lon="4.55947">
        <ele>681.23</ele>
        <time>2011-01-08T16:20:44Z</time>
      </trkpt>
      <trkpt lat="45.99314" lon="4.55973">
        <ele>682.67</ele>
        <time>2011-01-08T16:20:51Z</time>
      </trkpt>
      <trkpt lat="45.99366" lon="4.55896">
        <ele>684.12</ele>
        <time>2011-01-08T16:21:00Z</time>
      </trkpt>
      <trkpt lat="45.99419" lon="4.55816">
        <ele>685.08</ele>
        <time>2011-01-08T16:21:09Z</time>
      </trkpt>
      <trkpt lat="45.99507" lon="4.55793">
        <ele>686.04</ele>
        <time>2011-01-08T16:21:16Z</time>
      </trkpt>
      <trkpt lat="45.9952" lon="4.55651">
        <ele>687</ele>
        <time>2011-01-08T16:21:24Z</time>
      </trkpt>
      <trkpt lat="45.99557" lon="4.55528">
        <ele>688.44</ele>
        <time>2011-01-08T16:21:31Z</time>
      </trkpt>
      <trkpt lat="45.9964" lon="4.55475">
        <ele>690.36</ele>
        <time>2011-01-08T16:21:39Z</time>
      </trkpt>
      <trkpt lat="45.99723" lon="4.5541">
        <ele>691.81</ele>
        <time>2011-01-08T16:21:49Z</time>
      </trkpt>
      <trkpt lat="45.99797" lon="4.5532">
        <ele>692.29</ele>
        <time>2011-01-08T16:21:56Z</time>
      </trkpt>
      <trkpt lat="45.9986" lon="4.55219">
        <ele>694.21</ele>
        <time>2011-01-08T16:22:02Z</time>
      </trkpt>
      <trkpt lat="45.99889" lon="4.55101">
        <ele>694.69</ele>
        <time>2011-01-08T16:22:08Z</time>
      </trkpt>
      <trkpt lat="45.99891" lon="4.5497">
        <ele>696.13</ele>
        <time>2011-01-08T16:22:14Z</time>
      </trkpt>
      <trkpt lat="45.99883" lon="4.54835">
        <ele>696.61</ele>
        <time>2011-01-08T16:22:20Z</time>
      </trkpt>
      <trkpt lat="45.99848" lon="4.54693">
        <ele>698.53</ele>
        <time>2011-01-08T16:22:27Z</time>
      </trkpt>
      <trkpt lat="45.99854" lon="4.54597">
        <ele>699.98</ele>
        <time>2011-01-08T16:22:43Z</time>
      </trkpt>
      <trkpt lat="45.99849" lon="4.54732">
        <ele>698.05</ele>
        <time>2011-01-08T16:22:54Z</time>
      </trkpt>
      <trkpt lat="45.99884" lon="4.54872">
        <ele>696.13</ele>
        <time>2011-01-08T16:23:01Z</time>
      </trkpt>
      <trkpt lat="45.99888" lon="4.55021">
        <ele>695.17</ele>
        <time>2011-01-08T16:23:07Z</time>
      </trkpt>
      <trkpt lat="45.99873" lon="4.55163">
        <ele>694.21</ele>
        <time>2011-01-08T16:23:13Z</time>
      </trkpt>
      <trkpt lat="45.9983" lon="4.55271">
        <ele>692.77</ele>
        <time>2011-01-08T16:23:18Z</time>
      </trkpt>
      <trkpt lat="45.99761" lon="4.55355">
        <ele>692.29</ele>
        <time>2011-01-08T16:23:23Z</time>
      </trkpt>
      <trkpt lat="45.99695" lon="4.55434">
        <ele>690.84</ele>
        <time>2011-01-08T16:23:28Z</time>
      </trkpt>
      <trkpt lat="45.99593" lon="4.5548">
        <ele>691.33</ele>
        <time>2011-01-08T16:23:35Z</time>
      </trkpt>
      <trkpt lat="45.99529" lon="4.55588">
        <ele>688.92</ele>
        <time>2011-01-08T16:23:43Z</time>
      </trkpt>
      <trkpt lat="45.99508" lon="4.55712">
        <ele>687.96</ele>
        <time>2011-01-08T16:23:49Z</time>
      </trkpt>
      <trkpt lat="45.99468" lon="4.55817">
        <ele>686.52</ele>
        <time>2011-01-08T16:23:57Z</time>
      </trkpt>
      <trkpt lat="45.99373" lon="4.55825">
        <ele>685.56</ele>
        <time>2011-01-08T16:24:04Z</time>
      </trkpt>
      <trkpt lat="45.99358" lon="4.5594">
        <ele>684.12</ele>
        <time>2011-01-08T16:24:13Z</time>
      </trkpt>
      <trkpt lat="45.99266" lon="4.55968">
        <ele>683.15</ele>
        <time>2011-01-08T16:24:22Z</time>
      </trkpt>
      <trkpt lat="45.99178" lon="4.5593">
        <ele>682.67</ele>
        <time>2011-01-08T16:24:29Z</time>
      </trkpt>
      <trkpt lat="45.99112" lon="4.55968">
        <ele>682.67</ele>
        <time>2011-01-08T16:24:40Z</time>
      </trkpt>
      <trkpt lat="45.99114" lon="4.56095">
        <ele>686.52</ele>
        <time>2011-01-08T16:24:48Z</time>
      </trkpt>
      <trkpt lat="45.99051" lon="4.56208">
        <ele>691.33</ele>
        <time>2011-01-08T16:24:56Z</time>
      </trkpt>
      <trkpt lat="45.98991" lon="4.56311">
        <ele>697.57</ele>
        <time>2011-01-08T16:25:02Z</time>
      </trkpt>
      <trkpt lat="45.9892" lon="4.56418">
        <ele>702.86</ele>
        <time>2011-01-08T16:25:09Z</time>
      </trkpt>
      <trkpt lat="45.98871" lon="4.5652">
        <ele>706.71</ele>
        <time>2011-01-08T16:25:18Z</time>
      </trkpt>
      <trkpt lat="45.98832" lon="4.56611">
        <ele>703.82</ele>
        <time>2011-01-08T16:28:21Z</time>
      </trkpt>
      <trkpt lat="45.98753" lon="4.56678">
        <ele>697.57</ele>
        <time>2011-01-08T16:28:29Z</time>
      </trkpt>
      <trkpt lat="45.98713" lon="4.56796">
        <ele>689.88</ele>
        <time>2011-01-08T16:28:38Z</time>
      </trkpt>
      <trkpt lat="45.98671" lon="4.56914">
        <ele>683.63</ele>
        <time>2011-01-08T16:28:46Z</time>
      </trkpt>
      <trkpt lat="45.98692" lon="4.57047">
        <ele>680.27</ele>
        <time>2011-01-08T16:28:58Z</time>
      </trkpt>
      <trkpt lat="45.98753" lon="4.57193">
        <ele>673.54</ele>
        <time>2011-01-08T16:29:28Z</time>
      </trkpt>
      <trkpt lat="45.98688" lon="4.57251">
        <ele>661.04</ele>
        <time>2011-01-08T16:30:00Z</time>
      </trkpt>
      <trkpt lat="45.98587" lon="4.57279">
        <ele>653.35</ele>
        <time>2011-01-08T16:30:24Z</time>
      </trkpt>
      <trkpt lat="45.98539" lon="4.57473">
        <ele>653.83</ele>
        <time>2011-01-08T16:30:56Z</time>
      </trkpt>
      <trkpt lat="45.98502" lon="4.57631">
        <ele>643.26</ele>
        <time>2011-01-08T16:31:21Z</time>
      </trkpt>
      <trkpt lat="45.98428" lon="4.57751">
        <ele>630.76</ele>
        <time>2011-01-08T16:31:38Z</time>
      </trkpt>
      <trkpt lat="45.98357" lon="4.57884">
        <ele>619.71</ele>
        <time>2011-01-08T16:32:02Z</time>
      </trkpt>
      <trkpt lat="45.98312" lon="4.58009">
        <ele>612.02</ele>
        <time>2011-01-08T16:32:16Z</time>
      </trkpt>
      <trkpt lat="45.98237" lon="4.5808">
        <ele>601.92</ele>
        <time>2011-01-08T16:32:36Z</time>
      </trkpt>
      <trkpt lat="45.9815" lon="4.58118">
        <ele>587.02</ele>
        <time>2011-01-08T16:33:00Z</time>
      </trkpt>
      <trkpt lat="45.98066" lon="4.58167">
        <ele>578.85</ele>
        <time>2011-01-08T16:33:20Z</time>
      </trkpt>
      <trkpt lat="45.98033" lon="4.58218">
        <ele>569.72</ele>
        <time>2011-01-08T16:33:42Z</time>
      </trkpt>
      <trkpt lat="45.97943" lon="4.58238">
        <ele>562.51</ele>
        <time>2011-01-08T16:33:53Z</time>
      </trkpt>
      <trkpt lat="45.97858" lon="4.58281">
        <ele>557.22</ele>
        <time>2011-01-08T16:34:02Z</time>
      </trkpt>
      <trkpt lat="45.97802" lon="4.58369">
        <ele>555.3</ele>
        <time>2011-01-08T16:34:18Z</time>
      </trkpt>
      <trkpt lat="45.97746" lon="4.58488">
        <ele>554.82</ele>
        <time>2011-01-08T16:34:27Z</time>
      </trkpt>
      <trkpt lat="45.97682" lon="4.58592">
        <ele>553.86</ele>
        <time>2011-01-08T16:34:35Z</time>
      </trkpt>
      <trkpt lat="45.97632" lon="4.58702">
        <ele>552.41</ele>
        <time>2011-01-08T16:34:42Z</time>
      </trkpt>
      <trkpt lat="45.97558" lon="4.58773">
        <ele>550.01</ele>
        <time>2011-01-08T16:34:49Z</time>
      </trkpt>
      <trkpt lat="45.97471" lon="4.58817">
        <ele>546.17</ele>
        <time>2011-01-08T16:34:56Z</time>
      </trkpt>
      <trkpt lat="45.97426" lon="4.58941">
        <ele>547.61</ele>
        <time>2011-01-08T16:35:04Z</time>
      </trkpt>
      <trkpt lat="45.97394" lon="4.59039">
        <ele>550.49</ele>
        <time>2011-01-08T16:35:28Z</time>
      </trkpt>
      <trkpt lat="45.97323" lon="4.58943">
        <ele>559.14</ele>
        <time>2011-01-08T16:35:39Z</time>
      </trkpt>
      <trkpt lat="45.97251" lon="4.58851">
        <ele>565.87</ele>
        <time>2011-01-08T16:35:49Z</time>
      </trkpt>
      <trkpt lat="45.97177" lon="4.58775">
        <ele>574.04</ele>
        <time>2011-01-08T16:35:58Z</time>
      </trkpt>
      <trkpt lat="45.97088" lon="4.5873">
        <ele>587.02</ele>
        <time>2011-01-08T16:36:07Z</time>
      </trkpt>
      <trkpt lat="45.97" lon="4.58693">
        <ele>591.35</ele>
        <time>2011-01-08T16:36:15Z</time>
      </trkpt>
      <trkpt lat="45.9691" lon="4.58699">
        <ele>593.27</ele>
        <time>2011-01-08T16:36:27Z</time>
      </trkpt>
      <trkpt lat="45.96826" lon="4.58753">
        <ele>590.87</ele>
        <time>2011-01-08T16:36:36Z</time>
      </trkpt>
      <trkpt lat="45.96741" lon="4.58797">
        <ele>593.27</ele>
        <time>2011-01-08T16:36:45Z</time>
      </trkpt>
      <trkpt lat="45.96648" lon="4.58858">
        <ele>601.44</ele>
        <time>2011-01-08T16:36:55Z</time>
      </trkpt>
      <trkpt lat="45.96551" lon="4.58878">
        <ele>606.25</ele>
        <time>2011-01-08T16:37:04Z</time>
      </trkpt>
      <trkpt lat="45.96458" lon="4.58874">
        <ele>608.17</ele>
        <time>2011-01-08T16:37:12Z</time>
      </trkpt>
      <trkpt lat="45.96363" lon="4.58879">
        <ele>608.17</ele>
        <time>2011-01-08T16:37:20Z</time>
      </trkpt>
      <trkpt lat="45.96269" lon="4.58912">
        <ele>609.13</ele>
        <time>2011-01-08T16:37:28Z</time>
      </trkpt>
      <trkpt lat="45.96176" lon="4.58957">
        <ele>610.09</ele>
        <time>2011-01-08T16:37:37Z</time>
      </trkpt>
      <trkpt lat="45.96081" lon="4.58946">
        <ele>606.73</ele>
        <time>2011-01-08T16:37:53Z</time>
      </trkpt>
      <trkpt lat="45.95996" lon="4.58902">
        <ele>605.77</ele>
        <time>2011-01-08T16:38:02Z</time>
      </trkpt>
      <trkpt lat="45.95903" lon="4.58944">
        <ele>595.67</ele>
        <time>2011-01-08T16:38:11Z</time>
      </trkpt>
      <trkpt lat="45.95809" lon="4.59">
        <ele>587.98</ele>
        <time>2011-01-08T16:38:20Z</time>
      </trkpt>
      <trkpt lat="45.95719" lon="4.59021">
        <ele>586.54</ele>
        <time>2011-01-08T16:38:28Z</time>
      </trkpt>
      <trkpt lat="45.95624" lon="4.59051">
        <ele>583.18</ele>
        <time>2011-01-08T16:38:36Z</time>
      </trkpt>
      <trkpt lat="45.95529" lon="4.59046">
        <ele>577.89</ele>
        <time>2011-01-08T16:38:43Z</time>
      </trkpt>
      <trkpt lat="45.95447" lon="4.5899">
        <ele>568.76</ele>
        <time>2011-01-08T16:38:50Z</time>
      </trkpt>
      <trkpt lat="45.95361" lon="4.58925">
        <ele>557.7</ele>
        <time>2011-01-08T16:38:58Z</time>
      </trkpt>
      <trkpt lat="45.9531" lon="4.58815">
        <ele>551.93</ele>
        <time>2011-01-08T16:39:05Z</time>
      </trkpt>
      <trkpt lat="45.95253" lon="4.58707">
        <ele>549.05</ele>
        <time>2011-01-08T16:39:12Z</time>
      </trkpt>
      <trkpt lat="45.95198" lon="4.58594">
        <ele>548.09</ele>
        <time>2011-01-08T16:39:19Z</time>
      </trkpt>
      <trkpt lat="45.95132" lon="4.58504">
        <ele>547.13</ele>
        <time>2011-01-08T16:39:26Z</time>
      </trkpt>
      <trkpt lat="45.95045" lon="4.58442">
        <ele>540.4</ele>
        <time>2011-01-08T16:39:35Z</time>
      </trkpt>
      <trkpt lat="45.94952" lon="4.58394">
        <ele>533.67</ele>
        <time>2011-01-08T16:39:44Z</time>
      </trkpt>
      <trkpt lat="45.94868" lon="4.58365">
        <ele>528.86</ele>
        <time>2011-01-08T16:42:06Z</time>
      </trkpt>
      <trkpt lat="45.94771" lon="4.58335">
        <ele>529.82</ele>
        <time>2011-01-08T16:42:14Z</time>
      </trkpt>
      <trkpt lat="45.94687" lon="4.58291">
        <ele>533.19</ele>
        <time>2011-01-08T16:42:21Z</time>
      </trkpt>
      <trkpt lat="45.94599" lon="4.58295">
        <ele>531.75</ele>
        <time>2011-01-08T16:42:33Z</time>
      </trkpt>
      <trkpt lat="45.94509" lon="4.58332">
        <ele>528.38</ele>
        <time>2011-01-08T16:42:47Z</time>
      </trkpt>
      <trkpt lat="45.94419" lon="4.58368">
        <ele>525.5</ele>
        <time>2011-01-08T16:42:59Z</time>
      </trkpt>
      <trkpt lat="45.94329" lon="4.58344">
        <ele>520.69</ele>
        <time>2011-01-08T16:43:07Z</time>
      </trkpt>
      <trkpt lat="45.94231" lon="4.58347">
        <ele>512.52</ele>
        <time>2011-01-08T16:43:15Z</time>
      </trkpt>
      <trkpt lat="45.94138" lon="4.58345">
        <ele>509.64</ele>
        <time>2011-01-08T16:43:23Z</time>
      </trkpt>
      <trkpt lat="45.94043" lon="4.58331">
        <ele>508.19</ele>
        <time>2011-01-08T16:43:31Z</time>
      </trkpt>
      <trkpt lat="45.93947" lon="4.58311">
        <ele>505.79</ele>
        <time>2011-01-08T16:43:40Z</time>
      </trkpt>
      <trkpt lat="45.93871" lon="4.58343">
        <ele>498.1</ele>
        <time>2011-01-08T16:43:57Z</time>
      </trkpt>
      <trkpt lat="45.93833" lon="4.5847">
        <ele>481.28</ele>
        <time>2011-01-08T16:44:11Z</time>
      </trkpt>
      <trkpt lat="45.938" lon="4.586">
        <ele>462.53</ele>
        <time>2011-01-08T16:44:24Z</time>
      </trkpt>
      <trkpt lat="45.93755" lon="4.58715">
        <ele>448.11</ele>
        <time>2011-01-08T16:44:39Z</time>
      </trkpt>
      <trkpt lat="45.93667" lon="4.58776">
        <ele>440.9</ele>
        <time>2011-01-08T16:44:48Z</time>
      </trkpt>
      <trkpt lat="45.93577" lon="4.5883">
        <ele>430.81</ele>
        <time>2011-01-08T16:44:57Z</time>
      </trkpt>
      <trkpt lat="45.93491" lon="4.58865">
        <ele>417.83</ele>
        <time>2011-01-08T16:45:07Z</time>
      </trkpt>
      <trkpt lat="45.93417" lon="4.58944">
        <ele>407.74</ele>
        <time>2011-01-08T16:45:17Z</time>
      </trkpt>
      <trkpt lat="45.9335" lon="4.59044">
        <ele>398.12</ele>
        <time>2011-01-08T16:45:27Z</time>
      </trkpt>
      <trkpt lat="45.93272" lon="4.59109">
        <ele>388.03</ele>
        <time>2011-01-08T16:45:39Z</time>
      </trkpt>
      <trkpt lat="45.93191" lon="4.59163">
        <ele>373.13</ele>
        <time>2011-01-08T16:45:54Z</time>
      </trkpt>
      <trkpt lat="45.93107" lon="4.5921">
        <ele>355.34</ele>
        <time>2011-01-08T16:46:14Z</time>
      </trkpt>
      <trkpt lat="45.93038" lon="4.59294">
        <ele>355.34</ele>
        <time>2011-01-08T16:46:49Z</time>
      </trkpt>
      <trkpt lat="45.92996" lon="4.59403">
        <ele>363.04</ele>
        <time>2011-01-08T16:47:03Z</time>
      </trkpt>
      <trkpt lat="45.92901" lon="4.59388">
        <ele>362.07</ele>
        <time>2011-01-08T16:47:15Z</time>
      </trkpt>
      <trkpt lat="45.92808" lon="4.59357">
        <ele>350.54</ele>
        <time>2011-01-08T16:47:23Z</time>
      </trkpt>
      <trkpt lat="45.92715" lon="4.59331">
        <ele>341.89</ele>
        <time>2011-01-08T16:47:33Z</time>
      </trkpt>
      <trkpt lat="45.92619" lon="4.59339">
        <ele>337.56</ele>
        <time>2011-01-08T16:47:50Z</time>
      </trkpt>
      <trkpt lat="45.92638" lon="4.59456">
        <ele>355.83</ele>
        <time>2011-01-08T16:48:45Z</time>
      </trkpt>
      <trkpt lat="45.92541" lon="4.59457">
        <ele>360.15</ele>
        <time>2011-01-08T16:49:07Z</time>
      </trkpt>
      <trkpt lat="45.92443" lon="4.59438">
        <ele>363.52</ele>
        <time>2011-01-08T16:49:18Z</time>
      </trkpt>
      <trkpt lat="45.92336" lon="4.59411">
        <ele>366.4</ele>
        <time>2011-01-08T16:49:29Z</time>
      </trkpt>
      <trkpt lat="45.92237" lon="4.59431">
        <ele>369.76</ele>
        <time>2011-01-08T16:49:37Z</time>
      </trkpt>
      <trkpt lat="45.92144" lon="4.59453">
        <ele>373.13</ele>
        <time>2011-01-08T16:49:47Z</time>
      </trkpt>
      <trkpt lat="45.9211" lon="4.59572">
        <ele>376.49</ele>
        <time>2011-01-08T16:49:59Z</time>
      </trkpt>
      <trkpt lat="45.92067" lon="4.59685">
        <ele>379.86</ele>
        <time>2011-01-08T16:50:15Z</time>
      </trkpt>
      <trkpt lat="45.92057" lon="4.59809">
        <ele>382.26</ele>
        <time>2011-01-08T16:50:28Z</time>
      </trkpt>
      <trkpt lat="45.92139" lon="4.59879">
        <ele>383.7</ele>
        <time>2011-01-08T16:50:39Z</time>
      </trkpt>
      <trkpt lat="45.9219" lon="4.5998">
        <ele>386.59</ele>
        <time>2011-01-08T16:50:51Z</time>
      </trkpt>
      <trkpt lat="45.92122" lon="4.60056">
        <ele>389.95</ele>
        <time>2011-01-08T16:51:12Z</time>
      </trkpt>
      <trkpt lat="45.9205" lon="4.60123">
        <ele>392.84</ele>
        <time>2011-01-08T16:51:24Z</time>
      </trkpt>
      <trkpt lat="45.92086" lon="4.60239">
        <ele>395.72</ele>
        <time>2011-01-08T16:51:35Z</time>
      </trkpt>
      <trkpt lat="45.92158" lon="4.60333">
        <ele>399.08</ele>
        <time>2011-01-08T16:51:44Z</time>
      </trkpt>
      <trkpt lat="45.9222" lon="4.60426">
        <ele>402.45</ele>
        <time>2011-01-08T16:51:52Z</time>
      </trkpt>
      <trkpt lat="45.92295" lon="4.60502">
        <ele>405.81</ele>
        <time>2011-01-08T16:52:00Z</time>
      </trkpt>
      <trkpt lat="45.9237" lon="4.60594">
        <ele>409.66</ele>
        <time>2011-01-08T16:52:09Z</time>
      </trkpt>
      <trkpt lat="45.92412" lon="4.6072">
        <ele>413.02</ele>
        <time>2011-01-08T16:52:18Z</time>
      </trkpt>
      <trkpt lat="45.92434" lon="4.60823">
        <ele>413.98</ele>
        <time>2011-01-08T16:52:42Z</time>
      </trkpt>
      <trkpt lat="45.92397" lon="4.60925">
        <ele>419.75</ele>
        <time>2011-01-08T16:52:55Z</time>
      </trkpt>
      <trkpt lat="45.92482" lon="4.60985">
        <ele>421.19</ele>
        <time>2011-01-08T16:53:06Z</time>
      </trkpt>
      <trkpt lat="45.92418" lon="4.61075">
        <ele>426.48</ele>
        <time>2011-01-08T16:53:23Z</time>
      </trkpt>
      <trkpt lat="45.92361" lon="4.6119">
        <ele>420.23</ele>
        <time>2011-01-08T16:53:37Z</time>
      </trkpt>
      <trkpt lat="45.9229" lon="4.61288">
        <ele>416.39</ele>
        <time>2011-01-08T16:53:48Z</time>
      </trkpt>
      <trkpt lat="45.92238" lon="4.61402">
        <ele>412.54</ele>
        <time>2011-01-08T16:53:59Z</time>
      </trkpt>
      <trkpt lat="45.92175" lon="4.61497">
        <ele>408.7</ele>
        <time>2011-01-08T16:54:11Z</time>
      </trkpt>
      <trkpt lat="45.92097" lon="4.61562">
        <ele>399.57</ele>
        <time>2011-01-08T16:54:24Z</time>
      </trkpt>
      <trkpt lat="45.92031" lon="4.61648">
        <ele>393.8</ele>
        <time>2011-01-08T16:54:38Z</time>
      </trkpt>
      <trkpt lat="45.91976" lon="4.61731">
        <ele>385.63</ele>
        <time>2011-01-08T16:54:55Z</time>
      </trkpt>
      <trkpt lat="45.9193" lon="4.61841">
        <ele>374.09</ele>
        <time>2011-01-08T16:55:09Z</time>
      </trkpt>
      <trkpt lat="45.91851" lon="4.61907">
        <ele>366.88</ele>
        <time>2011-01-08T16:55:22Z</time>
      </trkpt>
      <trkpt lat="45.91772" lon="4.61967">
        <ele>361.11</ele>
        <time>2011-01-08T16:55:58Z</time>
      </trkpt>
      <trkpt lat="45.91683" lon="4.61998">
        <ele>354.86</ele>
        <time>2011-01-08T16:56:08Z</time>
      </trkpt>
      <trkpt lat="45.91582" lon="4.62016">
        <ele>354.38</ele>
        <time>2011-01-08T16:56:15Z</time>
      </trkpt>
      <trkpt lat="45.91487" lon="4.62028">
        <ele>353.42</ele>
        <time>2011-01-08T16:56:22Z</time>
      </trkpt>
      <trkpt lat="45.91396" lon="4.6201">
        <ele>351.98</ele>
        <time>2011-01-08T16:56:29Z</time>
      </trkpt>
      <trkpt lat="45.91306" lon="4.62042">
        <ele>347.65</ele>
        <time>2011-01-08T16:56:36Z</time>
      </trkpt>
      <trkpt lat="45.91215" lon="4.62071">
        <ele>341.41</ele>
        <time>2011-01-08T16:56:43Z</time>
      </trkpt>
      <trkpt lat="45.91112" lon="4.62076">
        <ele>336.6</ele>
        <time>2011-01-08T16:56:50Z</time>
      </trkpt>
      <trkpt lat="45.91014" lon="4.62064">
        <ele>333.71</ele>
        <time>2011-01-08T16:56:57Z</time>
      </trkpt>
      <trkpt lat="45.90926" lon="4.62088">
        <ele>332.75</ele>
        <time>2011-01-08T16:57:04Z</time>
      </trkpt>
      <trkpt lat="45.90836" lon="4.62132">
        <ele>333.71</ele>
        <time>2011-01-08T16:57:12Z</time>
      </trkpt>
      <trkpt lat="45.90754" lon="4.62195">
        <ele>333.23</ele>
        <time>2011-01-08T16:57:20Z</time>
      </trkpt>
      <trkpt lat="45.90663" lon="4.62264">
        <ele>330.83</ele>
        <time>2011-01-08T16:57:27Z</time>
      </trkpt>
      <trkpt lat="45.90578" lon="4.62328">
        <ele>327.47</ele>
        <time>2011-01-08T16:57:33Z</time>
      </trkpt>
      <trkpt lat="45.90498" lon="4.62388">
        <ele>326.02</ele>
        <time>2011-01-08T16:57:39Z</time>
      </trkpt>
      <trkpt lat="45.90406" lon="4.62458">
        <ele>324.58</ele>
        <time>2011-01-08T16:57:46Z</time>
      </trkpt>
      <trkpt lat="45.90326" lon="4.6252">
        <ele>322.18</ele>
        <time>2011-01-08T16:57:52Z</time>
      </trkpt>
      <trkpt lat="45.90245" lon="4.62581">
        <ele>319.78</ele>
        <time>2011-01-08T16:57:58Z</time>
      </trkpt>
      <trkpt lat="45.90166" lon="4.6264">
        <ele>318.81</ele>
        <time>2011-01-08T16:58:04Z</time>
      </trkpt>
      <trkpt lat="45.90075" lon="4.62681">
        <ele>317.37</ele>
        <time>2011-01-08T16:58:12Z</time>
      </trkpt>
      <trkpt lat="45.89992" lon="4.62633">
        <ele>317.37</ele>
        <time>2011-01-08T16:58:18Z</time>
      </trkpt>
      <trkpt lat="45.89904" lon="4.62572">
        <ele>314.97</ele>
        <time>2011-01-08T16:58:27Z</time>
      </trkpt>
      <trkpt lat="45.89844" lon="4.62637">
        <ele>314.97</ele>
        <time>2011-01-08T16:58:50Z</time>
      </trkpt>
      <trkpt lat="45.89802" lon="4.62765">
        <ele>313.05</ele>
        <time>2011-01-08T16:58:58Z</time>
      </trkpt>
      <trkpt lat="45.89746" lon="4.62753">
        <ele>313.53</ele>
        <time>2011-01-08T17:38:07Z</time>
      </trkpt>
      <trkpt lat="45.89683" lon="4.62642">
        <ele>313.05</ele>
        <time>2011-01-08T17:38:18Z</time>
      </trkpt>
      <trkpt lat="45.89614" lon="4.62558">
        <ele>313.05</ele>
        <time>2011-01-08T17:38:29Z</time>
      </trkpt>
      <trkpt lat="45.89529" lon="4.62496">
        <ele>311.6</ele>
        <time>2011-01-08T17:38:38Z</time>
      </trkpt>
      <trkpt lat="45.89438" lon="4.62436">
        <ele>309.2</ele>
        <time>2011-01-08T17:38:47Z</time>
      </trkpt>
      <trkpt lat="45.89348" lon="4.62398">
        <ele>308.24</ele>
        <time>2011-01-08T17:38:56Z</time>
      </trkpt>
      <trkpt lat="45.89249" lon="4.62384">
        <ele>307.76</ele>
        <time>2011-01-08T17:39:05Z</time>
      </trkpt>
      <trkpt lat="45.89203" lon="4.62498">
        <ele>302.47</ele>
        <time>2011-01-08T17:39:19Z</time>
      </trkpt>
      <trkpt lat="45.89187" lon="4.62625">
        <ele>296.22</ele>
        <time>2011-01-08T17:39:33Z</time>
      </trkpt>
      <trkpt lat="45.89273" lon="4.62693">
        <ele>301.99</ele>
        <time>2011-01-08T17:39:47Z</time>
      </trkpt>
      <trkpt lat="45.89353" lon="4.62757">
        <ele>307.28</ele>
        <time>2011-01-08T17:39:58Z</time>
      </trkpt>
      <trkpt lat="45.89394" lon="4.62881">
        <ele>313.53</ele>
        <time>2011-01-08T17:40:09Z</time>
      </trkpt>
      <trkpt lat="45.89448" lon="4.62994">
        <ele>318.81</ele>
        <time>2011-01-08T17:40:19Z</time>
      </trkpt>
      <trkpt lat="45.89495" lon="4.63102">
        <ele>319.3</ele>
        <time>2011-01-08T17:40:28Z</time>
      </trkpt>
      <trkpt lat="45.89562" lon="4.63194">
        <ele>314.49</ele>
        <time>2011-01-08T17:40:38Z</time>
      </trkpt>
      <trkpt lat="45.89502" lon="4.63289">
        <ele>313.53</ele>
        <time>2011-01-08T17:40:52Z</time>
      </trkpt>
      <trkpt lat="45.89434" lon="4.63389">
        <ele>312.09</ele>
        <time>2011-01-08T17:41:02Z</time>
      </trkpt>
      <trkpt lat="45.89348" lon="4.63444">
        <ele>309.68</ele>
        <time>2011-01-08T17:41:12Z</time>
      </trkpt>
      <trkpt lat="45.89263" lon="4.63503">
        <ele>309.68</ele>
        <time>2011-01-08T17:41:20Z</time>
      </trkpt>
      <trkpt lat="45.89185" lon="4.63572">
        <ele>305.36</ele>
        <time>2011-01-08T17:41:30Z</time>
      </trkpt>
      <trkpt lat="45.89093" lon="4.63545">
        <ele>297.67</ele>
        <time>2011-01-08T17:41:39Z</time>
      </trkpt>
      <trkpt lat="45.89" lon="4.63506">
        <ele>286.61</ele>
        <time>2011-01-08T17:41:47Z</time>
      </trkpt>
      <trkpt lat="45.8891" lon="4.63476">
        <ele>273.63</ele>
        <time>2011-01-08T17:41:55Z</time>
      </trkpt>
      <trkpt lat="45.88819" lon="4.63473">
        <ele>263.54</ele>
        <time>2011-01-08T17:42:03Z</time>
      </trkpt>
      <trkpt lat="45.88743" lon="4.63417">
        <ele>255.85</ele>
        <time>2011-01-08T17:42:11Z</time>
      </trkpt>
      <trkpt lat="45.88664" lon="4.63344">
        <ele>248.16</ele>
        <time>2011-01-08T17:42:19Z</time>
      </trkpt>
      <trkpt lat="45.88577" lon="4.63334">
        <ele>242.39</ele>
        <time>2011-01-08T17:42:27Z</time>
      </trkpt>
      <trkpt lat="45.88501" lon="4.63417">
        <ele>233.74</ele>
        <time>2011-01-08T17:42:35Z</time>
      </trkpt>
      <trkpt lat="45.8841" lon="4.63485">
        <ele>226.53</ele>
        <time>2011-01-08T17:42:43Z</time>
      </trkpt>
      <trkpt lat="45.88336" lon="4.63558">
        <ele>222.68</ele>
        <time>2011-01-08T17:42:50Z</time>
      </trkpt>
      <trkpt lat="45.8827" lon="4.63663">
        <ele>220.76</ele>
        <time>2011-01-08T17:42:58Z</time>
      </trkpt>
      <trkpt lat="45.88211" lon="4.63761">
        <ele>220.28</ele>
        <time>2011-01-08T17:43:08Z</time>
      </trkpt>
      <trkpt lat="45.8815" lon="4.63865">
        <ele>219.8</ele>
        <time>2011-01-08T17:43:18Z</time>
      </trkpt>
      <trkpt lat="45.88083" lon="4.63956">
        <ele>219.8</ele>
        <time>2011-01-08T17:43:25Z</time>
      </trkpt>
      <trkpt lat="45.88015" lon="4.64048">
        <ele>218.84</ele>
        <time>2011-01-08T17:43:34Z</time>
      </trkpt>
      <trkpt lat="45.87947" lon="4.64141">
        <ele>218.84</ele>
        <time>2011-01-08T17:43:42Z</time>
      </trkpt>
      <trkpt lat="45.87877" lon="4.64234">
        <ele>219.8</ele>
        <time>2011-01-08T17:43:51Z</time>
      </trkpt>
      <trkpt lat="45.87803" lon="4.64335">
        <ele>219.32</ele>
        <time>2011-01-08T17:43:59Z</time>
      </trkpt>
      <trkpt lat="45.87735" lon="4.64427">
        <ele>218.36</ele>
        <time>2011-01-08T17:44:08Z</time>
      </trkpt>
      <trkpt lat="45.87663" lon="4.64521">
        <ele>217.4</ele>
        <time>2011-01-08T17:44:20Z</time>
      </trkpt>
      <trkpt lat="45.87594" lon="4.64609">
        <ele>217.4</ele>
        <time>2011-01-08T17:44:29Z</time>
      </trkpt>
      <trkpt lat="45.87523" lon="4.64705">
        <ele>216.91</ele>
        <time>2011-01-08T17:44:38Z</time>
      </trkpt>
      <trkpt lat="45.87456" lon="4.64794">
        <ele>215.95</ele>
        <time>2011-01-08T17:44:46Z</time>
      </trkpt>
      <trkpt lat="45.87385" lon="4.64884">
        <ele>214.99</ele>
        <time>2011-01-08T17:45:27Z</time>
      </trkpt>
      <trkpt lat="45.87319" lon="4.64988">
        <ele>215.95</ele>
        <time>2011-01-08T17:45:36Z</time>
      </trkpt>
      <trkpt lat="45.87253" lon="4.6508">
        <ele>215.95</ele>
        <time>2011-01-08T17:45:43Z</time>
      </trkpt>
      <trkpt lat="45.87179" lon="4.65121">
        <ele>214.99</ele>
        <time>2011-01-08T17:46:04Z</time>
      </trkpt>
      <trkpt lat="45.87116" lon="4.65197">
        <ele>214.51</ele>
        <time>2011-01-08T17:47:18Z</time>
      </trkpt>
      <trkpt lat="45.87058" lon="4.65317">
        <ele>214.51</ele>
        <time>2011-01-08T17:47:27Z</time>
      </trkpt>
      <trkpt lat="45.86982" lon="4.65423">
        <ele>215.47</ele>
        <time>2011-01-08T17:47:34Z</time>
      </trkpt>
      <trkpt lat="45.86913" lon="4.65531">
        <ele>216.43</ele>
        <time>2011-01-08T17:47:41Z</time>
      </trkpt>
      <trkpt lat="45.86885" lon="4.65666">
        <ele>219.32</ele>
        <time>2011-01-08T17:48:15Z</time>
      </trkpt>
      <trkpt lat="45.86871" lon="4.65798">
        <ele>220.28</ele>
        <time>2011-01-08T17:48:22Z</time>
      </trkpt>
      <trkpt lat="45.86826" lon="4.65913">
        <ele>219.8</ele>
        <time>2011-01-08T17:48:29Z</time>
      </trkpt>
      <trkpt lat="45.86762" lon="4.66014">
        <ele>219.32</ele>
        <time>2011-01-08T17:48:36Z</time>
      </trkpt>
      <trkpt lat="45.86669" lon="4.66074">
        <ele>217.88</ele>
        <time>2011-01-08T17:48:43Z</time>
      </trkpt>
      <trkpt lat="45.86577" lon="4.66123">
        <ele>217.4</ele>
        <time>2011-01-08T17:48:50Z</time>
      </trkpt>
      <trkpt lat="45.8649" lon="4.6619">
        <ele>215.47</ele>
        <time>2011-01-08T17:48:57Z</time>
      </trkpt>
      <trkpt lat="45.86394" lon="4.6622">
        <ele>214.51</ele>
        <time>2011-01-08T17:49:04Z</time>
      </trkpt>
      <trkpt lat="45.86306" lon="4.6628">
        <ele>213.55</ele>
        <time>2011-01-08T17:49:11Z</time>
      </trkpt>
      <trkpt lat="45.86246" lon="4.66375">
        <ele>211.63</ele>
        <time>2011-01-08T17:49:17Z</time>
      </trkpt>
      <trkpt lat="45.86186" lon="4.66491">
        <ele>211.63</ele>
        <time>2011-01-08T17:49:24Z</time>
      </trkpt>
      <trkpt lat="45.86117" lon="4.66585">
        <ele>212.59</ele>
        <time>2011-01-08T17:49:31Z</time>
      </trkpt>
      <trkpt lat="45.86033" lon="4.66648">
        <ele>212.11</ele>
        <time>2011-01-08T17:49:38Z</time>
      </trkpt>
      <trkpt lat="45.85968" lon="4.66752">
        <ele>211.15</ele>
        <time>2011-01-08T17:49:45Z</time>
      </trkpt>
      <trkpt lat="45.8593" lon="4.66877">
        <ele>209.7</ele>
        <time>2011-01-08T17:49:52Z</time>
      </trkpt>
      <trkpt lat="45.85873" lon="4.66957">
        <ele>209.22</ele>
        <time>2011-01-08T17:50:07Z</time>
      </trkpt>
      <trkpt lat="45.85777" lon="4.6694">
        <ele>211.63</ele>
        <time>2011-01-08T17:50:17Z</time>
      </trkpt>
      <trkpt lat="45.85681" lon="4.66917">
        <ele>213.55</ele>
        <time>2011-01-08T17:50:26Z</time>
      </trkpt>
      <trkpt lat="45.85591" lon="4.66933">
        <ele>211.15</ele>
        <time>2011-01-08T17:50:37Z</time>
      </trkpt>
      <trkpt lat="45.85501" lon="4.66951">
        <ele>211.63</ele>
        <time>2011-01-08T17:50:46Z</time>
      </trkpt>
      <trkpt lat="45.85402" lon="4.66958">
        <ele>213.55</ele>
        <time>2011-01-08T17:50:55Z</time>
      </trkpt>
      <trkpt lat="45.85321" lon="4.67011">
        <ele>215.47</ele>
        <time>2011-01-08T17:51:02Z</time>
      </trkpt>
      <trkpt lat="45.85228" lon="4.67029">
        <ele>218.36</ele>
        <time>2011-01-08T17:51:09Z</time>
      </trkpt>
      <trkpt lat="45.85136" lon="4.67">
        <ele>222.68</ele>
        <time>2011-01-08T17:51:16Z</time>
      </trkpt>
      <trkpt lat="45.85041" lon="4.66994">
        <ele>225.57</ele>
        <time>2011-01-08T17:51:23Z</time>
      </trkpt>
      <trkpt lat="45.84948" lon="4.67003">
        <ele>229.89</ele>
        <time>2011-01-08T17:51:30Z</time>
      </trkpt>
      <trkpt lat="45.84857" lon="4.67011">
        <ele>236.62</ele>
        <time>2011-01-08T17:51:37Z</time>
      </trkpt>
      <trkpt lat="45.84763" lon="4.6702">
        <ele>243.83</ele>
        <time>2011-01-08T17:51:44Z</time>
      </trkpt>
      <trkpt lat="45.84666" lon="4.67028">
        <ele>251.52</ele>
        <time>2011-01-08T17:51:51Z</time>
      </trkpt>
      <trkpt lat="45.84572" lon="4.67037">
        <ele>258.25</ele>
        <time>2011-01-08T17:51:58Z</time>
      </trkpt>
      <trkpt lat="45.84476" lon="4.67046">
        <ele>263.54</ele>
        <time>2011-01-08T17:52:05Z</time>
      </trkpt>
      <trkpt lat="45.84381" lon="4.67056">
        <ele>269.31</ele>
        <time>2011-01-08T17:52:12Z</time>
      </trkpt>
      <trkpt lat="45.84277" lon="4.67069">
        <ele>274.11</ele>
        <time>2011-01-08T17:52:19Z</time>
      </trkpt>
      <trkpt lat="45.84179" lon="4.67076">
        <ele>277.96</ele>
        <time>2011-01-08T17:52:26Z</time>
      </trkpt>
      <trkpt lat="45.84081" lon="4.67064">
        <ele>280.36</ele>
        <time>2011-01-08T17:52:33Z</time>
      </trkpt>
      <trkpt lat="45.83985" lon="4.67035">
        <ele>281.8</ele>
        <time>2011-01-08T17:52:40Z</time>
      </trkpt>
      <trkpt lat="45.83889" lon="4.66997">
        <ele>284.21</ele>
        <time>2011-01-08T17:52:47Z</time>
      </trkpt>
      <trkpt lat="45.83792" lon="4.66977">
        <ele>289.01</ele>
        <time>2011-01-08T17:52:54Z</time>
      </trkpt>
      <trkpt lat="45.83686" lon="4.66966">
        <ele>294.78</ele>
        <time>2011-01-08T17:53:01Z</time>
      </trkpt>
      <trkpt lat="45.83594" lon="4.66952">
        <ele>298.63</ele>
        <time>2011-01-08T17:53:08Z</time>
      </trkpt>
      <trkpt lat="45.83492" lon="4.66943">
        <ele>303.43</ele>
        <time>2011-01-08T17:53:16Z</time>
      </trkpt>
      <trkpt lat="45.83394" lon="4.66957">
        <ele>307.76</ele>
        <time>2011-01-08T17:53:23Z</time>
      </trkpt>
      <trkpt lat="45.83305" lon="4.66964">
        <ele>308.24</ele>
        <time>2011-01-08T17:53:30Z</time>
      </trkpt>
      <trkpt lat="45.83217" lon="4.66931">
        <ele>308.72</ele>
        <time>2011-01-08T17:53:36Z</time>
      </trkpt>
      <trkpt lat="45.83132" lon="4.66885">
        <ele>311.12</ele>
        <time>2011-01-08T17:53:42Z</time>
      </trkpt>
      <trkpt lat="45.83038" lon="4.66837">
        <ele>315.45</ele>
        <time>2011-01-08T17:53:49Z</time>
      </trkpt>
      <trkpt lat="45.82948" lon="4.66822">
        <ele>313.53</ele>
        <time>2011-01-08T17:53:55Z</time>
      </trkpt>
      <trkpt lat="45.82845" lon="4.6681">
        <ele>312.57</ele>
        <time>2011-01-08T17:54:02Z</time>
      </trkpt>
      <trkpt lat="45.82743" lon="4.66807">
        <ele>311.12</ele>
        <time>2011-01-08T17:54:09Z</time>
      </trkpt>
      <trkpt lat="45.82652" lon="4.66813">
        <ele>308.72</ele>
        <time>2011-01-08T17:54:16Z</time>
      </trkpt>
      <trkpt lat="45.82564" lon="4.66829">
        <ele>306.8</ele>
        <time>2011-01-08T17:54:25Z</time>
      </trkpt>
      <trkpt lat="45.82482" lon="4.66817">
        <ele>307.28</ele>
        <time>2011-01-08T17:54:49Z</time>
      </trkpt>
      <trkpt lat="45.82384" lon="4.66853">
        <ele>301.99</ele>
        <time>2011-01-08T17:54:56Z</time>
      </trkpt>
      <trkpt lat="45.82292" lon="4.66856">
        <ele>301.51</ele>
        <time>2011-01-08T17:55:03Z</time>
      </trkpt>
      <trkpt lat="45.822" lon="4.66866">
        <ele>299.11</ele>
        <time>2011-01-08T17:55:10Z</time>
      </trkpt>
      <trkpt lat="45.82114" lon="4.66834">
        <ele>299.11</ele>
        <time>2011-01-08T17:55:20Z</time>
      </trkpt>
      <trkpt lat="45.82047" lon="4.66761">
        <ele>302.47</ele>
        <time>2011-01-08T17:55:59Z</time>
      </trkpt>
      <trkpt lat="45.81962" lon="4.66693">
        <ele>306.32</ele>
        <time>2011-01-08T17:56:08Z</time>
      </trkpt>
      <trkpt lat="45.81881" lon="4.66629">
        <ele>310.64</ele>
        <time>2011-01-08T17:56:15Z</time>
      </trkpt>
      <trkpt lat="45.81799" lon="4.66563">
        <ele>314.97</ele>
        <time>2011-01-08T17:56:22Z</time>
      </trkpt>
      <trkpt lat="45.81719" lon="4.66492">
        <ele>316.89</ele>
        <time>2011-01-08T17:56:32Z</time>
      </trkpt>
      <trkpt lat="45.81633" lon="4.66432">
        <ele>321.22</ele>
        <time>2011-01-08T17:56:40Z</time>
      </trkpt>
      <trkpt lat="45.81549" lon="4.66366">
        <ele>325.06</ele>
        <time>2011-01-08T17:56:47Z</time>
      </trkpt>
      <trkpt lat="45.81466" lon="4.66308">
        <ele>328.91</ele>
        <time>2011-01-08T17:56:54Z</time>
      </trkpt>
      <trkpt lat="45.81372" lon="4.66289">
        <ele>332.27</ele>
        <time>2011-01-08T17:57:01Z</time>
      </trkpt>
      <trkpt lat="45.81276" lon="4.66314">
        <ele>336.6</ele>
        <time>2011-01-08T17:57:08Z</time>
      </trkpt>
      <trkpt lat="45.8118" lon="4.66345">
        <ele>341.41</ele>
        <time>2011-01-08T17:57:15Z</time>
      </trkpt>
      <trkpt lat="45.81084" lon="4.66373">
        <ele>345.73</ele>
        <time>2011-01-08T17:57:22Z</time>
      </trkpt>
      <trkpt lat="45.80998" lon="4.66398">
        <ele>351.98</ele>
        <time>2011-01-08T17:57:28Z</time>
      </trkpt>
      <trkpt lat="45.809" lon="4.66427">
        <ele>359.19</ele>
        <time>2011-01-08T17:57:35Z</time>
      </trkpt>
      <trkpt lat="45.80809" lon="4.66446">
        <ele>367.36</ele>
        <time>2011-01-08T17:57:42Z</time>
      </trkpt>
      <trkpt lat="45.80717" lon="4.66453">
        <ele>374.09</ele>
        <time>2011-01-08T17:57:49Z</time>
      </trkpt>
      <trkpt lat="45.80663" lon="4.66495">
        <ele>376.01</ele>
        <time>2011-01-08T17:58:03Z</time>
      </trkpt>
      <trkpt lat="45.80654" lon="4.66634">
        <ele>374.09</ele>
        <time>2011-01-08T17:58:12Z</time>
      </trkpt>
      <trkpt lat="45.80594" lon="4.66748">
        <ele>371.69</ele>
        <time>2011-01-08T17:58:21Z</time>
      </trkpt>
      <trkpt lat="45.80511" lon="4.6681">
        <ele>368.32</ele>
        <time>2011-01-08T17:58:29Z</time>
      </trkpt>
      <trkpt lat="45.80418" lon="4.66845">
        <ele>364.96</ele>
        <time>2011-01-08T17:58:37Z</time>
      </trkpt>
      <trkpt lat="45.80337" lon="4.66916">
        <ele>361.11</ele>
        <time>2011-01-08T17:58:44Z</time>
      </trkpt>
      <trkpt lat="45.80265" lon="4.67003">
        <ele>357.75</ele>
        <time>2011-01-08T17:58:51Z</time>
      </trkpt>
      <trkpt lat="45.80198" lon="4.67102">
        <ele>354.38</ele>
        <time>2011-01-08T17:58:58Z</time>
      </trkpt>
      <trkpt lat="45.8015" lon="4.67214">
        <ele>352.94</ele>
        <time>2011-01-08T17:59:04Z</time>
      </trkpt>
      <trkpt lat="45.801" lon="4.6734">
        <ele>348.13</ele>
        <time>2011-01-08T17:59:11Z</time>
      </trkpt>
      <trkpt lat="45.80056" lon="4.6747">
        <ele>345.25</ele>
        <time>2011-01-08T17:59:18Z</time>
      </trkpt>
      <trkpt lat="45.80049" lon="4.67614">
        <ele>342.85</ele>
        <time>2011-01-08T17:59:25Z</time>
      </trkpt>
      <trkpt lat="45.80068" lon="4.67757">
        <ele>343.33</ele>
        <time>2011-01-08T17:59:32Z</time>
      </trkpt>
      <trkpt lat="45.80086" lon="4.67879">
        <ele>345.73</ele>
        <time>2011-01-08T17:59:38Z</time>
      </trkpt>
      <trkpt lat="45.80083" lon="4.68014">
        <ele>347.65</ele>
        <time>2011-01-08T17:59:45Z</time>
      </trkpt>
      <trkpt lat="45.80056" lon="4.68154">
        <ele>351.02</ele>
        <time>2011-01-08T17:59:52Z</time>
      </trkpt>
      <trkpt lat="45.80016" lon="4.6829">
        <ele>353.9</ele>
        <time>2011-01-08T17:59:59Z</time>
      </trkpt>
      <trkpt lat="45.79956" lon="4.6841">
        <ele>354.86</ele>
        <time>2011-01-08T18:00:06Z</time>
      </trkpt>
      <trkpt lat="45.79884" lon="4.68513">
        <ele>356.79</ele>
        <time>2011-01-08T18:00:13Z</time>
      </trkpt>
      <trkpt lat="45.79802" lon="4.68598">
        <ele>355.83</ele>
        <time>2011-01-08T18:00:20Z</time>
      </trkpt>
      <trkpt lat="45.79713" lon="4.68673">
        <ele>351.98</ele>
        <time>2011-01-08T18:00:27Z</time>
      </trkpt>
      <trkpt lat="45.79633" lon="4.68736">
        <ele>347.17</ele>
        <time>2011-01-08T18:00:33Z</time>
      </trkpt>
      <trkpt lat="45.79556" lon="4.68798">
        <ele>342.85</ele>
        <time>2011-01-08T18:00:39Z</time>
      </trkpt>
      <trkpt lat="45.79479" lon="4.68852">
        <ele>339.96</ele>
        <time>2011-01-08T18:00:51Z</time>
      </trkpt>
      <trkpt lat="45.79502" lon="4.68723">
        <ele>342.37</ele>
        <time>2011-01-08T18:01:34Z</time>
      </trkpt>
      <trkpt lat="45.79522" lon="4.68613">
        <ele>347.17</ele>
        <time>2011-01-08T18:01:46Z</time>
      </trkpt>
      <trkpt lat="45.79432" lon="4.68567">
        <ele>343.81</ele>
        <time>2011-01-08T18:01:56Z</time>
      </trkpt>
      <trkpt lat="45.79351" lon="4.68499">
        <ele>340.44</ele>
        <time>2011-01-08T18:02:07Z</time>
      </trkpt>
      <trkpt lat="45.79297" lon="4.68393">
        <ele>327.47</ele>
        <time>2011-01-08T18:02:19Z</time>
      </trkpt>
      <trkpt lat="45.79221" lon="4.68336">
        <ele>323.14</ele>
        <time>2011-01-08T18:02:36Z</time>
      </trkpt>
      <trkpt lat="45.79212" lon="4.68249">
        <ele>343.33</ele>
        <time>2011-01-08T18:02:56Z</time>
      </trkpt>
      <trkpt lat="45.79152" lon="4.68153">
        <ele>351.5</ele>
        <time>2011-01-08T18:03:09Z</time>
      </trkpt>
      <trkpt lat="45.79062" lon="4.68098">
        <ele>361.11</ele>
        <time>2011-01-08T18:03:25Z</time>
      </trkpt>
      <trkpt lat="45.78992" lon="4.68161">
        <ele>369.76</ele>
        <time>2011-01-08T18:03:38Z</time>
      </trkpt>
      <trkpt lat="45.78898" lon="4.68128">
        <ele>373.61</ele>
        <time>2011-01-08T18:03:48Z</time>
      </trkpt>
      <trkpt lat="45.78822" lon="4.68056">
        <ele>369.28</ele>
        <time>2011-01-08T18:03:57Z</time>
      </trkpt>
      <trkpt lat="45.78749" lon="4.67977">
        <ele>360.63</ele>
        <time>2011-01-08T18:04:06Z</time>
      </trkpt>
      <trkpt lat="45.78679" lon="4.6788">
        <ele>346.69</ele>
        <time>2011-01-08T18:04:16Z</time>
      </trkpt>
      <trkpt lat="45.78645" lon="4.67781">
        <ele>337.56</ele>
        <time>2011-01-08T18:05:15Z</time>
      </trkpt>
      <trkpt lat="45.78551" lon="4.67765">
        <ele>344.77</ele>
        <time>2011-01-08T18:05:30Z</time>
      </trkpt>
      <trkpt lat="45.78476" lon="4.67845">
        <ele>359.19</ele>
        <time>2011-01-08T18:05:40Z</time>
      </trkpt>
      <trkpt lat="45.78407" lon="4.67954">
        <ele>371.21</ele>
        <time>2011-01-08T18:05:48Z</time>
      </trkpt>
      <trkpt lat="45.78335" lon="4.68048">
        <ele>382.74</ele>
        <time>2011-01-08T18:05:57Z</time>
      </trkpt>
      <trkpt lat="45.78247" lon="4.681">
        <ele>390.43</ele>
        <time>2011-01-08T18:06:05Z</time>
      </trkpt>
      <trkpt lat="45.78163" lon="4.68148">
        <ele>389.47</ele>
        <time>2011-01-08T18:06:14Z</time>
      </trkpt>
      <trkpt lat="45.78104" lon="4.68259">
        <ele>393.32</ele>
        <time>2011-01-08T18:06:23Z</time>
      </trkpt>
      <trkpt lat="45.78028" lon="4.68345">
        <ele>402.45</ele>
        <time>2011-01-08T18:06:31Z</time>
      </trkpt>
      <trkpt lat="45.77997" lon="4.68458">
        <ele>410.62</ele>
        <time>2011-01-08T18:06:41Z</time>
      </trkpt>
      <trkpt lat="45.77933" lon="4.68559">
        <ele>412.06</ele>
        <time>2011-01-08T18:06:49Z</time>
      </trkpt>
      <trkpt lat="45.77879" lon="4.68676">
        <ele>410.62</ele>
        <time>2011-01-08T18:06:56Z</time>
      </trkpt>
      <trkpt lat="45.77797" lon="4.68757">
        <ele>410.14</ele>
        <time>2011-01-08T18:07:03Z</time>
      </trkpt>
      <trkpt lat="45.77707" lon="4.68823">
        <ele>406.29</ele>
        <time>2011-01-08T18:07:10Z</time>
      </trkpt>
      <trkpt lat="45.77626" lon="4.68845">
        <ele>400.53</ele>
        <time>2011-01-08T18:07:35Z</time>
      </trkpt>
      <trkpt lat="45.77662" lon="4.68979">
        <ele>403.41</ele>
        <time>2011-01-08T18:07:47Z</time>
      </trkpt>
      <trkpt lat="45.77694" lon="4.69099">
        <ele>400.05</ele>
        <time>2011-01-08T18:07:57Z</time>
      </trkpt>
      <trkpt lat="45.77601" lon="4.69103">
        <ele>396.2</ele>
        <time>2011-01-08T18:08:07Z</time>
      </trkpt>
      <trkpt lat="45.77508" lon="4.69063">
        <ele>394.28</ele>
        <time>2011-01-08T18:08:16Z</time>
      </trkpt>
      <trkpt lat="45.77415" lon="4.6909">
        <ele>384.66</ele>
        <time>2011-01-08T18:08:28Z</time>
      </trkpt>
      <trkpt lat="45.77335" lon="4.69187">
        <ele>374.57</ele>
        <time>2011-01-08T18:08:35Z</time>
      </trkpt>
      <trkpt lat="45.77276" lon="4.69308">
        <ele>365.92</ele>
        <time>2011-01-08T18:08:41Z</time>
      </trkpt>
      <trkpt lat="45.77213" lon="4.69402">
        <ele>360.15</ele>
        <time>2011-01-08T18:08:48Z</time>
      </trkpt>
      <trkpt lat="45.77119" lon="4.69441">
        <ele>357.27</ele>
        <time>2011-01-08T18:09:18Z</time>
      </trkpt>
      <trkpt lat="45.77022" lon="4.69484">
        <ele>355.83</ele>
        <time>2011-01-08T18:09:24Z</time>
      </trkpt>
      <trkpt lat="45.76942" lon="4.69545">
        <ele>353.42</ele>
        <time>2011-01-08T18:09:30Z</time>
      </trkpt>
      <trkpt lat="45.76876" lon="4.69648">
        <ele>349.58</ele>
        <time>2011-01-08T18:09:36Z</time>
      </trkpt>
      <trkpt lat="45.76784" lon="4.69721">
        <ele>341.89</ele>
        <time>2011-01-08T18:09:43Z</time>
      </trkpt>
      <trkpt lat="45.76697" lon="4.69769">
        <ele>336.6</ele>
        <time>2011-01-08T18:09:49Z</time>
      </trkpt>
      <trkpt lat="45.76613" lon="4.69818">
        <ele>331.79</ele>
        <time>2011-01-08T18:09:56Z</time>
      </trkpt>
      <trkpt lat="45.7653" lon="4.69863">
        <ele>329.87</ele>
        <time>2011-01-08T18:10:56Z</time>
      </trkpt>
      <trkpt lat="45.76432" lon="4.69904">
        <ele>328.43</ele>
        <time>2011-01-08T18:11:02Z</time>
      </trkpt>
      <trkpt lat="45.76346" lon="4.69947">
        <ele>327.95</ele>
        <time>2011-01-08T18:11:08Z</time>
      </trkpt>
      <trkpt lat="45.76273" lon="4.7005">
        <ele>327.95</ele>
        <time>2011-01-08T18:11:16Z</time>
      </trkpt>
      <trkpt lat="45.76233" lon="4.70172">
        <ele>327.47</ele>
        <time>2011-01-08T18:11:22Z</time>
      </trkpt>
      <trkpt lat="45.7618" lon="4.70283">
        <ele>329.39</ele>
        <time>2011-01-08T18:11:28Z</time>
      </trkpt>
      <trkpt lat="45.7613" lon="4.70395">
        <ele>326.5</ele>
        <time>2011-01-08T18:11:34Z</time>
      </trkpt>
      <trkpt lat="45.76099" lon="4.70523">
        <ele>323.62</ele>
        <time>2011-01-08T18:11:40Z</time>
      </trkpt>
      <trkpt lat="45.76064" lon="4.7065">
        <ele>318.81</ele>
        <time>2011-01-08T18:11:46Z</time>
      </trkpt>
      <trkpt lat="45.76029" lon="4.70777">
        <ele>313.53</ele>
        <time>2011-01-08T18:11:51Z</time>
      </trkpt>
      <trkpt lat="45.76001" lon="4.70907">
        <ele>311.12</ele>
        <time>2011-01-08T18:11:55Z</time>
      </trkpt>
      <trkpt lat="45.75974" lon="4.71043">
        <ele>307.76</ele>
        <time>2011-01-08T18:12:00Z</time>
      </trkpt>
      <trkpt lat="45.75943" lon="4.71185">
        <ele>307.28</ele>
        <time>2011-01-08T18:12:06Z</time>
      </trkpt>
      <trkpt lat="45.75919" lon="4.71327">
        <ele>305.84</ele>
        <time>2011-01-08T18:12:13Z</time>
      </trkpt>
      <trkpt lat="45.75896" lon="4.71462">
        <ele>307.28</ele>
        <time>2011-01-08T18:12:20Z</time>
      </trkpt>
      <trkpt lat="45.75887" lon="4.71599">
        <ele>307.76</ele>
        <time>2011-01-08T18:12:27Z</time>
      </trkpt>
      <trkpt lat="45.75835" lon="4.71653">
        <ele>307.28</ele>
        <time>2011-01-08T18:13:19Z</time>
      </trkpt>
      <trkpt lat="45.75771" lon="4.71702">
        <ele>308.24</ele>
        <time>2011-01-08T18:13:30Z</time>
      </trkpt>
      <trkpt lat="45.75747" lon="4.71846">
        <ele>305.36</ele>
        <time>2011-01-08T18:13:37Z</time>
      </trkpt>
      <trkpt lat="45.75726" lon="4.71975">
        <ele>301.99</ele>
        <time>2011-01-08T18:13:45Z</time>
      </trkpt>
      <trkpt lat="45.75636" lon="4.71957">
        <ele>295.26</ele>
        <time>2011-01-08T18:13:56Z</time>
      </trkpt>
      <trkpt lat="45.75549" lon="4.72008">
        <ele>283.73</ele>
        <time>2011-01-08T18:14:07Z</time>
      </trkpt>
      <trkpt lat="45.75461" lon="4.71976">
        <ele>274.59</ele>
        <time>2011-01-08T18:14:14Z</time>
      </trkpt>
      <trkpt lat="45.75397" lon="4.72068">
        <ele>272.19</ele>
        <time>2011-01-08T18:14:23Z</time>
      </trkpt>
      <trkpt lat="45.75354" lon="4.72117">
        <ele>269.31</ele>
        <time>2011-01-08T18:14:35Z</time>
      </trkpt>
      <trkpt lat="45.75257" lon="4.72066">
        <ele>272.67</ele>
        <time>2011-01-08T18:14:42Z</time>
      </trkpt>
      <trkpt lat="45.75157" lon="4.72041">
        <ele>277</ele>
        <time>2011-01-08T18:14:48Z</time>
      </trkpt>
      <trkpt lat="45.75074" lon="4.72092">
        <ele>279.4</ele>
        <time>2011-01-08T18:14:58Z</time>
      </trkpt>
      <trkpt lat="45.74984" lon="4.72102">
        <ele>281.8</ele>
        <time>2011-01-08T18:15:18Z</time>
      </trkpt>
      <trkpt lat="45.74901" lon="4.72132">
        <ele>281.32</ele>
        <time>2011-01-08T18:15:28Z</time>
      </trkpt>
      <trkpt lat="45.74847" lon="4.72216">
        <ele>282.28</ele>
        <time>2011-01-08T18:15:39Z</time>
      </trkpt>
      <trkpt lat="45.74755" lon="4.72229">
        <ele>283.73</ele>
        <time>2011-01-08T18:15:48Z</time>
      </trkpt>
    </trkseg>
  </trk>
</gpx>